GFSSW_sfc_thetae_000.txt.gz
Theta_e
325 324 323 324 323 323 323 324 325 326 326 326 327 328 327 326 322 307 303 309 316 330 326 311 305 304 303 303 304 300 293 290 289 290 291 294 293 295 294 292 292 293 291 293 294
324 323 323 323 323 323 323 323 324 325 326 326 326 328 327 324 310 304 316 324 331 328 306 302 301 303 300 300 300 296 291 291 293 292 292 294 293 294 292 289 289 290 292 292 291
323 322 322 322 322 323 323 323 324 325 326 326 326 327 325 319 304 303 324 328 327 325 308 303 302 301 297 298 296 294 291 295 295 296 296 295 293 293 291 288 289 288 289 289 289
323 322 321 321 321 322 323 323 324 324 325 325 326 326 324 311 294 305 326 327 327 312 306 304 301 297 295 294 298 292 296 296 298 297 296 294 295 291 290 289 292 290 289 288 287
321 321 320 320 321 321 321 323 324 324 324 325 326 325 313 301 300 308 319 315 306 306 303 301 298 296 293 295 296 293 295 297 297 297 296 296 293 291 288 290 290 290 289 287 287
319 320 319 319 320 321 320 322 324 323 324 325 326 323 307 299 307 309 305 305 304 303 301 300 298 299 295 296 293 295 296 296 297 296 296 293 290 291 290 290 288 289 287 287 287
319 320 319 319 320 319 319 321 323 323 323 324 326 316 305 302 307 306 305 302 303 302 301 300 300 298 297 294 297 295 292 294 294 295 294 293 289 290 290 289 288 287 286 287 287
318 319 318 318 319 318 318 320 322 322 324 324 325 312 301 309 307 306 304 303 303 302 302 301 301 299 296 297 295 290 289 287 292 294 293 291 286 290 289 288 286 285 284 285 286
318 319 318 318 318 317 317 319 320 323 324 324 313 305 299 312 306 307 302 300 301 301 300 303 300 296 295 291 288 287 284 285 288 294 292 290 286 289 288 288 285 282 283 283 282
318 319 318 318 318 317 318 321 320 319 315 313 308 302 301 301 307 306 303 301 299 300 300 298 293 290 290 289 285 284 282 284 285 289 290 289 288 288 289 285 284 282 282 281 282
319 318 318 318 318 317 315 303 302 300 301 299 297 299 302 307 305 303 301 300 300 297 293 295 291 289 291 289 288 286 284 284 287 291 288 288 289 286 289 284 282 280 280 280 282
319 318 317 317 317 316 306 297 299 300 294 298 299 302 305 303 297 300 301 296 295 292 292 291 288 292 292 290 288 287 285 284 288 289 287 287 286 288 288 286 285 282 280 280 281
319 318 316 316 315 308 301 300 307 304 292 296 301 301 303 301 297 297 297 295 292 290 291 289 292 292 290 287 286 285 285 283 284 286 285 283 282 286 285 286 283 282 282 281 281
318 317 315 313 306 301 301 304 306 302 286 290 295 300 299 298 294 299 296 295 292 292 290 288 290 289 287 286 287 283 286 286 284 281 277 281 276 280 280 282 282 282 280 280 280
317 316 313 312 299 299 302 305 302 297 275 290 297 302 300 295 296 296 296 294 292 291 291 290 286 286 286 287 289 285 285 284 283 280 277 279 275 279 279 279 280 281 280 279 280
317 315 309 307 300 300 302 300 298 286 278 290 297 294 293 294 294 296 294 294 292 288 287 289 288 287 287 288 287 288 284 282 280 277 272 277 277 275 276 280 281 282 279 279 279
317 313 307 304 297 301 302 297 284 279 289 290 292 294 291 291 291 292 291 288 290 285 284 286 286 286 289 285 287 285 280 276 273 271 274 276 274 282 282 281 282 282 279 278 279
316 309 307 305 302 301 299 291 279 284 287 292 291 290 289 291 291 290 288 287 288 287 282 282 281 285 287 286 285 283 281 277 270 271 279 275 274 279 280 279 282 283 279 278 278
312 304 305 304 302 302 290 283 285 287 290 292 290 286 287 290 290 287 286 285 290 289 286 281 281 284 284 284 285 281 278 281 275 262 266 274 277 280 278 276 277 277 277 277 278
309 308 304 305 304 298 285 289 289 293 294 292 287 290 286 288 287 286 285 287 288 290 289 286 281 282 281 283 282 282 283 276 275 269 266 275 276 279 275 275 275 276 276 276 278
308 300 301 304 304 295 286 287 291 296 295 293 289 288 288 288 287 284 287 288 290 286 287 284 284 280 280 279 281 277 277 277 278 279 273 271 280 280 278 279 276 277 277 277 277
305 293 301 305 294 289 290 289 294 293 296 294 292 291 290 289 286 286 287 291 290 287 285 285 281 277 278 280 279 280 281 281 276 274 276 276 278 283 281 280 279 278 277 277 278
299 296 305 303 288 290 290 292 294 292 293 293 291 292 292 289 286 289 290 292 289 288 284 284 279 274 279 277 276 276 277 281 279 279 277 274 278 278 277 277 277 276 276 277 278
299 291 296 297 297 291 290 291 291 294 294 293 291 292 290 288 291 287 287 287 287 288 294 290 281 281 281 283 279 275 275 277 280 277 278 278 279 284 280 275 274 275 276 276 277
299 292 294 288 290 293 292 290 289 290 293 294 291 291 290 287 288 287 289 283 283 288 285 285 282 281 285 287 281 282 283 278 277 280 278 281 282 285 287 283 276 277 275 276 276
299 295 293 288 291 292 292 290 289 289 291 291 290 291 292 289 289 286 290 284 286 280 280 281 280 281 280 282 280 279 282 283 282 282 281 281 280 287 288 277 276 275 276 276 276
308 301 299 295 289 289 289 290 290 292 293 295 294 292 290 292 295 295 291 290 291 285 279 279 279 277 279 280 278 275 280 281 282 283 282 277 282 287 283 276 275 275 277 277 276

GFSSW_sfc_thetae_006.txt.gz
Theta_e
324 325 325 325 325 325 326 326 326 326 326 326 327 328 327 326 322 304 299 308 312 329 325 305 302 301 301 300 300 297 291 287 287 288 291 293 291 290 290 290 288 289 289 291 292
322 323 325 325 325 325 326 325 325 325 326 326 326 327 326 324 304 300 316 324 328 328 303 301 299 300 298 297 297 293 289 290 291 290 290 293 292 291 290 287 286 286 288 290 290
320 321 323 324 324 325 325 325 324 325 325 325 325 326 324 317 300 299 324 326 326 322 304 301 300 298 294 295 294 291 288 292 293 294 294 293 290 291 290 287 288 287 287 288 287
318 319 320 323 323 324 325 325 323 324 325 325 324 325 322 307 291 302 325 324 322 309 302 299 298 295 293 292 294 292 293 293 296 296 293 291 291 290 290 291 290 289 289 286 286
318 318 318 321 322 324 325 324 323 324 324 324 324 324 312 301 298 306 319 314 303 303 300 298 296 293 291 291 293 292 292 295 295 295 294 293 291 291 290 288 288 287 287 286 286
319 319 319 320 321 323 324 324 323 323 323 324 324 322 306 296 306 304 302 302 301 301 298 298 295 296 294 293 293 291 293 294 294 294 293 292 289 289 289 285 285 287 285 285 285
318 319 319 320 321 321 322 323 322 321 322 324 325 312 301 300 304 303 304 300 300 299 298 298 298 295 294 291 294 292 290 291 290 292 292 292 289 288 288 286 285 284 284 284 284
317 318 318 319 320 320 321 322 320 321 323 323 324 307 298 305 305 303 301 300 300 300 300 299 298 297 293 294 292 289 288 286 289 291 290 290 286 291 287 285 284 283 282 283 284
316 317 318 319 320 319 320 320 319 321 324 323 308 303 297 310 302 303 299 298 299 299 298 302 298 293 292 289 288 287 285 284 288 291 289 288 287 290 286 285 285 283 283 283 282
315 316 318 319 319 319 319 319 318 318 316 313 305 300 298 298 302 303 298 299 297 298 298 296 292 290 288 288 284 285 283 284 283 287 287 286 288 291 287 284 286 285 283 283 282
315 315 317 318 319 320 313 301 299 295 297 296 295 295 297 302 303 300 298 298 297 294 293 292 290 288 289 289 289 287 283 283 285 287 286 286 288 291 291 285 285 283 282 283 283
315 315 316 317 318 318 302 297 296 296 293 296 296 296 300 300 296 298 298 294 293 290 291 290 288 291 291 289 287 284 283 283 285 286 286 285 285 289 291 288 287 287 284 283 283
313 314 316 317 317 305 298 297 304 300 291 293 296 297 297 301 296 296 297 293 290 289 289 288 290 292 290 286 285 283 282 282 283 284 283 281 282 282 286 288 288 287 287 285 283
314 313 317 316 305 298 297 301 302 299 282 287 292 296 298 297 293 296 295 292 289 289 289 289 290 289 286 286 286 282 285 283 282 280 277 282 279 280 285 286 285 286 284 284 283
314 313 317 312 303 297 300 302 300 292 274 288 292 299 296 293 292 292 293 291 289 290 290 289 286 286 285 287 287 285 283 282 281 279 276 277 275 278 279 282 287 287 286 284 282
314 314 314 306 299 298 300 297 294 284 276 285 293 292 291 291 291 292 291 292 290 289 287 288 287 287 287 285 285 285 282 280 277 276 272 278 277 277 278 282 284 284 283 283 280
314 314 310 305 300 299 299 294 284 277 286 285 289 290 289 289 290 291 288 287 287 284 284 286 285 284 287 284 285 283 282 277 274 271 276 275 273 282 283 284 285 285 282 281 279
315 313 310 306 300 299 294 290 279 282 283 288 289 288 288 289 288 288 286 285 288 286 283 283 283 285 286 286 285 281 282 278 270 270 277 273 275 282 284 284 280 279 279 280 278
314 309 306 307 301 299 289 281 282 285 286 288 288 285 285 287 288 286 285 285 289 289 288 283 283 284 285 284 285 281 279 282 276 264 268 278 279 282 284 282 280 279 280 279 278
310 307 306 307 303 299 283 287 286 290 289 289 284 287 283 286 285 285 285 287 289 290 291 288 284 282 281 282 280 280 282 277 277 271 265 275 277 280 285 283 284 278 278 278 277
308 300 302 304 304 296 288 286 287 292 292 289 286 283 286 286 286 283 285 287 290 288 290 288 287 282 280 280 279 277 278 277 279 276 272 268 280 283 285 286 286 281 280 278 278
306 294 301 306 295 295 289 288 292 289 292 292 290 288 287 288 286 284 285 290 291 289 286 287 285 282 283 278 278 280 280 281 278 275 273 273 280 283 285 286 283 281 280 278 278
301 299 302 303 289 290 288 288 291 288 289 291 290 290 290 288 285 286 288 290 289 289 287 287 283 280 281 279 279 277 280 280 280 277 275 274 280 282 282 281 279 280 279 277 277
300 291 294 296 296 290 289 288 288 291 291 290 288 290 287 286 290 287 285 288 289 290 295 293 285 282 281 282 281 277 279 280 282 278 280 280 283 288 289 290 291 285 278 278 277
301 294 295 287 290 293 291 289 287 287 291 291 289 289 288 286 287 287 288 286 286 290 287 288 284 285 286 287 280 280 281 281 278 281 279 283 283 287 289 290 292 292 286 278 276
301 296 295 293 294 292 292 289 288 288 289 288 288 289 291 288 288 286 289 287 288 282 282 283 283 285 283 285 283 281 285 285 280 281 281 283 283 291 293 294 292 292 286 279 276
309 303 298 293 291 289 289 289 290 292 293 293 292 291 289 290 294 295 292 290 291 288 281 279 280 274 279 281 279 277 282 285 287 287 284 280 285 290 290 290 290 290 282 280 278

GFSSW_sfc_thetae_009.txt.gz
Theta_e
322 323 325 326 326 326 327 327 326 326 326 326 326 327 327 326 323 303 299 308 311 328 326 306 303 304 304 303 303 300 293 290 291 290 294 294 295 294 294 293 293 294 293 294 295
320 321 322 324 325 326 326 326 325 325 326 326 325 326 327 324 303 299 316 326 327 329 304 302 301 303 300 300 299 295 291 293 294 293 294 294 295 294 293 291 292 290 291 292 293
320 320 320 322 323 325 326 325 325 324 325 325 325 325 325 318 301 299 324 326 326 321 305 303 301 300 298 298 297 294 291 295 295 296 296 295 294 293 293 291 294 292 290 291 291
320 320 321 321 322 323 324 325 325 324 324 324 325 324 323 306 293 303 325 324 321 309 303 300 300 297 296 295 297 293 294 295 297 297 295 294 293 292 292 296 294 293 292 291 290
319 319 320 320 321 322 323 324 325 324 323 324 325 324 309 298 300 306 319 314 303 302 300 298 298 296 294 294 295 293 294 296 296 296 295 294 293 293 291 294 292 290 290 290 290
317 318 319 320 321 322 322 323 324 323 322 323 324 322 305 296 305 303 302 302 301 300 298 299 297 297 295 295 293 293 295 295 295 295 295 294 292 292 293 288 288 288 289 289 289
316 316 318 319 320 321 322 322 323 322 322 324 324 311 300 299 305 302 303 299 299 300 299 299 299 296 296 292 295 293 291 292 292 293 293 293 291 290 293 288 288 286 287 287 288
315 315 316 318 320 320 321 321 321 321 322 324 323 305 298 305 304 302 301 299 300 300 300 300 299 298 295 295 293 290 289 288 291 292 292 292 289 293 290 287 288 286 285 286 287
315 315 315 317 319 319 320 320 320 321 323 323 306 301 297 309 301 302 298 299 299 300 299 302 298 294 294 290 289 289 287 286 289 292 291 290 289 292 288 286 288 286 286 286 286
315 314 315 316 317 319 319 320 317 317 315 311 305 299 297 297 302 302 298 299 297 299 298 297 293 291 289 289 284 286 285 286 286 289 289 288 288 293 290 286 288 288 286 285 285
314 314 314 315 317 319 313 300 298 293 296 296 295 294 296 301 302 298 298 298 297 295 291 292 290 288 290 290 289 287 286 286 287 288 287 287 288 292 294 288 288 287 285 285 286
315 314 313 315 318 318 301 297 296 296 292 296 295 296 298 301 296 298 298 295 293 290 291 290 288 291 291 289 288 286 285 285 286 286 286 285 286 290 292 292 294 291 287 286 286
315 314 313 314 317 303 297 297 302 299 291 294 295 295 296 300 296 295 296 292 290 288 289 287 289 291 290 287 286 285 284 284 285 284 284 282 282 283 287 289 290 290 290 288 287
315 314 313 316 305 299 296 299 301 297 282 286 290 296 299 297 292 295 294 292 289 288 288 289 289 290 287 287 287 284 286 285 283 282 279 283 280 282 286 288 289 289 287 288 286
315 314 314 312 302 297 298 300 298 290 273 287 290 298 296 294 292 292 293 291 288 288 289 288 286 285 286 287 288 286 284 283 282 281 278 279 276 282 281 284 288 290 288 287 286
315 314 314 306 299 298 299 295 293 283 275 284 292 291 291 292 291 291 290 292 290 289 286 288 287 288 288 285 285 286 283 282 278 277 273 281 280 280 281 284 287 288 288 287 284
315 314 311 306 300 298 297 293 282 276 284 283 287 289 288 288 289 290 288 286 286 284 283 285 285 285 287 285 285 284 283 278 276 273 277 276 275 284 285 285 288 289 288 285 284
315 314 311 308 302 300 294 289 277 281 282 287 288 287 287 288 287 288 286 284 287 286 283 283 283 284 286 288 286 282 284 279 273 272 279 273 275 284 285 289 286 284 284 282 282
315 309 307 306 301 300 292 282 281 283 286 286 286 284 284 287 287 285 285 284 288 290 287 283 283 283 285 284 285 281 280 283 276 264 271 280 282 284 285 284 283 282 280 281 282
310 306 305 307 304 298 286 285 284 289 287 287 283 286 281 284 284 285 284 286 288 290 291 288 284 283 282 282 280 282 283 278 278 273 268 277 280 283 284 286 286 284 283 283 282
309 301 306 305 306 296 286 283 285 290 290 288 284 282 283 283 285 282 285 286 289 289 291 289 289 283 281 280 280 279 279 278 280 277 273 273 281 283 285 286 286 288 285 283 282
306 295 302 307 295 295 289 287 292 288 289 290 287 286 285 285 284 283 283 288 291 289 287 288 287 284 281 279 279 280 282 283 278 276 274 274 281 286 287 286 286 287 285 283 282
301 300 303 305 289 290 288 288 290 288 288 289 288 288 288 285 283 285 286 289 290 290 287 288 284 280 283 279 279 279 280 282 280 277 279 275 281 288 285 285 286 285 283 283 282
301 292 294 296 298 293 291 289 288 291 291 289 288 289 286 285 288 286 285 288 288 290 294 293 285 285 282 283 281 278 278 281 282 280 281 280 283 288 290 289 289 284 281 283 281
303 294 293 286 290 293 293 290 290 289 289 291 288 289 287 285 286 286 288 286 287 289 288 288 284 285 287 288 282 280 281 281 279 282 280 283 283 287 290 291 292 293 293 288 280
301 294 296 292 293 291 292 290 289 292 290 288 288 291 290 287 288 286 288 287 288 282 284 285 283 284 284 286 282 281 283 285 284 283 282 283 282 290 293 293 292 292 292 291 284
308 306 297 294 291 289 289 290 291 293 294 293 293 290 289 289 293 294 294 292 291 288 285 283 283 281 279 284 282 277 283 285 286 287 286 282 286 290 289 290 290 291 291 291 290

GFSSW_sfc_thetae_012.txt.gz
Theta_e
322 323 323 325 325 326 327 327 327 326 326 327 327 327 327 327 324 311 306 312 316 329 326 311 310 310 312 310 310 308 303 300 299 298 301 301 301 301 300 301 301 303 302 301 305
322 322 323 323 324 325 326 326 326 326 326 326 326 326 327 325 312 307 317 324 329 328 310 309 308 309 309 307 307 306 302 300 303 302 302 302 302 303 300 300 300 300 301 298 301
320 321 321 322 323 324 324 325 326 326 325 325 325 325 325 322 310 309 322 327 328 324 311 309 309 308 306 307 305 303 301 302 302 302 302 302 300 303 301 300 304 303 304 299 300
318 318 320 321 322 323 324 324 325 325 325 324 325 324 323 315 301 310 324 322 322 314 309 307 307 306 305 303 304 301 301 302 303 303 301 301 301 300 301 305 304 306 304 300 299
316 316 317 319 321 322 323 323 324 324 324 324 325 324 317 308 309 312 320 316 311 309 307 306 307 305 304 302 302 301 301 302 303 302 302 299 300 301 300 305 304 300 299 299 299
316 316 316 317 319 321 322 322 323 324 323 323 325 323 311 302 311 310 308 308 308 308 306 306 306 305 303 303 302 301 301 302 302 302 301 299 301 298 303 302 302 298 299 300 300
316 315 315 316 318 319 320 322 323 322 322 323 324 316 308 306 312 310 308 307 307 307 306 306 307 305 305 300 301 300 299 302 301 300 300 300 298 298 305 297 299 297 299 299 299
315 315 315 315 317 318 320 321 321 321 322 323 323 313 306 310 313 307 308 306 307 307 307 307 307 305 302 302 300 298 297 297 299 299 298 299 296 303 305 298 300 300 299 297 298
315 314 315 316 316 317 319 320 320 321 324 323 315 310 304 313 308 309 307 305 306 306 307 306 307 303 302 300 299 298 296 296 297 299 297 298 298 301 300 297 299 302 300 297 297
315 314 314 315 316 317 319 320 318 319 318 312 309 306 306 304 308 307 306 306 304 306 305 305 304 302 300 299 292 296 295 296 295 297 295 296 296 300 302 297 299 302 302 299 296
315 314 314 314 316 318 316 309 305 303 306 305 304 303 302 307 308 305 304 305 305 302 299 301 299 297 300 301 300 297 295 295 299 295 294 295 295 297 301 300 300 300 302 300 297
315 314 314 314 315 317 309 305 304 303 298 303 301 300 303 308 302 304 304 301 300 297 299 298 295 301 298 297 296 295 295 296 298 293 292 294 292 296 298 299 300 301 302 302 298
316 315 314 314 315 310 304 304 308 307 300 300 301 301 302 305 302 302 302 301 299 296 297 296 298 296 296 295 293 294 294 296 293 292 291 289 291 292 295 296 297 299 300 301 298
316 315 315 314 309 308 304 305 308 306 293 293 295 300 303 303 297 299 300 300 297 296 295 296 298 296 295 295 295 293 296 294 291 290 289 290 286 294 295 294 295 300 300 298 297
316 315 315 314 309 305 303 306 306 299 283 294 294 302 301 298 297 296 299 298 296 294 296 295 292 292 293 295 295 294 291 291 289 289 286 290 285 291 288 290 295 299 301 299 298
316 315 314 310 309 306 305 304 302 289 280 290 296 295 296 297 295 295 296 298 298 295 295 295 294 294 296 289 291 290 290 289 286 287 283 290 287 290 290 292 295 298 299 297 296
315 315 312 310 306 305 304 302 289 282 289 289 293 294 294 293 294 293 292 292 292 289 290 293 293 292 292 292 291 290 291 288 287 284 285 286 284 288 293 294 296 299 300 296 296
315 315 312 310 308 306 301 295 282 289 289 292 293 292 292 293 294 292 290 291 293 291 289 289 288 289 293 295 295 289 292 289 283 284 286 282 282 290 294 297 297 294 295 293 293
315 312 309 311 306 305 296 286 287 290 292 290 291 290 290 292 293 291 292 292 295 293 290 288 290 289 289 291 294 288 287 292 289 278 281 288 292 293 292 292 292 292 293 294 294
312 308 307 311 306 301 291 288 291 294 291 293 288 291 288 291 288 290 291 294 294 294 298 294 288 289 286 288 287 288 291 285 287 282 281 286 288 289 291 291 292 291 292 295 294
311 301 308 307 306 297 287 289 292 294 293 291 291 290 290 290 291 290 291 294 295 293 294 293 291 287 287 286 288 284 286 285 285 286 283 282 286 291 291 293 292 294 296 297 296
307 297 306 307 294 294 289 293 293 292 293 293 292 291 291 290 288 290 290 292 297 294 289 294 291 287 290 286 287 290 290 289 285 284 284 285 286 294 294 294 294 295 294 295 295
302 300 304 306 291 289 293 293 294 293 292 292 291 292 292 289 285 290 291 295 295 294 291 291 287 285 287 284 284 285 286 288 290 289 285 283 285 295 295 293 292 293 295 293 293
303 292 294 297 299 294 292 293 291 295 294 291 290 291 289 289 291 288 290 292 294 294 295 295 288 287 284 287 287 285 286 286 287 284 285 285 288 292 294 294 296 297 294 293 295
304 295 293 285 289 293 295 294 292 290 293 294 290 290 290 287 288 287 291 292 289 291 291 291 286 288 290 292 291 289 288 286 284 286 284 287 288 292 294 295 296 297 297 296 296
298 296 294 293 293 291 291 291 292 294 295 291 289 293 291 287 290 290 291 290 289 288 290 289 285 287 285 289 288 286 288 289 288 288 287 287 286 293 294 295 294 295 295 294 294
301 303 298 292 291 289 289 290 291 295 296 297 295 292 291 292 294 295 296 295 293 291 289 286 285 284 281 287 286 281 285 287 288 290 290 285 290 295 294 294 294 295 295 293 294

GFSSW_sfc_thetae_015.txt.gz
Theta_e
323 323 324 324 325 325 326 326 326 327 327 327 326 327 327 327 324 315 310 315 318 327 324 314 313 313 315 313 313 312 303 302 302 301 303 306 304 306 306 306 305 307 307 306 309
320 321 322 323 323 324 325 325 325 326 326 326 325 326 326 326 317 312 321 324 326 327 314 311 310 312 311 310 310 308 304 304 306 306 304 305 305 306 302 303 304 305 307 303 306
318 318 320 321 322 323 324 324 325 325 326 326 325 326 325 323 311 312 325 326 326 323 314 312 312 311 309 310 309 307 303 306 306 306 305 305 304 307 303 303 307 306 307 304 304
317 317 317 318 320 322 323 323 324 325 325 325 325 325 324 318 302 312 325 324 325 318 312 310 310 307 307 306 309 303 307 306 306 305 304 303 306 303 304 306 308 310 311 306 303
316 316 316 316 318 320 321 322 323 324 324 324 324 325 319 310 309 314 319 318 315 312 310 309 309 310 306 307 306 304 306 305 306 305 304 305 303 304 305 309 310 307 305 306 304
316 315 315 316 317 318 320 321 322 323 323 323 324 323 314 303 314 314 311 310 311 311 309 310 309 310 307 305 305 305 304 305 306 305 305 302 303 302 306 309 308 308 304 305 305
316 315 315 315 316 317 318 319 321 322 322 322 324 319 310 306 314 313 311 310 310 310 308 310 311 308 309 305 306 304 300 304 305 304 302 303 299 301 306 305 305 306 305 305 305
315 315 315 315 316 316 317 319 320 321 322 324 324 316 306 313 316 310 311 309 310 310 310 310 310 309 306 306 303 301 302 297 304 303 302 302 297 305 308 305 303 305 306 304 305
315 314 315 316 316 316 317 319 319 321 322 323 317 313 304 312 310 312 311 307 309 309 309 308 310 307 304 301 300 302 296 298 301 303 301 300 298 304 306 304 303 305 306 306 305
314 315 315 315 315 316 317 319 319 318 319 316 312 307 307 305 310 310 309 309 307 308 306 306 306 302 302 300 293 297 296 298 298 301 300 298 297 302 305 304 304 304 304 305 306
316 315 314 315 316 316 316 313 308 307 309 306 307 306 304 309 311 307 307 306 307 305 300 304 299 297 300 302 301 300 297 296 299 302 298 298 298 301 304 304 303 304 304 305 306
316 316 316 316 316 316 314 305 308 306 298 305 305 305 307 310 304 306 307 302 301 298 302 299 295 301 302 301 300 299 296 296 300 302 296 297 296 300 302 302 303 303 303 304 306
316 316 316 316 316 314 308 307 312 311 300 301 305 303 304 306 302 304 304 303 300 298 299 296 299 300 299 299 296 296 295 296 296 300 296 294 293 297 300 301 302 302 303 304 304
317 316 315 315 312 312 307 309 312 309 293 296 297 302 304 305 298 304 305 303 300 297 298 298 301 299 297 295 297 293 299 298 296 294 290 295 287 296 298 299 299 299 301 304 303
316 316 316 313 311 309 307 310 311 305 284 296 296 305 304 299 299 298 301 300 297 297 298 296 298 295 294 296 299 295 295 295 295 293 293 292 289 293 293 293 294 297 302 305 305
316 316 314 312 313 311 310 309 306 291 284 292 297 296 297 298 297 297 298 300 300 297 297 296 297 297 298 293 295 295 293 292 292 291 285 292 291 291 294 294 297 300 301 304 302
316 315 313 314 309 311 309 305 290 284 294 293 294 296 296 296 296 295 293 293 292 289 291 296 295 297 296 293 293 293 292 288 287 286 285 294 290 293 298 297 298 299 301 302 301
316 315 313 314 315 313 307 296 284 291 293 296 295 295 293 297 296 295 294 292 295 295 292 291 289 295 295 296 296 291 293 289 283 284 287 289 286 292 299 300 300 300 300 300 299
316 314 311 312 312 311 298 287 290 294 296 295 295 291 292 295 295 295 294 294 297 295 290 290 290 292 295 294 297 292 287 295 290 288 285 289 293 299 298 297 298 297 297 298 298
314 310 309 313 308 304 292 290 297 299 298 295 290 293 290 293 291 292 294 297 296 299 299 295 288 294 288 291 292 291 293 287 289 283 281 287 290 291 293 294 296 295 296 298 299
312 303 313 311 307 297 285 288 297 301 298 291 291 291 293 292 294 292 292 297 298 298 298 296 292 290 288 287 290 287 287 287 287 289 284 283 287 295 294 296 296 296 297 298 300
308 297 308 308 294 292 287 292 297 298 297 293 292 291 291 293 292 292 292 295 299 298 292 295 292 287 290 295 293 294 292 291 285 284 287 286 286 296 296 297 297 297 298 301 301
303 301 306 307 292 289 292 294 296 297 298 295 291 292 293 289 286 290 293 297 296 296 294 293 287 284 286 290 287 287 290 291 292 290 285 283 286 297 298 298 297 297 298 299 298
303 294 295 297 300 296 290 292 292 299 297 297 291 293 290 288 290 287 290 295 297 293 295 296 289 286 282 287 291 287 288 290 289 285 285 286 288 293 295 296 298 299 300 300 299
300 297 295 287 290 294 295 293 292 291 297 297 293 291 289 287 289 287 290 292 294 292 293 292 284 288 289 290 291 288 289 290 287 287 284 287 289 293 295 296 298 299 298 298 298
292 295 295 295 296 292 292 291 291 294 296 294 292 293 293 289 292 291 293 291 291 291 290 291 284 287 284 288 288 286 288 289 289 290 290 289 288 295 296 297 296 297 297 297 297
298 296 289 288 290 291 292 292 292 295 297 299 298 294 293 292 296 297 298 298 296 290 287 286 285 284 280 287 286 281 286 288 289 292 291 287 292 296 296 296 296 298 298 297 298

GFSSW_sfc_thetae_018.txt.gz
Theta_e
321 322 323 324 324 325 326 326 326 326 327 327 326 327 327 327 325 315 309 318 319 327 322 314 313 312 313 311 311 310 297 296 299 298 298 301 299 301 299 298 300 303 300 300 305
319 319 320 321 322 324 325 325 325 325 326 326 326 326 327 326 317 313 323 329 328 328 315 310 309 310 307 309 308 303 299 300 301 300 298 301 300 300 297 298 299 300 301 302 302
318 318 319 319 320 322 323 323 324 325 325 325 325 325 325 323 312 312 329 329 328 324 315 312 311 310 306 308 306 303 298 303 302 302 301 301 300 302 298 297 300 300 301 300 299
317 317 317 317 319 320 321 322 323 324 324 324 324 325 324 320 300 314 327 325 325 318 312 310 309 306 303 303 307 299 304 304 305 303 301 299 301 300 300 300 303 301 302 300 300
316 316 316 316 318 319 320 320 321 323 323 323 324 324 320 309 308 315 323 322 315 312 309 308 306 306 303 304 304 301 302 304 304 302 301 302 299 299 299 302 305 304 302 300 300
316 316 315 315 317 318 318 319 320 322 322 322 323 323 313 301 313 314 310 311 311 309 307 307 306 306 303 303 301 302 302 302 302 302 302 299 298 299 300 303 303 303 300 300 300
316 315 315 315 316 317 317 318 319 321 321 322 323 321 309 305 313 311 310 309 309 309 306 308 308 305 306 303 304 301 296 299 300 301 299 300 296 297 302 301 301 301 301 300 300
316 314 314 316 316 316 317 318 319 320 322 324 324 317 304 313 312 310 310 308 309 309 309 309 308 306 304 304 301 296 296 291 298 301 299 298 291 299 303 301 299 299 299 300 300
316 315 314 315 316 316 317 317 318 321 323 322 317 313 304 314 309 311 309 307 307 308 308 308 308 303 302 296 293 295 290 292 296 301 297 295 292 299 298 299 297 298 298 299 300
316 315 316 316 316 316 317 318 320 318 319 319 313 306 306 305 309 309 308 309 306 306 304 304 301 297 296 294 287 290 290 293 292 296 296 293 293 298 299 298 297 298 298 299 300
316 316 316 316 316 317 314 312 307 308 309 305 305 304 305 309 311 306 306 305 305 303 295 300 294 291 295 297 297 295 294 292 296 298 295 294 295 297 299 299 297 299 300 300 299
317 317 317 317 317 317 314 305 305 305 296 303 304 306 308 309 304 306 306 299 299 294 297 296 292 298 299 298 295 294 291 292 295 297 294 293 293 296 297 298 300 299 300 301 298
317 316 316 316 317 314 309 307 311 311 298 299 302 302 302 306 301 302 302 300 296 294 295 292 295 300 297 295 294 293 291 291 291 294 292 289 288 292 295 298 299 300 300 300 297
318 317 316 316 312 311 307 309 311 310 290 294 298 302 304 304 297 304 304 301 297 294 295 294 298 297 294 293 294 289 294 294 292 289 285 291 282 290 292 293 294 296 297 296 296
317 316 316 315 309 307 307 309 309 305 280 298 296 305 304 298 298 297 300 298 295 294 294 292 293 292 292 293 295 291 292 290 290 288 286 287 284 287 292 290 293 295 297 297 297
317 316 315 313 312 312 311 308 305 289 279 293 297 296 296 297 297 296 296 298 298 294 294 293 295 294 294 292 293 292 290 289 287 285 280 286 286 284 288 291 292 294 295 296 296
317 316 313 315 309 310 309 304 288 282 294 292 293 295 294 294 294 293 291 289 288 285 286 290 292 293 294 290 290 289 287 280 278 277 280 287 284 289 291 292 293 294 295 295 296
317 316 313 314 315 311 304 295 282 293 292 295 294 295 291 294 294 293 291 288 291 290 287 286 285 291 292 292 290 287 288 281 275 279 283 283 280 286 294 295 294 295 297 295 294
317 314 311 312 311 309 299 284 289 296 298 296 296 290 290 292 293 292 290 290 292 292 287 286 286 290 291 292 293 288 284 289 283 278 277 285 287 291 292 293 293 293 292 292 293
313 311 309 314 311 305 292 290 294 302 301 296 290 291 287 290 289 290 290 293 292 295 296 291 286 290 287 288 288 287 289 282 283 272 272 282 283 286 290 293 291 289 291 291 292
311 305 310 314 309 298 286 288 295 300 301 296 294 290 290 288 290 290 290 294 295 294 296 292 289 286 286 284 286 283 284 284 285 283 277 278 282 288 289 290 291 291 292 292 293
309 297 308 309 295 294 290 294 297 297 301 295 293 293 292 292 290 289 289 291 296 295 290 293 289 284 287 290 290 289 288 288 283 282 281 283 284 292 293 291 292 292 293 293 294
301 302 306 308 292 292 293 294 296 296 296 297 295 295 296 290 287 290 291 296 296 294 290 292 285 280 282 288 287 284 287 289 289 287 283 280 283 293 296 290 290 290 291 293 293
298 293 296 298 301 296 294 291 291 297 296 297 296 296 293 290 292 289 290 294 296 296 296 295 288 284 280 284 288 285 287 287 287 282 283 283 285 291 293 294 295 296 295 293 293
296 293 297 288 290 293 295 294 291 290 296 297 294 294 290 287 290 288 290 291 294 295 293 290 282 286 286 288 288 286 287 287 286 286 282 285 285 289 292 294 295 296 296 294 294
289 290 291 289 291 289 290 289 290 293 294 293 292 295 295 290 291 290 290 291 289 290 291 291 283 285 283 286 286 284 286 287 286 287 287 288 287 293 294 295 295 296 296 296 295
296 296 289 286 287 286 287 289 290 288 290 295 294 293 293 294 296 297 298 298 296 292 289 286 284 283 280 284 284 280 284 286 287 289 288 284 289 294 294 294 295 296 297 296 294

GFSSW_sfc_thetae_021.txt.gz
Theta_e
320 321 321 322 323 324 325 325 325 325 325 325 325 326 326 326 325 314 306 315 317 329 322 311 308 307 306 305 305 303 292 289 293 294 295 298 296 298 298 297 298 301 298 299 302
319 319 320 320 321 322 323 324 324 324 325 325 325 325 326 325 315 309 320 334 331 328 312 306 304 305 300 303 303 298 292 294 297 295 294 297 297 298 295 295 296 297 297 300 300
317 317 318 319 320 321 322 322 322 323 324 324 324 324 325 322 309 307 329 332 331 325 311 308 306 305 300 301 300 298 294 298 299 299 298 297 296 298 296 294 296 298 297 298 296
317 317 317 317 318 320 320 321 321 322 323 323 323 324 323 316 291 310 328 329 328 314 309 305 303 300 298 297 303 296 300 301 302 300 298 296 298 297 297 298 301 300 300 299 297
317 316 316 316 317 318 319 320 320 321 322 322 323 324 316 304 304 315 324 323 314 311 305 304 301 300 297 299 300 297 298 301 301 300 299 299 298 296 297 299 300 301 299 298 298
317 316 316 316 316 317 318 318 319 320 320 321 323 323 306 297 309 313 309 310 309 306 303 303 302 302 299 299 297 298 299 299 299 299 299 298 295 297 298 300 300 300 298 297 298
317 316 316 316 316 316 317 318 318 319 320 321 323 319 306 300 309 308 307 306 305 305 303 304 304 300 300 298 300 298 295 296 297 298 297 297 294 295 301 298 298 298 298 297 298
317 316 315 316 316 316 317 318 319 319 320 322 324 314 298 310 305 306 306 304 305 305 305 305 304 302 300 300 297 293 291 289 294 296 297 297 291 297 299 297 297 297 296 297 298
317 316 316 316 316 317 317 318 318 319 321 323 313 307 299 313 306 307 306 304 304 305 304 306 304 299 298 292 289 289 286 288 292 297 295 294 291 296 298 296 296 295 297 297 297
317 316 316 317 317 317 318 318 318 317 317 318 314 300 302 301 307 305 304 306 302 303 301 300 297 293 292 289 284 285 286 289 289 293 292 291 292 296 296 295 295 295 294 296 298
318 317 317 317 318 318 315 307 299 299 303 298 299 299 302 305 307 303 303 303 303 299 292 296 290 288 292 293 292 289 288 286 292 295 293 293 294 295 297 295 294 297 298 297 299
318 317 317 317 318 318 310 302 301 301 292 300 300 302 305 305 300 303 304 297 297 292 294 292 289 294 295 294 293 291 289 288 292 294 292 291 291 296 295 297 298 297 297 298 299
318 317 317 317 317 311 304 301 307 305 294 297 299 297 298 304 299 300 300 296 293 291 292 290 292 297 295 293 291 291 288 289 289 291 290 288 287 290 294 296 297 299 299 300 299
318 317 316 316 310 307 302 305 306 304 284 290 294 299 301 300 294 301 301 297 293 291 291 290 295 294 291 291 293 289 292 291 289 286 284 288 283 287 291 292 294 297 297 298 296
318 317 316 315 305 304 305 305 303 299 275 292 294 303 301 294 294 295 297 295 291 290 290 290 289 290 290 292 292 291 292 290 287 285 283 285 283 285 291 289 292 295 297 297 296
317 317 316 312 307 308 308 305 300 284 276 289 294 293 293 294 294 294 294 295 294 291 291 290 292 292 292 290 292 291 288 287 285 283 280 284 284 284 286 290 291 295 297 297 296
318 317 314 314 307 308 307 302 289 281 290 289 289 293 291 291 291 290 289 287 286 282 282 287 289 292 293 289 289 288 285 278 276 275 279 285 282 288 290 291 293 294 295 296 294
317 317 313 314 311 308 305 295 285 291 289 293 291 291 289 291 291 290 287 285 287 286 284 282 283 288 291 291 287 286 288 279 273 276 281 281 279 285 293 295 294 295 295 293 293
315 314 311 313 313 310 300 287 292 294 296 295 296 288 287 290 289 288 286 285 288 289 285 283 284 288 289 289 291 285 283 289 282 270 274 284 285 289 290 291 291 292 289 291 292
311 310 309 313 312 305 294 292 295 299 298 295 291 293 287 287 288 289 287 289 290 292 294 289 284 288 287 287 287 287 288 281 281 274 271 282 282 285 289 291 293 290 290 290 291
308 304 308 312 310 299 288 290 294 299 299 296 295 291 290 290 288 287 288 290 291 292 294 290 288 287 285 284 285 283 284 285 284 282 280 278 283 286 288 289 291 291 290 289 290
304 295 309 311 296 295 292 294 297 297 297 297 292 294 294 295 293 293 292 293 295 294 290 291 287 283 285 288 288 288 288 288 282 281 281 282 283 295 293 290 291 291 291 291 291
298 299 307 307 291 293 293 294 296 296 296 296 294 295 296 291 289 292 292 298 300 297 291 292 285 281 282 287 285 284 286 287 287 284 282 279 281 295 294 291 289 289 290 290 291
294 289 297 298 300 295 293 292 292 297 296 297 296 297 294 292 295 291 291 294 294 294 297 295 286 284 281 285 288 284 285 285 286 282 282 282 284 289 292 293 295 296 297 298 294
291 287 292 286 291 293 294 293 290 289 296 297 293 293 292 289 291 290 292 293 294 295 294 293 284 286 287 288 289 287 287 288 285 286 283 285 285 288 291 292 294 295 296 293 294
287 285 290 285 289 289 289 289 289 290 291 290 289 288 287 286 289 288 290 291 290 288 291 291 285 288 285 287 286 285 287 287 287 287 287 287 287 294 296 297 296 297 297 294 295
290 292 289 284 282 281 282 285 287 288 289 290 287 285 284 286 290 290 289 288 288 288 289 289 286 285 281 286 284 280 285 287 287 289 289 284 289 293 293 294 295 296 296 296 296

GFSSW_sfc_thetae_024.txt.gz
Theta_e
320 320 321 321 322 323 323 324 324 324 324 325 325 325 325 326 325 311 304 311 316 330 321 309 307 306 304 303 304 300 290 287 290 292 293 295 294 296 296 296 296 300 296 298 300
318 318 319 320 320 321 322 323 322 323 323 324 324 324 324 325 313 307 318 332 333 331 309 305 302 303 299 301 301 297 289 290 295 295 293 295 295 295 294 294 295 297 296 298 299
318 318 318 318 319 320 321 321 321 321 322 323 323 324 324 321 305 305 329 335 332 327 309 306 304 303 298 299 299 297 293 296 298 298 297 296 294 297 295 293 296 297 297 297 296
317 317 317 317 317 319 320 320 320 321 321 322 322 323 323 314 290 306 330 331 331 313 307 304 301 298 296 296 300 294 298 298 300 299 297 295 296 295 295 300 299 299 298 296 296
318 317 316 316 316 318 319 319 320 320 320 321 322 323 314 301 302 314 327 326 315 309 304 302 300 299 296 296 298 296 297 299 300 299 297 297 297 295 295 298 299 299 297 297 297
318 317 317 316 316 317 318 318 319 320 320 320 321 323 303 293 306 314 310 310 307 305 302 302 300 301 298 297 296 296 297 298 298 298 297 296 295 296 300 297 298 298 296 296 298
318 317 317 317 316 317 317 318 318 319 319 320 322 318 305 298 307 309 307 305 305 304 300 301 301 299 297 296 299 297 294 295 297 297 296 296 293 293 301 296 297 297 296 296 297
318 317 317 317 317 318 319 319 319 319 319 320 323 312 296 307 305 305 304 303 304 304 303 304 303 300 297 299 296 292 291 288 293 294 295 295 290 297 298 296 297 296 296 295 297
318 317 317 317 317 318 318 319 319 319 320 322 311 303 297 311 303 305 304 302 303 303 303 306 301 296 296 291 287 286 284 285 291 295 294 292 290 297 296 295 295 296 294 297 297
318 317 317 317 318 318 319 319 317 316 316 317 313 299 300 300 305 304 302 304 301 301 299 298 295 291 291 287 282 283 283 286 287 291 291 290 291 296 296 294 293 294 294 294 297
319 318 318 318 318 319 315 305 297 296 302 297 297 297 300 304 305 302 303 302 302 297 290 293 288 286 291 291 292 286 285 285 289 292 290 290 292 295 298 295 293 294 297 297 294
319 319 318 318 318 319 307 301 299 299 291 299 298 300 303 304 298 301 303 296 295 291 292 289 286 292 292 291 290 289 288 288 291 293 289 290 291 294 295 297 298 297 297 297 299
319 318 318 318 318 310 303 300 305 304 292 295 297 295 296 302 297 298 300 295 292 290 290 289 290 295 292 290 289 288 287 288 288 289 288 287 288 289 292 296 298 298 299 299 299
319 318 318 317 309 305 301 304 305 302 283 288 293 295 299 299 292 299 298 296 291 290 289 288 294 292 290 289 290 287 291 291 289 284 283 286 282 286 289 291 293 295 297 298 299
318 318 318 316 305 304 305 304 302 295 280 292 293 301 299 293 292 293 295 294 289 289 289 288 288 288 288 291 291 290 290 288 286 283 282 283 281 285 289 289 291 295 295 297 299
318 318 317 312 307 309 307 303 298 286 282 288 292 291 291 293 292 293 293 294 293 289 289 289 291 291 290 290 290 290 287 286 283 282 280 284 283 283 285 289 291 294 296 297 298
316 317 314 315 308 308 307 301 293 285 291 288 288 291 289 289 290 290 288 287 286 282 282 285 287 289 291 287 288 288 284 278 276 275 278 284 281 288 288 290 292 293 294 296 297
314 316 313 316 311 309 307 299 287 292 289 293 290 289 288 290 290 289 286 284 287 284 282 281 282 287 289 290 286 286 286 279 271 276 281 280 279 285 291 293 293 293 295 295 292
313 315 312 313 311 310 301 291 291 296 296 293 295 288 286 288 288 287 284 284 287 288 284 281 283 287 289 289 290 284 282 289 279 268 272 281 285 290 288 290 291 292 292 289 290
307 309 309 313 312 307 296 293 295 299 299 298 292 293 285 286 287 288 288 287 288 289 292 288 283 288 285 286 286 286 288 280 280 272 270 279 280 284 289 291 291 290 290 290 290
305 300 306 313 310 299 290 292 295 300 300 296 294 293 292 291 290 290 290 290 290 291 292 290 287 286 284 284 286 282 282 283 283 282 279 278 282 293 291 289 288 290 290 290 290
302 292 308 311 296 296 293 295 298 297 299 298 296 296 293 294 293 293 293 295 293 292 289 291 288 284 286 290 286 286 286 287 282 281 283 283 283 295 295 295 294 295 291 290 290
296 298 308 307 290 292 294 294 297 295 296 295 294 295 296 293 289 292 293 298 299 296 292 292 287 282 283 286 289 287 289 287 288 286 282 280 282 295 295 294 294 289 291 293 292
292 287 296 299 299 293 291 292 291 296 295 296 295 296 293 290 293 290 291 295 295 295 298 297 290 286 282 286 288 283 286 288 286 282 282 282 284 289 292 293 295 295 296 296 295
289 286 291 287 291 292 293 292 289 289 294 295 293 293 290 287 287 287 288 286 289 295 293 293 286 287 288 289 289 289 288 288 286 286 282 285 285 289 291 293 295 296 296 294 294
285 284 287 286 287 287 289 288 289 290 291 290 289 284 286 282 284 282 285 284 283 287 285 286 282 285 284 287 286 284 287 287 287 288 288 288 287 294 295 296 296 297 297 297 297
287 291 288 282 282 280 280 283 284 284 287 290 284 281 281 282 284 284 285 284 284 283 281 282 282 280 276 284 284 280 285 286 287 289 288 284 290 294 293 294 294 295 293 290 289

GFSSW_sfc_thetae_027.txt.gz
Theta_e
319 320 320 321 321 322 323 323 323 323 323 324 324 324 324 325 324 310 303 310 314 330 318 307 306 304 302 301 302 297 289 286 289 290 293 294 293 295 295 294 295 299 296 297 298
319 319 319 320 320 321 321 322 322 322 322 323 323 324 324 324 311 305 317 328 332 330 307 304 301 302 298 299 300 295 287 289 292 294 292 294 294 294 297 292 294 296 295 297 298
318 318 318 318 319 319 320 321 321 321 321 322 322 323 323 320 302 300 327 333 334 324 308 305 302 301 296 297 298 296 292 294 296 298 296 295 293 296 293 293 295 296 297 296 295
317 318 318 318 318 318 319 320 320 320 321 321 321 322 323 311 290 302 331 334 332 311 306 303 300 297 295 295 298 293 297 296 298 299 296 294 295 294 294 299 298 298 296 296 295
318 318 318 317 317 318 319 319 319 319 320 320 321 322 312 298 299 312 328 328 313 307 303 300 298 297 294 294 295 294 296 298 298 298 297 296 296 295 295 298 298 297 296 296 296
318 318 318 318 318 318 319 319 319 319 319 320 320 322 302 292 303 314 313 310 306 304 301 300 298 299 296 296 295 294 296 296 297 297 297 296 295 294 300 297 297 296 296 295 296
319 318 318 318 318 318 319 319 319 319 319 320 320 318 302 297 305 310 307 305 304 303 299 300 300 297 296 294 297 296 293 293 294 296 295 295 293 292 299 295 297 296 296 295 296
319 318 318 318 318 319 319 320 320 320 320 320 321 310 294 305 304 304 303 301 302 303 302 302 302 298 296 296 294 290 289 286 291 293 293 294 289 295 296 295 296 296 294 294 296
318 318 318 318 318 318 319 320 320 319 319 322 310 301 295 309 302 304 302 301 302 302 301 305 300 295 293 288 286 284 282 284 288 294 293 291 289 294 295 293 294 294 295 295 295
319 318 318 318 318 319 319 319 318 315 317 317 312 296 298 298 303 302 301 302 299 299 297 297 294 290 289 286 282 282 282 284 284 289 289 288 289 294 296 293 294 294 294 295 296
319 319 319 319 319 320 315 303 296 294 301 297 298 296 297 302 303 300 302 301 299 295 289 292 288 286 290 290 291 284 283 284 288 291 288 289 291 293 296 295 292 294 296 298 298
319 319 319 319 319 319 305 300 298 298 291 296 297 298 301 302 297 299 302 296 295 290 290 288 285 291 290 289 288 287 286 286 290 292 287 289 289 292 294 295 297 298 298 297 299
319 319 318 318 318 309 301 299 304 302 290 293 296 295 296 301 296 297 299 295 292 289 289 288 290 293 290 287 287 285 284 287 286 288 287 285 287 289 292 294 297 298 299 299 298
319 319 318 318 310 305 301 303 304 299 285 289 291 294 297 297 292 297 297 295 290 289 289 288 291 291 288 287 288 286 289 289 287 284 282 285 280 285 288 289 291 294 296 296 297
319 319 319 317 307 305 304 303 302 294 282 293 291 299 297 291 292 292 295 293 289 288 288 286 287 286 287 289 290 287 288 287 284 282 281 281 279 284 287 286 290 294 295 296 297
317 318 318 313 309 309 308 304 300 288 283 291 291 290 290 291 292 292 292 293 291 288 288 288 289 289 289 289 290 289 285 284 282 281 278 283 282 284 284 287 289 291 293 295 296
314 315 315 315 309 309 309 304 293 285 294 289 287 289 287 287 288 288 288 287 285 281 281 283 286 288 290 286 286 286 283 277 275 274 279 281 280 287 288 289 291 292 294 294 293
311 314 314 316 312 311 309 299 286 293 293 293 290 288 287 289 289 288 284 283 286 283 281 280 283 286 288 288 286 285 285 278 271 277 282 280 279 288 290 291 291 290 291 292 292
311 313 312 314 311 311 303 291 290 295 297 296 296 292 287 288 289 286 283 283 286 287 284 280 282 285 287 287 289 282 281 286 280 268 272 282 284 291 290 289 288 290 289 290 290
302 306 307 314 312 308 297 293 295 299 299 298 292 294 286 287 286 287 286 286 287 288 290 286 282 286 285 287 286 285 285 280 278 271 270 278 279 283 288 290 291 290 291 290 290
301 297 304 312 311 300 291 291 295 300 300 296 295 293 291 292 291 290 289 290 289 288 291 289 286 286 287 283 284 281 282 283 283 282 279 277 281 292 292 292 289 288 289 290 290
297 289 307 311 297 296 292 294 297 296 299 298 297 296 294 295 293 292 292 295 295 293 291 291 287 283 286 289 286 285 285 285 281 280 282 282 283 295 295 296 295 295 296 295 292
294 293 308 306 289 291 294 294 296 295 295 295 294 295 295 292 288 291 292 296 297 296 292 291 287 282 284 286 286 285 288 288 288 286 281 278 281 294 295 295 296 296 293 291 291
291 285 293 299 299 293 291 291 291 296 296 297 295 295 291 289 292 289 290 292 291 290 294 295 289 286 280 284 287 283 285 287 287 282 282 283 285 289 291 292 294 295 297 293 293
288 284 288 286 287 291 292 290 288 287 293 294 291 292 290 285 287 287 286 286 289 291 289 287 281 284 284 284 284 283 284 285 284 286 283 285 285 289 292 293 294 295 294 289 287
284 283 287 285 286 284 288 288 287 289 290 288 288 286 286 283 284 280 279 281 280 284 282 284 277 280 277 281 282 281 284 285 286 286 285 285 284 291 285 286 286 288 285 285 286
286 289 287 282 281 280 280 283 282 283 286 288 282 281 280 282 283 283 283 282 281 279 278 277 275 271 271 277 276 271 277 279 282 284 282 279 279 281 280 280 283 282 282 282 283

GFSSW_sfc_thetae_030.txt.gz
Theta_e
320 320 321 321 321 322 322 323 323 323 323 323 324 324 324 324 323 310 301 310 313 330 318 306 305 302 301 300 300 295 289 285 288 288 291 293 292 294 295 296 295 298 296 297 298
319 319 319 320 320 320 321 321 321 322 322 322 323 323 323 323 309 303 315 328 332 327 305 303 301 300 297 297 298 295 287 288 291 291 292 293 293 296 296 295 293 295 297 296 298
318 319 319 319 319 320 320 320 320 320 321 321 322 322 323 319 298 298 327 328 334 322 306 303 302 300 295 297 297 294 291 292 294 294 295 294 293 294 292 293 295 296 297 296 296
319 319 319 319 319 320 320 320 320 320 320 320 321 322 322 309 290 299 331 332 332 308 304 301 299 296 294 294 297 293 296 295 297 297 295 293 295 293 294 300 299 298 297 295 295
319 319 319 319 319 319 320 320 320 320 320 320 320 322 310 295 298 314 329 328 310 305 302 300 297 296 293 293 294 293 295 297 297 297 296 296 296 295 293 298 297 296 296 296 295
319 319 319 319 319 319 320 320 321 321 320 320 320 321 300 291 302 316 315 308 306 303 300 299 298 298 294 294 294 293 294 295 295 296 296 295 297 294 297 296 297 296 295 295 295
319 319 318 319 319 319 320 320 320 321 320 320 320 316 299 297 305 310 308 304 304 303 299 299 300 297 295 292 295 294 292 292 292 293 293 294 292 291 299 294 296 295 294 295 294
319 318 318 319 319 320 320 321 321 321 320 320 319 308 293 302 304 304 303 300 301 301 300 301 300 298 295 294 292 287 288 285 289 292 292 293 287 295 295 293 294 294 293 293 295
319 318 318 319 319 319 320 320 319 321 319 320 309 299 293 308 301 302 301 300 300 300 300 303 299 294 292 287 285 283 281 283 286 292 291 290 287 293 294 291 293 294 294 295 296
319 318 319 319 319 320 320 318 317 315 317 317 310 295 297 297 301 301 300 301 299 298 297 296 293 289 287 286 281 282 280 283 283 288 287 287 288 292 296 292 295 296 296 295 296
319 319 319 319 320 320 314 301 295 293 299 295 296 294 296 300 302 299 301 300 298 294 289 291 287 285 289 288 287 283 282 281 286 290 286 288 289 291 294 294 295 295 296 296 298
320 320 319 319 320 319 303 298 297 296 291 297 297 299 301 301 296 297 301 295 293 289 289 287 284 290 289 288 288 286 285 285 288 291 286 287 287 291 293 294 295 296 297 297 297
320 319 319 319 318 309 301 298 303 301 290 294 296 294 295 300 295 296 298 294 291 288 287 287 288 291 289 287 286 284 283 285 284 286 286 284 284 286 290 292 295 296 297 298 297
320 319 319 318 311 304 301 302 304 297 289 291 291 294 296 296 290 296 296 294 289 288 287 286 290 289 286 286 287 285 288 287 286 282 279 285 279 283 291 291 290 293 294 293 293
318 319 319 318 307 308 305 303 302 295 284 293 290 298 296 290 290 291 294 292 287 287 287 286 286 285 285 288 288 286 287 286 283 281 279 279 278 283 285 285 289 291 292 292 294
314 316 318 314 310 309 307 304 300 292 285 291 290 289 289 290 290 291 291 293 290 287 286 287 288 288 288 288 289 288 285 284 281 280 277 282 281 282 283 287 287 289 292 293 293
311 313 315 315 310 309 310 307 293 286 297 290 287 288 287 286 288 288 287 286 285 281 280 282 285 287 289 285 285 285 282 277 275 274 278 280 279 286 287 290 290 293 293 291 291
309 311 314 315 312 312 310 301 285 292 294 294 291 289 288 288 289 288 285 283 285 283 280 280 283 285 287 288 285 283 283 277 271 273 281 279 280 286 289 291 291 289 289 290 291
308 309 310 313 312 311 304 291 290 294 297 295 296 292 289 288 290 289 285 284 286 288 285 280 281 285 286 286 288 282 281 285 279 271 272 282 285 291 290 289 287 289 288 290 289
299 302 304 313 312 308 297 293 294 299 298 298 292 295 289 288 287 286 286 287 286 289 290 286 281 285 284 286 285 285 285 279 278 274 270 279 279 284 288 289 290 289 289 289 290
299 295 301 312 311 301 289 292 295 300 300 296 294 293 292 291 291 290 291 292 288 288 289 288 287 286 286 282 283 281 282 282 282 282 278 277 281 292 289 289 288 292 294 291 292
296 286 305 312 294 295 290 293 296 296 299 297 297 296 294 294 292 291 291 294 297 295 292 290 288 283 285 291 288 288 288 288 282 279 280 282 281 294 294 293 292 293 295 295 290
291 291 306 306 287 289 293 292 294 292 293 294 292 294 294 291 287 291 292 295 294 294 291 292 287 281 283 284 286 283 287 287 287 286 281 278 281 292 293 294 295 291 285 288 288
290 282 288 299 296 291 289 289 289 295 295 295 293 295 291 290 292 289 289 292 290 291 294 293 287 284 279 282 284 282 283 284 282 277 279 279 283 288 289 286 282 284 284 284 284
286 283 286 285 286 288 290 289 287 286 292 293 290 290 288 286 287 286 285 284 287 288 288 286 278 281 281 281 281 280 279 280 279 280 277 280 281 282 279 279 282 282 282 281 282
282 283 286 281 283 282 284 284 284 286 289 286 287 287 286 285 283 281 279 281 280 282 281 282 275 277 274 278 278 275 277 278 279 279 280 282 280 279 280 280 281 281 280 280 281
284 287 286 280 280 279 279 281 280 282 283 284 282 281 280 282 282 282 283 283 281 278 277 276 273 266 269 276 273 268 272 275 276 277 276 274 275 278 277 278 279 280 281 279 280

GFSSW_sfc_thetae_033.txt.gz
Theta_e
320 320 321 321 321 321 322 322 322 322 322 323 323 323 323 324 323 310 301 309 313 331 318 307 306 304 304 303 302 299 292 288 291 290 293 296 296 298 299 299 299 300 301 302 302
319 320 320 320 320 321 321 321 321 321 321 322 322 322 323 323 310 303 315 324 333 326 305 303 302 302 299 300 301 297 290 291 293 293 294 296 296 298 297 297 297 299 300 300 302
319 319 320 320 320 321 321 321 321 321 321 321 321 322 322 319 298 297 327 327 333 320 305 303 302 301 298 299 299 296 293 294 295 294 296 296 295 298 296 296 298 298 301 299 299
319 319 319 320 320 320 321 321 321 321 321 320 320 321 322 309 291 297 330 331 331 307 304 302 300 298 296 295 298 294 296 296 298 297 296 295 297 296 296 302 302 300 302 299 298
320 319 319 319 320 320 321 321 321 321 321 320 320 321 308 294 297 316 330 331 308 305 302 300 298 297 294 294 295 294 295 297 298 297 297 296 296 296 295 299 301 298 297 298 298
320 319 319 319 320 320 321 321 322 322 321 321 320 320 297 291 303 319 317 310 306 303 300 300 299 299 295 294 295 294 295 295 296 296 296 296 297 296 297 299 298 297 298 297 297
320 319 319 319 320 320 321 321 322 322 321 321 320 315 296 295 306 312 308 305 304 302 299 300 300 298 296 294 296 294 292 292 292 294 294 295 293 291 299 296 297 297 297 296 297
320 319 319 319 320 320 321 322 321 320 320 320 320 307 292 302 305 305 302 300 302 301 300 301 300 298 296 296 293 289 289 286 290 292 292 294 288 295 295 294 295 295 295 295 297
319 318 319 319 319 320 321 321 319 322 320 320 307 296 292 308 300 302 300 299 300 300 301 302 300 295 293 289 286 285 283 283 287 292 291 292 288 294 294 293 294 295 297 298 299
319 318 319 319 320 320 320 316 316 315 317 317 308 293 296 296 301 300 300 301 298 298 297 296 292 289 287 286 282 283 281 283 284 290 288 288 289 293 294 293 294 296 297 298 299
319 319 319 320 320 321 310 299 298 297 298 294 294 293 295 298 301 298 300 300 297 294 289 291 287 285 289 288 287 284 283 282 285 290 287 289 289 291 294 293 294 296 296 296 297
320 320 320 320 320 318 303 297 295 297 292 298 297 298 299 300 295 296 300 295 293 289 289 287 284 289 289 288 287 286 285 284 288 290 286 286 287 292 293 294 295 296 296 295 296
320 320 320 319 319 310 300 298 303 300 291 295 295 294 295 299 294 295 298 293 290 287 287 287 288 291 289 286 286 284 283 285 284 286 286 285 285 287 291 292 293 295 296 296 296
320 319 320 320 312 304 300 301 304 298 289 292 291 293 295 295 290 295 296 293 289 288 287 286 289 289 285 285 287 284 287 287 285 283 280 285 279 287 293 292 293 292 292 293 293
316 318 319 319 311 309 304 303 303 296 284 292 289 297 295 290 290 291 293 291 287 286 287 286 285 285 285 287 287 286 287 285 284 282 281 281 279 283 286 289 290 292 294 294 295
313 314 317 314 311 308 307 306 302 293 286 292 289 289 289 289 289 291 291 292 290 287 285 286 287 288 288 287 288 287 285 284 282 281 276 282 281 282 285 287 289 291 293 292 293
310 311 315 315 310 309 310 309 294 287 298 291 287 290 287 286 287 288 287 285 285 281 280 283 285 287 289 285 286 286 283 278 277 275 279 281 279 286 288 292 290 291 292 292 292
308 311 314 315 311 312 310 301 286 292 294 297 296 293 288 289 289 288 285 283 287 286 283 280 283 285 288 289 287 285 285 281 274 274 282 279 279 285 290 291 290 290 290 291 294
307 308 306 312 312 312 304 291 289 291 296 295 295 290 289 290 292 291 287 286 289 289 288 285 282 284 286 287 289 284 282 286 281 271 274 283 287 290 289 289 290 289 290 291 291
298 298 300 310 313 308 297 291 294 299 298 298 292 294 289 290 288 289 288 287 287 288 290 288 283 288 286 285 285 286 287 281 280 275 275 281 282 284 288 290 289 290 286 287 288
298 292 299 312 311 300 288 287 293 299 299 295 294 292 292 290 292 290 291 291 288 287 290 292 286 285 287 285 286 287 283 283 283 282 278 277 281 288 288 286 285 287 288 286 286
296 284 302 311 295 293 290 291 295 294 297 296 296 294 292 292 291 290 290 293 298 296 292 293 288 284 286 289 289 288 287 287 282 280 282 282 281 293 290 287 285 284 284 284 284
291 288 302 306 286 288 291 290 292 291 291 292 292 293 292 289 286 289 290 293 294 293 292 292 286 281 280 283 287 285 287 286 284 284 280 278 281 289 289 288 283 281 282 282 283
289 281 287 298 294 290 287 287 287 292 292 293 292 292 289 289 290 288 289 291 290 291 295 293 287 284 279 282 282 281 281 281 280 276 277 277 279 283 284 281 282 281 282 282 281
283 281 285 278 284 288 289 286 284 284 289 289 288 289 286 284 283 284 285 284 286 286 285 286 281 281 284 281 280 279 278 279 277 278 274 277 277 281 279 278 279 280 281 282 280
281 282 285 281 284 284 284 282 283 284 285 284 285 283 286 285 284 282 280 281 279 281 280 282 276 277 271 278 279 276 276 276 276 276 275 276 276 279 280 279 278 278 278 281 279
283 285 285 279 280 278 279 281 280 282 281 283 281 279 279 282 283 283 283 282 281 279 276 277 275 268 270 276 271 266 272 275 275 274 274 272 275 277 276 277 278 277 278 280 279

GFSSW_sfc_thetae_036.txt.gz
Theta_e
321 321 321 321 322 322 322 322 322 322 322 322 323 323 323 324 323 317 306 313 316 331 321 313 313 311 312 310 309 307 302 298 299 298 301 304 303 305 306 306 306 308 309 311 310
320 320 321 321 321 321 322 322 322 321 321 321 322 322 323 323 315 309 321 325 331 326 312 310 308 309 308 307 309 306 301 300 303 303 302 304 303 305 304 305 306 306 310 309 309
320 320 320 320 321 321 322 322 322 322 322 321 321 322 322 322 306 305 325 328 334 322 313 310 310 308 305 307 307 305 300 304 302 303 303 302 303 305 304 302 306 306 309 311 308
320 320 320 320 320 321 322 322 322 322 322 321 321 321 322 315 298 305 330 331 331 314 311 309 308 305 303 302 305 301 304 304 304 303 303 302 304 303 304 305 309 310 311 310 308
320 320 320 320 320 321 322 322 323 323 322 322 321 321 315 303 305 322 329 331 315 311 309 308 305 305 301 302 302 301 303 304 305 304 303 304 303 303 304 307 309 309 307 307 308
320 320 320 319 320 321 322 322 323 323 322 322 321 320 306 297 311 325 326 315 312 310 308 308 306 307 302 301 301 301 301 302 302 302 303 300 302 301 303 307 306 306 306 308 307
320 320 319 319 321 321 322 322 322 322 321 321 321 317 303 304 313 320 316 314 311 311 307 307 307 305 304 300 302 301 298 300 301 300 300 301 298 298 304 305 303 305 306 307 307
320 319 319 319 320 321 322 322 322 321 321 320 321 315 301 307 314 313 310 307 309 308 307 308 308 305 303 303 300 297 296 293 299 297 299 300 294 301 304 301 302 304 305 306 307
319 319 319 320 320 320 321 321 319 322 321 321 314 304 300 311 305 308 308 305 307 306 307 306 307 302 301 297 295 296 292 293 294 298 297 298 295 301 302 301 301 303 304 304 305
319 319 319 320 320 321 321 316 317 318 319 318 311 300 303 300 305 304 306 306 304 305 303 303 302 298 297 295 289 293 291 292 291 298 296 294 294 298 301 300 300 302 303 304 304
320 320 320 320 321 322 314 309 309 306 305 301 301 299 300 304 306 303 304 304 303 301 296 299 295 292 296 297 297 294 292 292 295 298 294 294 295 297 299 300 300 301 302 303 304
320 321 321 320 321 319 310 306 303 303 300 304 303 302 303 305 300 301 305 300 299 295 296 294 292 297 298 295 293 293 291 292 295 296 293 294 293 296 299 299 300 301 303 303 303
321 320 320 321 320 316 308 304 308 306 300 303 301 299 300 303 300 301 302 299 297 293 294 294 297 296 294 293 291 293 290 292 292 294 294 292 293 295 299 299 300 302 302 302 301
319 319 320 320 316 314 308 307 309 305 299 299 297 298 299 300 296 300 301 299 296 294 294 294 296 293 291 291 293 290 296 293 291 289 287 293 286 295 299 299 299 301 300 300 301
316 318 319 320 316 314 308 308 308 303 288 296 294 303 300 296 296 297 300 299 294 294 294 294 291 291 291 292 293 291 293 291 290 289 288 290 286 294 294 295 296 298 299 300 300
312 315 317 317 317 311 310 309 304 296 287 296 295 294 295 295 294 297 297 299 297 293 293 293 294 294 294 293 293 293 292 291 289 288 284 291 288 291 293 294 297 297 297 297 297
310 312 316 317 313 312 314 313 295 288 299 294 293 293 293 292 292 293 293 293 292 290 290 293 293 294 293 291 292 291 289 285 286 284 285 288 286 290 296 296 294 294 293 294 294
307 310 315 317 313 313 312 302 287 293 296 301 299 298 296 294 294 292 291 295 291 293 291 289 288 290 293 293 294 289 290 286 280 283 287 289 285 291 297 295 294 294 294 294 293
307 313 311 315 314 314 307 292 291 294 298 297 296 294 295 294 293 295 294 296 296 293 291 289 289 293 291 293 294 289 287 294 286 287 282 287 292 295 294 293 293 293 293 291 291
303 304 305 313 315 310 299 292 295 300 301 299 292 296 291 294 291 292 294 295 292 293 294 293 287 295 294 291 291 290 292 284 285 278 278 284 287 288 290 292 292 291 289 289 289
301 295 302 314 313 301 290 291 294 300 301 296 294 293 294 292 293 291 292 295 294 292 293 293 289 290 292 289 289 287 286 287 287 285 280 279 285 292 290 288 288 288 287 287 287
299 289 305 312 295 296 290 292 295 295 298 298 298 296 293 293 291 290 290 294 298 297 293 296 289 284 288 295 296 294 291 291 284 282 284 283 283 295 290 287 287 285 285 286 286
294 294 304 307 288 291 293 293 295 293 293 293 293 295 295 291 287 291 292 294 295 295 292 294 288 283 284 287 291 288 288 288 286 284 281 279 282 295 293 290 285 284 284 284 284
292 286 293 299 298 291 290 289 289 294 294 294 292 295 292 289 291 288 289 292 292 290 293 294 287 285 280 284 287 283 286 285 282 278 280 280 281 285 287 284 282 281 282 283 284
290 286 290 287 290 291 291 288 287 287 292 294 291 291 289 285 286 286 288 288 288 287 287 289 282 285 285 286 283 282 281 281 279 280 276 278 279 283 282 281 281 282 281 281 283
286 286 288 286 286 287 289 287 285 287 288 286 286 287 287 285 286 283 284 284 285 284 283 283 280 279 276 281 281 278 280 280 280 279 278 279 278 282 282 283 281 281 280 280 282
289 290 287 282 284 284 284 285 284 286 283 285 284 284 282 285 287 286 286 285 285 282 280 280 279 275 273 279 275 271 275 278 279 280 279 274 278 279 277 278 279 280 280 280 281

GFSSW_sfc_thetae_039.txt.gz
Theta_e
321 321 321 322 322 322 323 323 322 322 322 322 323 323 323 324 324 320 310 316 318 330 324 315 314 314 314 312 313 312 302 300 301 301 302 307 304 309 310 307 309 310 310 313 314
320 321 321 321 321 322 323 323 323 323 322 322 322 322 323 323 317 312 323 326 333 327 315 312 310 311 309 309 311 307 302 301 306 305 303 305 305 306 306 306 306 309 312 313 313
320 320 320 321 321 322 323 323 323 323 323 322 322 322 322 322 311 308 326 329 333 324 315 314 312 310 306 309 308 307 301 305 306 306 306 304 304 307 304 303 306 306 309 312 313
320 320 320 320 321 322 323 323 323 324 323 323 322 322 322 318 300 310 328 331 332 318 314 311 309 306 304 303 307 302 305 305 306 307 305 303 306 304 305 305 309 310 311 311 311
321 320 320 320 320 321 323 323 324 324 323 323 322 322 318 306 306 323 329 331 319 313 311 309 306 306 302 304 305 303 304 305 306 306 306 306 303 304 304 308 310 310 310 309 310
321 320 320 320 321 321 322 323 324 324 323 322 322 320 312 302 313 323 325 321 314 312 310 310 307 308 304 303 302 304 303 303 304 304 304 302 303 304 305 308 307 308 308 309 309
321 320 320 320 321 322 322 323 323 322 322 322 322 318 307 308 315 321 320 316 314 312 309 311 310 306 306 302 306 303 298 301 302 304 303 303 299 300 306 307 306 306 307 308 309
320 320 319 320 321 321 322 323 322 321 321 320 322 315 303 308 315 314 314 311 313 313 311 310 310 307 304 306 302 299 299 295 302 301 301 301 295 303 306 304 303 305 307 308 309
320 319 319 320 320 321 322 321 319 321 321 320 316 310 303 311 307 310 311 307 310 309 309 308 309 304 304 298 296 298 293 295 298 304 300 299 296 302 305 304 303 304 306 307 308
320 319 320 320 320 321 321 317 319 319 320 319 311 302 305 302 307 307 309 309 305 306 304 304 303 299 299 296 290 295 296 297 296 301 301 298 298 302 304 304 304 305 305 306 307
320 320 320 321 321 322 320 315 313 310 309 306 307 302 308 306 308 305 306 305 306 303 297 301 296 293 297 299 299 297 295 294 298 301 299 298 297 299 302 303 303 304 305 305 305
321 321 321 321 321 322 316 312 307 306 305 314 311 309 310 306 303 303 306 301 300 296 299 296 293 299 301 300 296 295 294 294 298 301 298 297 295 298 301 303 304 303 303 303 304
321 320 321 321 321 320 313 309 311 309 305 308 306 304 304 305 304 306 304 302 299 297 296 295 299 301 297 297 295 295 294 295 294 297 297 295 294 298 302 305 302 302 302 303 302
320 320 320 320 317 320 313 311 312 310 300 302 300 300 301 303 299 302 304 302 299 297 299 297 298 295 295 294 295 291 297 295 293 291 288 295 286 295 300 301 299 299 300 299 299
318 319 320 319 321 317 312 312 311 307 288 298 297 305 302 297 299 298 302 300 296 297 296 295 294 293 292 294 296 293 296 293 292 290 290 291 288 295 300 296 296 297 297 297 297
314 316 318 317 318 314 314 313 311 298 287 297 297 297 296 297 296 299 299 301 300 295 296 295 298 295 295 296 296 296 293 294 294 291 286 292 291 293 295 295 294 295 295 296 296
309 313 317 321 315 316 318 316 297 290 301 297 295 295 296 295 295 296 296 295 295 292 293 297 297 298 296 293 295 293 291 287 286 285 286 292 291 293 297 295 296 294 295 295 296
307 311 315 319 318 319 318 304 288 294 297 303 301 300 298 298 298 295 296 295 298 297 295 290 288 294 295 294 294 294 293 286 280 282 286 293 287 293 297 295 296 296 295 294 293
308 312 312 317 318 318 308 292 291 295 299 298 299 295 296 299 298 298 298 297 299 298 291 290 290 299 296 298 295 292 289 295 288 288 284 288 292 295 295 295 295 294 293 290 290
306 306 307 314 318 313 300 293 296 301 301 300 293 295 291 295 294 294 294 298 296 296 299 294 288 296 295 294 294 290 292 286 286 279 279 285 288 288 293 293 293 290 289 289 290
305 297 306 314 316 303 291 293 296 300 300 298 295 294 294 292 294 292 293 297 298 296 296 294 291 290 294 290 289 288 286 287 287 286 280 280 285 294 292 290 289 289 289 288 288
301 291 308 314 297 297 292 294 296 295 299 297 297 295 292 292 291 292 291 293 299 298 293 296 290 286 288 295 296 295 291 290 283 282 284 284 285 296 291 289 289 287 287 287 287
294 296 307 308 290 291 294 293 295 294 294 294 294 296 296 292 288 291 292 296 297 296 293 294 287 282 284 288 292 289 290 289 288 285 282 280 283 294 289 288 286 286 285 286 286
294 287 296 298 299 293 291 291 291 296 294 295 293 295 293 290 292 288 289 294 295 294 293 295 287 284 280 284 287 284 287 288 286 281 281 281 283 287 290 289 285 284 283 283 284
293 289 293 287 290 293 292 290 288 288 293 294 291 290 289 286 287 287 290 291 291 289 290 291 282 285 286 286 285 284 283 284 282 283 279 282 282 286 288 287 284 284 284 282 282
289 288 290 290 292 291 290 288 287 289 289 288 288 290 291 287 288 285 286 286 285 287 286 285 281 282 278 283 283 280 282 283 282 282 282 283 282 288 286 284 283 282 282 281 282
293 293 290 287 288 288 288 288 288 290 288 289 288 287 285 288 289 288 288 288 288 285 283 282 281 278 274 279 278 273 277 279 281 283 282 277 281 282 280 280 280 280 281 281 282

GFSSW_sfc_thetae_042.txt.gz
Theta_e
321 322 322 322 322 323 323 324 324 323 323 323 323 323 323 324 323 321 312 318 320 330 326 315 313 312 312 311 312 309 297 294 297 297 298 302 298 302 302 300 302 304 302 306 310
320 321 321 322 322 323 323 324 324 324 324 324 323 323 323 323 316 311 324 329 332 330 314 310 308 310 305 307 308 302 297 298 301 300 299 301 299 300 299 299 300 301 306 308 310
320 320 321 321 321 322 323 324 324 324 324 324 323 323 323 320 312 310 327 330 332 327 316 313 311 309 304 305 305 303 298 302 301 303 303 301 300 301 299 297 300 300 302 304 306
321 320 320 321 321 322 323 324 325 325 324 324 323 323 322 318 298 315 327 330 331 318 313 310 308 304 301 300 305 298 302 303 304 304 302 299 302 300 300 300 304 304 305 304 304
321 321 321 321 321 322 323 324 325 325 324 323 323 323 318 307 306 323 327 331 321 315 309 307 304 303 299 301 301 299 301 303 303 302 301 303 300 300 300 304 305 305 305 303 303
322 321 321 320 321 322 323 323 324 324 323 322 322 321 313 301 314 323 323 322 314 311 308 308 305 305 302 300 298 301 300 300 301 301 301 299 299 298 300 303 303 303 302 302 303
322 321 320 320 321 322 323 323 323 323 322 323 322 318 308 305 316 322 320 316 313 311 308 309 308 305 303 299 302 300 295 298 299 300 299 300 295 296 301 301 300 300 300 302 303
321 320 319 320 321 322 322 323 323 321 322 320 322 316 302 310 314 315 315 312 314 313 310 309 309 305 302 303 300 296 295 290 297 298 298 296 289 298 299 300 299 300 300 301 303
320 319 319 320 320 321 322 322 318 321 321 320 317 313 302 312 308 310 311 308 310 310 309 308 308 302 300 294 291 292 287 290 294 300 297 294 291 298 301 300 299 299 299 301 301
320 319 320 320 321 321 322 322 319 319 320 319 313 303 304 303 307 308 308 309 306 305 303 303 300 295 294 291 284 288 289 292 292 297 297 295 293 297 299 299 299 298 299 299 300
320 320 320 321 322 323 321 314 310 308 308 306 307 303 306 306 308 306 307 305 305 302 295 298 292 289 293 295 295 293 291 290 294 298 295 294 295 296 299 298 297 298 296 298 299
320 321 321 322 322 322 320 311 306 306 303 313 313 312 313 307 303 303 306 299 299 294 297 293 289 296 298 297 295 293 290 289 294 297 294 292 292 296 298 298 297 296 297 297 297
320 321 321 321 321 320 314 309 312 311 301 307 308 307 306 306 304 305 303 300 296 294 295 292 296 299 297 295 293 292 290 291 290 292 293 290 288 292 296 296 297 296 296 295 294
321 321 320 320 317 320 312 312 312 311 297 301 300 301 301 303 299 303 304 301 298 295 296 295 296 295 293 292 293 288 293 292 290 287 282 290 279 288 293 292 294 293 292 292 292
320 319 321 320 319 315 311 313 312 307 285 300 297 305 301 298 298 298 301 299 295 295 293 293 292 291 291 292 294 290 292 290 289 286 284 286 282 287 292 289 290 291 292 291 292
316 317 318 318 318 314 314 312 311 295 285 295 298 297 295 296 296 298 298 299 298 294 294 293 294 293 293 294 293 293 290 290 289 286 279 287 285 286 288 289 289 291 292 292 292
311 314 316 319 313 314 317 315 296 288 301 295 294 295 295 293 294 295 293 291 290 287 287 292 292 293 294 290 291 289 286 281 280 278 279 289 286 289 291 292 292 292 291 290 289
308 311 315 319 317 318 316 303 287 294 296 302 300 297 296 297 295 294 293 291 295 294 290 287 286 292 293 292 289 289 288 280 274 276 280 286 281 289 292 293 293 291 290 289 288
309 310 311 316 318 317 306 292 290 295 299 298 299 295 295 299 298 295 294 293 296 296 290 287 287 292 292 293 293 289 286 291 284 280 280 283 288 291 292 291 291 289 287 286 286
305 304 306 316 317 312 299 293 295 301 300 300 292 295 290 293 293 293 291 294 294 296 295 292 285 292 289 291 290 288 289 282 284 276 271 279 281 285 288 289 288 286 285 286 285
303 297 306 316 315 302 291 292 296 300 300 295 295 293 293 291 293 291 291 294 295 292 294 293 289 287 291 288 287 285 284 285 286 283 277 276 279 289 288 289 286 286 286 285 284
300 291 307 313 296 296 291 295 298 296 298 296 296 295 292 292 290 289 290 293 297 296 291 293 288 282 286 292 292 289 288 288 281 278 282 283 282 290 288 287 287 286 286 286 286
295 296 307 308 287 289 293 293 296 293 294 293 292 295 294 291 287 290 291 295 296 294 291 292 285 274 278 285 289 286 288 288 287 284 281 278 279 288 287 285 285 284 282 283 284
294 287 296 298 298 292 290 290 290 296 294 294 293 294 292 289 291 287 289 293 293 293 294 294 287 280 275 280 284 280 283 285 284 279 279 279 281 285 287 286 283 282 281 280 280
293 288 293 286 290 291 292 291 289 289 293 293 291 291 289 285 286 286 288 288 290 289 290 289 277 281 283 284 283 280 280 281 278 280 275 278 279 283 285 286 281 282 281 280 280
288 287 290 288 291 289 290 287 287 288 290 288 287 289 289 285 286 279 284 283 283 284 285 286 272 277 270 280 280 278 280 280 280 280 280 281 280 286 284 280 279 279 279 279 280
292 292 289 288 286 286 287 287 287 289 289 289 288 286 285 286 288 287 286 286 285 282 281 279 275 268 265 276 274 267 274 277 278 280 279 275 279 278 277 278 277 277 278 279 279

GFSSW_sfc_thetae_045.txt.gz
Theta_e
321 322 322 322 323 323 324 324 325 324 324 324 324 324 324 324 322 320 310 315 318 332 324 310 309 306 306 304 305 302 291 289 291 292 294 298 297 300 300 297 298 302 300 303 307
321 321 321 322 322 323 324 324 324 324 325 325 324 324 324 323 316 309 321 333 332 330 311 306 304 305 299 301 302 297 291 292 296 293 295 297 295 295 295 296 296 297 300 306 306
321 321 321 321 322 322 323 324 324 325 325 325 324 324 323 321 308 307 327 330 331 327 313 309 306 304 298 299 299 298 293 297 299 300 299 299 298 298 295 294 297 297 299 301 305
321 321 321 321 321 322 323 324 325 325 325 324 324 324 323 315 292 312 328 331 329 316 310 306 303 298 296 295 300 294 299 300 301 301 299 298 299 298 298 299 301 300 301 300 300
321 321 321 321 321 322 323 324 325 325 324 323 323 323 314 303 302 320 326 328 317 312 306 304 300 298 294 295 297 294 296 299 300 299 298 299 297 298 297 302 303 303 303 300 300
321 321 320 320 321 322 323 323 324 325 324 322 322 321 307 297 315 321 321 319 311 308 304 303 301 301 297 296 294 296 296 297 298 298 298 297 296 296 298 299 300 300 299 298 299
321 320 320 320 321 322 323 323 324 324 322 322 323 317 305 301 315 319 318 312 310 307 304 305 304 300 299 295 298 297 293 295 296 296 296 297 293 295 299 298 298 298 297 299 300
321 320 319 319 320 321 322 323 324 321 322 321 322 313 298 307 309 314 312 308 310 309 307 306 305 302 299 299 297 292 290 287 294 295 296 294 288 296 297 297 297 298 296 298 299
320 319 319 320 320 321 322 323 322 320 321 321 313 306 300 311 305 306 305 305 307 306 304 306 303 298 297 291 288 288 283 286 291 297 294 292 288 296 298 297 296 295 296 297 297
319 319 319 320 321 321 322 323 319 318 319 319 314 298 301 300 305 306 304 306 303 302 300 299 296 291 291 288 283 285 284 288 288 294 294 292 291 294 296 296 295 294 294 294 293
320 319 320 320 321 323 320 312 307 305 306 304 302 298 301 303 306 303 305 303 302 298 291 294 289 286 289 290 290 288 287 286 290 295 291 291 290 293 297 294 293 294 293 292 292
320 320 320 321 322 322 317 307 303 304 301 309 310 307 308 305 300 301 303 297 296 291 293 290 286 293 294 294 292 290 287 286 290 293 291 290 289 293 292 291 293 291 291 291 291
320 319 320 321 320 317 312 305 309 305 297 304 305 305 304 306 302 301 300 297 293 291 291 288 292 296 294 292 291 289 288 287 288 289 290 286 286 289 291 292 292 291 291 291 290
320 320 321 320 316 315 307 308 309 306 292 298 299 300 299 301 297 301 301 298 295 291 292 291 295 294 292 290 291 287 292 291 289 284 281 286 278 285 288 288 289 289 288 288 289
320 320 321 320 315 312 310 310 308 303 282 297 296 302 299 297 296 295 298 296 292 292 291 291 290 289 289 290 292 289 291 289 287 284 282 283 280 283 288 286 286 287 288 289 290
319 319 319 317 316 313 311 310 308 294 284 291 295 294 292 293 293 295 295 296 294 291 291 290 292 291 291 292 291 291 288 287 285 283 278 284 282 283 285 287 286 288 289 289 288
317 317 317 319 312 312 314 312 294 287 297 291 290 293 292 290 291 292 290 288 288 285 284 289 289 291 292 288 290 288 284 279 277 276 278 285 283 286 288 289 289 288 286 286 286
311 315 316 319 317 315 314 302 286 292 293 298 294 293 290 292 291 291 289 287 290 289 287 285 284 289 292 291 288 286 286 278 270 275 277 284 280 284 288 289 288 287 286 286 285
312 310 312 316 317 316 305 292 290 292 297 297 297 293 291 295 295 290 288 289 292 292 288 286 286 290 291 291 292 287 284 288 281 277 273 281 284 288 288 286 285 284 285 284 284
305 304 305 316 316 312 300 292 294 299 298 298 291 295 289 291 292 292 290 292 291 293 294 290 285 290 288 290 288 287 288 281 280 268 268 278 279 281 284 284 284 284 284 284 284
303 298 306 316 314 302 290 293 297 300 299 295 294 293 290 290 292 290 290 292 292 290 293 291 288 286 289 287 286 284 283 283 284 280 274 272 277 286 287 285 284 285 285 284 283
300 292 306 313 295 296 292 294 297 296 298 296 295 294 291 291 289 288 289 293 295 293 289 291 285 282 284 290 289 288 285 285 281 275 281 279 280 288 287 287 286 286 285 284 283
295 295 305 307 287 289 293 293 295 292 294 293 292 294 294 290 286 288 289 292 294 293 290 291 281 271 276 283 286 285 286 287 285 284 276 274 277 286 285 286 286 283 282 283 283
294 288 295 298 295 290 289 289 289 295 293 294 292 293 291 289 290 287 288 292 291 292 295 294 284 277 275 279 283 279 282 284 284 274 274 277 278 283 283 284 282 281 280 279 279
293 287 291 286 290 291 291 290 288 288 293 294 290 290 288 285 286 285 288 287 288 291 288 287 276 281 281 282 281 280 280 280 278 279 273 278 277 280 282 281 281 280 279 278 278
286 286 287 285 289 290 290 287 287 288 290 288 287 289 289 286 284 279 283 284 283 284 283 284 273 276 268 279 279 278 279 279 279 279 278 279 278 284 281 278 277 277 278 278 278
288 288 286 285 284 285 286 287 286 288 287 289 290 287 285 284 286 285 286 284 284 282 280 278 274 265 264 275 272 267 274 277 278 278 278 274 279 276 277 277 276 277 277 277 278

GFSSW_sfc_thetae_048.txt.gz
Theta_e
321 322 322 322 323 323 324 325 325 325 325 325 325 325 324 324 322 317 305 312 315 331 324 309 306 304 304 302 303 299 290 287 289 290 292 296 295 297 297 295 295 299 297 300 304
320 321 321 322 322 323 324 324 325 325 325 325 325 325 324 323 313 308 320 333 334 331 308 304 301 303 298 299 301 294 288 290 294 293 293 295 294 295 294 296 294 295 299 303 305
321 321 321 321 322 322 323 324 324 325 325 325 324 324 324 320 303 305 325 329 332 326 310 306 305 302 297 297 298 296 291 295 297 297 297 296 295 296 293 294 296 296 296 298 303
321 321 321 321 321 322 323 324 325 325 325 324 324 324 323 312 291 309 327 330 329 314 308 304 301 297 294 293 298 293 298 298 300 299 297 295 298 296 296 298 301 299 298 298 299
321 321 321 321 321 321 323 324 324 325 325 324 323 323 312 300 301 317 325 326 313 309 304 302 298 297 293 294 295 293 294 297 299 298 296 297 296 294 296 300 300 299 299 297 296
321 321 320 320 321 321 322 323 324 325 324 322 323 322 304 295 314 320 319 315 309 306 303 302 300 300 296 294 293 294 295 295 297 297 296 295 293 294 297 296 298 298 296 297 297
321 321 320 320 321 322 322 323 324 324 322 322 322 316 305 300 315 318 315 310 309 306 302 303 302 299 297 294 297 295 292 294 295 294 294 295 291 293 298 297 297 296 295 296 296
321 320 320 319 320 321 322 323 324 324 322 322 322 311 298 306 309 314 312 306 308 307 305 304 303 300 297 297 295 290 289 286 292 293 294 293 288 295 297 294 295 293 293 294 294
320 319 319 319 320 321 322 323 322 322 321 322 311 305 298 310 304 305 305 304 305 304 303 305 302 297 295 290 287 287 283 285 290 295 293 290 288 294 298 294 295 291 291 292 291
319 319 319 319 320 321 322 323 320 318 318 318 315 298 301 298 303 304 302 305 301 300 299 298 294 291 289 287 282 284 284 285 287 292 292 290 289 293 295 295 292 290 289 290 290
320 319 319 320 321 322 320 312 306 304 306 303 300 298 300 302 304 302 304 302 301 297 290 293 288 286 288 289 289 287 285 285 288 293 289 289 289 289 291 290 289 289 288 289 289
320 319 320 320 322 321 317 307 304 305 301 308 306 304 305 303 299 300 303 296 294 290 292 289 286 292 292 291 289 288 286 285 289 292 289 288 287 288 289 288 289 288 287 288 288
320 319 319 320 320 316 312 307 308 305 298 302 306 305 304 305 302 301 300 296 292 290 290 287 291 294 292 290 290 288 287 286 288 288 287 284 284 285 288 289 289 288 289 289 288
320 319 319 321 314 314 307 308 308 306 292 296 299 300 299 301 297 300 300 297 292 290 290 289 293 292 290 290 291 286 290 290 287 284 281 285 279 283 286 286 287 287 286 286 287
320 319 320 320 315 311 310 309 308 303 284 296 296 301 298 297 295 294 297 295 291 292 291 290 289 289 289 290 291 288 290 288 286 283 281 282 279 282 286 284 284 285 286 286 287
319 319 319 318 316 315 309 309 307 293 284 290 293 292 291 292 292 294 294 295 294 290 289 290 291 290 290 290 290 290 287 287 284 282 277 282 281 281 283 286 285 286 285 286 285
318 318 317 319 313 312 312 311 293 287 295 289 289 291 290 288 289 291 289 287 286 283 283 287 288 289 291 287 288 287 285 279 276 276 277 283 280 283 286 287 287 284 283 284 284
318 317 317 319 314 314 314 301 286 293 292 295 292 291 288 289 289 289 287 285 289 287 285 284 283 288 290 289 288 285 285 278 270 274 277 282 279 282 285 286 286 285 284 284 283
314 311 313 316 316 316 307 292 291 293 296 296 294 289 288 294 291 287 286 286 290 290 286 284 285 288 289 289 291 286 283 286 280 274 273 280 281 285 284 282 283 282 282 282 282
308 307 306 316 317 312 301 294 295 299 298 297 290 293 288 292 291 288 287 290 291 293 292 289 283 288 287 289 287 286 288 281 279 269 270 277 279 280 280 280 282 281 281 281 283
305 301 306 316 314 303 293 293 297 300 299 296 294 292 290 290 293 288 289 291 291 289 293 290 287 284 287 285 285 284 282 283 283 277 272 270 276 284 285 283 282 282 283 282 282
301 296 306 313 297 297 292 295 297 296 298 296 295 295 292 292 290 289 288 291 292 292 290 290 285 276 284 287 288 286 284 284 277 275 280 278 279 286 287 285 285 285 285 283 282
296 295 305 307 291 291 294 295 296 293 294 295 292 294 294 291 288 289 289 291 294 293 291 291 282 271 277 282 285 283 284 285 284 281 274 272 275 284 285 284 285 284 283 283 280
295 288 294 298 296 293 291 290 291 296 294 295 293 294 291 289 291 288 288 291 291 292 295 294 283 280 279 278 282 280 282 284 282 272 278 277 279 280 282 283 283 283 282 281 280
293 288 292 286 290 291 292 290 289 288 293 295 290 290 289 286 287 286 288 287 287 291 287 288 279 279 281 282 281 281 280 281 279 279 274 277 278 282 283 281 281 282 278 277 277
288 287 289 287 291 291 290 288 287 289 290 287 288 290 289 286 286 282 285 285 285 284 283 284 273 277 271 280 281 278 280 280 280 280 279 279 278 283 279 278 277 278 277 277 278
290 290 290 287 285 288 287 288 287 289 287 289 290 287 286 288 288 286 286 286 285 283 282 281 276 270 268 274 272 268 273 277 277 278 277 273 278 277 276 277 276 276 277 277 277

GFSSW_sfc_thetae_051.txt.gz
Theta_e
321 321 322 322 322 323 324 325 325 325 325 326 326 325 325 324 321 314 301 311 314 330 323 307 304 303 302 301 301 296 288 285 287 289 290 294 294 296 295 293 295 297 299 298 303
320 321 321 322 322 323 323 324 325 325 325 325 325 325 324 323 311 305 318 330 333 330 306 302 299 301 297 298 299 293 286 288 291 294 292 294 292 294 294 294 292 294 297 301 305
321 321 321 321 322 322 323 324 324 325 325 325 324 324 323 320 300 301 324 328 332 326 307 305 303 301 295 296 297 293 289 292 295 295 295 294 293 294 292 293 295 294 296 298 300
321 321 321 321 321 322 322 323 324 325 325 325 323 323 322 310 290 306 326 328 329 312 306 303 299 295 293 292 296 293 296 295 298 298 295 294 295 294 294 297 298 296 296 295 294
321 321 321 321 321 321 322 323 324 325 325 324 323 323 310 298 301 314 325 324 311 307 302 300 297 296 292 293 293 292 293 295 298 297 294 295 295 293 295 298 297 296 297 295 295
321 320 320 321 321 321 322 323 324 325 325 322 323 322 302 294 311 317 316 309 307 304 301 301 298 298 294 293 292 292 293 294 295 295 295 294 292 293 295 295 294 296 294 293 293
321 320 320 320 321 321 322 323 324 324 324 322 322 315 303 300 314 317 313 308 307 304 301 301 301 297 296 293 295 294 291 292 293 293 293 294 290 292 296 295 293 293 292 292 292
320 320 320 320 320 321 322 323 324 323 323 321 322 310 298 305 311 313 310 305 307 306 304 303 302 299 296 296 293 288 288 286 291 292 292 292 288 294 295 294 291 291 289 290 291
320 319 319 319 319 320 321 323 322 323 320 322 310 302 298 309 304 305 305 303 303 302 301 305 300 295 295 289 286 286 283 284 289 293 291 289 287 294 294 292 290 288 288 289 289
320 319 319 319 319 320 322 322 320 317 317 318 314 299 302 298 302 303 301 304 300 299 298 297 293 289 288 286 283 284 283 284 285 290 291 289 289 291 291 291 288 287 287 287 288
320 319 319 319 320 322 319 311 305 303 306 301 299 299 298 301 303 301 303 302 300 296 289 291 287 285 288 289 288 286 284 283 286 291 289 289 288 287 289 288 286 286 287 287 287
320 319 319 319 321 321 317 308 305 305 301 307 305 301 303 301 298 299 302 296 295 290 291 288 285 290 290 289 288 286 284 284 288 290 288 288 286 286 287 287 287 286 286 286 287
320 319 319 319 321 318 312 310 306 305 298 302 305 304 305 302 300 301 300 296 292 289 289 287 291 293 291 288 287 286 285 285 286 287 286 284 284 285 286 287 288 287 287 287 286
320 319 319 319 316 314 311 311 307 306 291 294 298 300 299 303 298 299 299 296 291 290 289 288 292 291 288 288 289 285 290 289 287 283 280 284 279 282 284 284 285 285 284 284 285
319 319 319 320 315 311 311 309 307 304 284 296 296 300 297 298 295 294 297 295 290 290 290 289 289 288 288 289 291 288 289 287 285 282 280 281 279 280 283 282 282 283 284 284 285
319 319 319 318 317 315 309 308 307 293 284 290 293 291 291 291 292 293 293 295 294 290 289 290 290 289 290 289 290 290 286 286 283 281 277 281 282 281 281 283 283 284 284 284 284
318 318 317 319 313 313 312 310 293 287 294 289 288 289 289 287 289 290 289 287 286 283 283 286 287 288 289 287 287 286 285 279 276 275 277 281 279 282 284 285 286 284 283 283 283
318 318 317 319 317 312 312 301 286 294 292 292 290 289 286 288 287 288 286 284 287 286 283 283 283 288 289 288 286 284 285 279 271 273 276 281 279 282 283 285 286 284 283 283 283
318 316 315 319 314 315 305 291 290 294 296 292 290 285 285 290 288 286 285 285 288 289 287 283 284 287 288 289 290 284 282 286 278 276 272 279 281 282 282 281 281 281 281 281 281
311 308 308 317 315 311 301 295 295 299 298 295 288 290 284 289 288 286 284 288 290 291 291 289 283 287 287 288 286 286 288 281 279 270 269 276 278 280 279 279 280 280 281 281 281
308 303 308 316 313 304 295 295 297 301 299 296 293 291 290 291 290 286 287 290 291 290 293 290 288 284 287 285 284 284 282 282 282 277 271 269 276 283 283 282 281 282 283 282 281
304 298 307 315 298 298 293 296 299 298 299 297 296 295 292 293 291 290 288 291 291 291 289 291 285 276 283 285 286 285 284 284 281 277 278 277 279 284 286 285 284 284 284 282 281
299 298 305 307 294 292 295 295 296 295 296 296 294 296 295 292 290 291 289 291 292 291 289 291 283 275 282 282 284 283 284 283 283 280 280 277 278 284 284 283 284 283 283 282 281
296 290 294 298 297 297 293 293 292 297 295 296 294 294 292 290 292 289 289 291 291 293 294 294 285 281 280 280 282 281 284 284 283 278 278 280 282 280 282 282 282 283 283 281 280
293 290 292 287 290 293 296 293 291 289 295 296 292 292 291 287 287 287 287 287 288 291 288 289 283 280 281 282 282 282 281 283 280 281 278 280 280 282 283 283 283 283 281 280 278
289 287 289 287 292 292 292 289 290 291 291 288 289 291 292 287 288 285 287 286 286 284 285 284 278 279 279 280 281 279 281 281 282 282 279 280 280 282 283 282 280 280 279 278 278
291 291 290 287 285 286 286 288 288 290 291 291 292 289 288 290 289 286 287 288 288 285 283 281 278 276 278 274 274 272 277 279 280 280 281 277 282 278 276 279 280 279 277 277 277

GFSSW_sfc_thetae_054.txt.gz
Theta_e
320 320 321 322 322 323 323 324 325 325 325 326 326 325 324 324 321 312 299 309 314 328 321 305 303 302 301 300 299 294 286 283 286 287 289 293 293 294 294 293 294 295 300 297 302
320 321 321 321 322 322 323 324 324 325 325 326 325 324 324 323 309 302 317 330 331 329 304 300 298 299 296 297 298 291 285 286 289 291 293 293 292 294 294 292 293 293 297 298 303
321 321 321 321 322 322 322 324 324 325 325 325 324 323 323 319 299 298 324 328 331 323 305 303 302 299 294 297 297 291 288 289 292 293 293 293 292 293 294 291 291 292 295 295 294
321 321 321 321 321 321 322 323 324 325 325 325 323 323 322 307 290 304 326 328 329 309 304 302 299 294 292 291 294 292 294 293 296 296 295 293 294 293 293 293 294 294 294 294 293
321 321 321 321 321 321 322 323 324 324 325 324 323 323 307 297 301 312 325 321 309 305 301 299 296 294 290 291 292 293 292 294 296 295 294 294 293 292 293 293 296 295 294 292 292
321 320 320 321 321 321 321 322 324 325 324 324 323 322 299 295 310 315 313 306 306 303 300 299 297 297 293 291 291 291 292 293 294 294 293 293 290 291 290 293 294 293 291 290 290
320 320 320 320 321 321 321 322 323 324 324 323 321 314 301 300 313 314 310 305 305 303 300 300 300 296 295 292 294 292 290 291 292 291 292 293 288 289 290 293 292 290 289 290 290
320 320 320 320 320 320 321 322 323 323 323 321 321 308 299 305 312 311 308 305 305 304 303 302 301 298 295 295 292 288 287 285 290 291 291 291 287 290 291 292 289 288 287 288 288
319 319 319 320 319 320 321 322 322 321 320 321 308 301 298 309 304 306 305 303 302 301 301 303 299 294 294 289 286 286 283 284 288 292 290 288 288 292 291 290 287 285 286 287 287
320 319 319 320 319 320 321 322 321 317 316 317 312 299 302 298 302 302 301 303 299 298 297 296 292 289 288 286 282 283 282 283 285 289 290 288 289 290 289 288 285 285 286 286 286
320 320 319 319 320 321 318 312 306 303 306 301 299 299 298 300 302 300 302 301 298 294 289 290 286 286 289 288 287 286 284 284 285 289 287 288 287 286 287 286 284 284 285 286 286
320 320 319 320 320 321 317 307 306 303 299 306 305 301 301 300 296 298 302 296 294 290 290 287 284 290 289 289 287 285 283 283 286 289 288 287 286 285 286 285 285 285 284 285 285
320 319 319 319 320 318 314 310 306 305 298 302 304 303 304 301 298 298 299 296 291 288 288 286 289 292 290 287 286 284 283 283 285 286 285 283 283 283 285 285 286 285 285 285 284
320 319 319 319 315 314 311 316 306 306 292 293 298 301 300 301 297 300 299 296 291 289 289 287 291 291 287 287 288 283 288 288 286 284 281 284 278 281 283 282 283 283 283 283 283
319 319 319 320 312 311 311 308 307 304 285 296 296 299 298 299 295 293 296 294 289 290 290 289 288 287 287 288 290 287 289 287 284 282 280 280 278 280 282 280 281 282 283 283 283
319 318 318 317 317 313 309 309 308 293 284 291 292 291 293 291 291 292 293 294 294 290 288 290 290 290 290 288 290 289 286 285 282 281 276 281 281 280 280 282 282 283 283 283 283
318 318 317 319 312 311 313 310 292 285 293 288 288 289 289 287 288 289 289 287 287 284 284 286 287 287 289 286 286 286 284 279 276 275 277 280 279 282 284 284 285 283 282 282 282
318 317 317 320 318 312 312 301 284 291 293 290 289 287 286 287 286 287 286 285 287 285 283 282 282 287 289 287 285 284 284 279 271 272 276 280 278 283 282 283 286 285 284 282 281
318 317 316 319 314 315 304 292 289 292 296 289 288 284 283 287 286 285 284 284 287 286 285 282 284 286 287 288 288 283 281 284 278 275 272 279 281 281 281 280 282 282 281 281 281
316 311 310 320 315 312 301 295 294 298 298 293 288 288 282 286 285 283 283 286 288 289 290 288 283 286 286 288 286 285 287 281 278 270 267 277 278 279 279 279 280 280 281 281 281
310 304 310 319 313 305 295 295 298 300 299 294 293 290 286 288 287 283 284 288 290 289 292 289 287 283 286 284 283 283 282 282 282 277 272 269 276 282 283 282 281 281 282 282 281
308 298 309 315 300 299 296 297 299 298 299 297 296 295 290 291 288 285 286 290 292 292 289 291 284 277 282 283 285 284 283 284 281 276 277 276 280 285 285 284 284 283 283 282 282
301 302 306 307 295 294 295 296 298 297 297 296 295 296 296 291 289 290 289 292 292 292 290 290 284 274 279 282 283 283 284 284 282 280 279 275 278 283 284 283 284 284 284 282 281
298 292 295 298 299 298 295 293 293 297 297 298 297 296 294 292 295 291 291 290 291 292 295 294 285 281 281 281 283 281 283 283 283 278 280 281 283 281 283 283 282 283 283 282 281
293 292 294 289 291 293 298 295 292 291 295 297 293 294 293 290 290 290 290 287 289 292 289 291 285 281 280 281 282 281 281 282 281 284 280 284 282 284 284 284 284 284 282 281 279
289 288 290 287 290 291 292 292 292 293 293 291 290 292 293 288 290 287 287 287 287 285 286 285 283 278 275 280 280 279 281 281 284 284 283 280 281 283 285 283 281 282 282 281 280
291 292 291 288 286 288 290 290 290 294 292 293 294 291 290 292 293 290 291 291 291 287 285 283 279 279 279 276 276 277 281 282 281 281 282 279 283 279 279 281 281 280 280 280 280

GFSSW_sfc_thetae_057.txt.gz
Theta_e
320 321 321 322 322 323 324 324 325 325 325 326 326 325 324 324 321 312 299 308 313 327 320 305 304 303 303 302 301 297 288 286 289 290 293 297 297 298 299 298 299 300 300 299 303
320 320 321 321 321 322 323 324 324 325 325 325 325 324 323 323 309 301 317 328 330 327 305 301 300 301 298 300 300 293 287 289 291 293 294 296 296 297 297 296 297 298 299 298 298
320 320 321 321 321 321 322 323 324 324 325 325 324 323 323 318 299 297 324 328 331 320 305 304 303 301 296 297 298 294 290 291 293 295 296 296 295 297 296 295 297 296 294 296 296
321 320 320 321 321 321 322 323 324 324 325 325 324 324 322 306 290 303 328 328 329 308 305 302 300 296 293 292 297 292 295 295 297 297 296 295 297 295 296 295 295 295 295 294 293
321 321 321 321 321 321 321 322 324 325 325 325 324 323 306 298 301 312 324 323 309 305 302 300 297 296 292 293 294 294 294 295 296 295 295 295 295 294 291 294 295 294 293 292 291
320 320 320 320 321 321 321 322 323 324 324 325 324 322 299 296 310 315 310 306 305 303 300 300 298 298 294 293 293 293 293 294 295 295 294 294 293 294 292 294 293 292 290 290 290
320 320 320 320 321 321 321 322 323 324 324 324 322 313 300 302 313 313 309 304 305 303 300 301 300 298 296 293 295 293 291 292 293 293 293 294 291 289 292 293 290 289 289 289 289
320 319 319 320 320 320 320 321 323 323 323 322 321 307 300 305 313 311 307 304 304 304 302 302 301 299 296 296 293 290 289 288 293 292 293 293 289 290 292 292 288 287 287 288 288
319 319 319 320 320 319 320 322 322 321 321 321 307 300 298 309 305 308 305 304 302 301 301 303 300 295 295 290 287 287 285 286 290 293 292 291 290 288 291 289 286 286 286 287 288
319 319 320 320 319 319 320 322 321 317 315 316 310 299 302 299 301 302 301 303 299 299 298 297 292 290 288 288 283 285 284 285 286 290 291 289 290 287 288 287 285 285 286 286 287
320 320 320 320 320 320 318 311 305 302 305 301 300 299 298 300 302 300 302 300 297 295 290 291 288 287 288 289 288 287 285 285 287 290 289 289 289 287 287 286 285 285 285 286 286
320 320 320 320 320 321 316 308 306 304 298 305 305 301 301 300 295 298 302 296 294 289 290 287 284 291 290 289 288 286 284 284 287 289 289 288 287 286 286 285 285 285 285 285 285
320 320 319 319 319 318 314 310 307 305 298 302 304 302 303 300 296 296 299 296 292 288 288 286 289 290 290 287 286 284 284 284 286 287 287 285 285 283 284 285 285 286 286 285 285
320 319 319 319 314 315 311 315 310 306 291 293 298 302 300 300 294 300 299 296 291 288 288 287 290 290 287 287 287 283 288 287 286 285 282 285 280 283 283 283 284 284 284 284 284
320 319 319 319 313 311 312 314 307 303 284 295 296 299 299 299 295 294 296 295 289 289 290 289 288 287 287 288 289 287 288 287 286 284 282 282 280 282 282 281 282 283 283 283 284
319 319 318 317 316 313 308 308 307 292 283 291 292 291 294 292 292 293 293 295 294 290 289 290 290 290 290 289 290 288 287 285 283 281 277 282 282 282 280 283 283 283 283 284 283
318 318 316 318 311 310 312 310 292 285 294 288 288 290 291 287 288 290 289 288 287 284 284 286 287 288 289 286 287 286 284 279 277 276 278 280 279 283 285 284 285 284 284 284 283
318 317 316 319 315 312 312 300 283 290 291 289 288 288 288 288 286 287 286 285 288 286 284 283 281 287 288 287 285 284 284 279 273 274 277 280 278 284 284 284 286 286 285 284 282
317 317 316 318 314 314 304 292 289 290 295 288 287 283 283 286 285 284 285 285 289 287 286 282 283 286 286 287 288 284 282 284 277 276 274 280 282 284 283 282 284 284 283 282 282
314 312 312 319 315 311 300 293 293 297 293 291 287 287 283 284 283 283 283 286 287 289 289 287 283 285 285 287 286 285 287 281 279 271 269 277 279 282 280 281 281 282 282 282 283
311 304 311 319 314 304 294 295 298 301 299 293 293 289 287 285 286 283 284 286 288 288 291 288 287 283 285 283 283 283 283 282 282 278 274 271 277 283 284 284 281 283 284 283 282
307 297 310 315 300 300 296 297 300 299 299 297 296 295 289 288 286 285 284 288 291 292 288 290 286 279 282 284 285 284 284 283 279 276 276 276 279 284 285 284 284 283 284 284 284
302 301 307 308 295 296 297 298 299 297 297 296 295 297 296 291 287 286 286 291 292 291 290 290 285 279 279 282 283 283 283 284 282 280 275 276 279 284 283 283 283 283 284 284 282
299 294 297 299 301 296 296 294 294 299 299 299 297 297 294 292 294 291 290 291 292 292 296 295 286 284 283 282 283 281 283 283 284 275 281 281 284 282 283 283 282 283 283 282 282
297 294 293 290 293 296 296 296 293 292 297 299 295 296 294 291 292 291 292 288 289 293 291 291 285 285 281 282 283 282 282 282 282 285 283 285 284 284 285 285 285 285 283 281 281
291 289 290 288 290 294 295 293 293 294 294 293 293 295 296 292 293 289 290 288 288 287 287 287 285 283 280 281 282 280 282 282 284 285 284 283 282 286 287 284 284 284 283 282 282
292 292 292 289 287 288 291 291 291 295 293 292 294 295 292 295 296 292 292 292 291 287 285 285 282 282 283 278 280 279 281 281 281 282 284 280 286 283 282 283 284 284 283 284 284

GFSSW_sfc_thetae_063.txt.gz
Theta_e
320 321 321 321 322 322 324 324 325 325 326 326 327 326 325 325 324 319 310 314 318 328 320 314 313 312 314 311 311 309 301 298 299 299 302 306 304 307 308 306 307 307 306 306 308
320 320 321 321 321 322 323 324 324 325 325 326 326 326 325 324 318 312 318 328 331 329 313 310 308 309 308 308 310 306 301 300 302 303 303 305 305 305 304 305 304 305 307 307 308
320 320 321 321 321 321 322 323 324 324 325 326 326 326 324 322 313 309 324 329 330 321 313 312 311 308 305 307 307 305 300 301 301 304 306 304 304 306 303 302 304 303 304 305 306
321 321 321 321 321 321 322 322 323 324 325 325 326 325 323 318 300 312 327 329 330 316 313 311 309 305 303 302 306 301 303 303 304 304 304 303 305 303 304 303 303 303 303 303 303
322 321 320 321 321 321 322 322 323 324 324 325 326 325 318 310 310 318 325 326 317 313 311 309 306 305 302 303 303 302 303 304 305 305 304 304 303 303 302 303 302 302 302 302 302
321 320 320 320 321 321 322 322 323 323 324 324 325 322 313 305 317 320 316 314 313 312 309 309 307 307 304 302 302 304 303 303 304 304 303 301 303 301 302 302 301 300 300 300 300
321 320 320 320 321 321 321 321 322 323 324 324 323 317 311 311 319 320 314 312 312 311 308 310 309 306 306 302 304 303 300 303 304 304 302 302 299 298 302 302 300 300 300 299 299
320 320 320 320 320 321 321 321 322 323 323 322 321 316 308 313 321 316 315 311 312 311 310 311 310 307 305 305 302 300 301 298 303 302 301 301 298 301 301 300 300 300 300 299 298
320 319 319 320 320 320 320 321 321 322 321 321 317 313 307 315 311 317 315 310 310 310 310 309 309 305 303 300 299 300 296 298 300 302 300 299 299 300 300 300 300 300 299 299 299
320 319 319 320 320 320 320 321 322 319 319 318 315 307 309 305 309 314 314 312 308 307 305 305 304 300 300 299 292 297 296 297 297 300 299 298 298 298 299 299 299 299 298 298 297
320 320 320 320 320 320 319 320 312 310 312 308 309 308 307 306 310 310 311 308 308 305 300 303 298 296 299 300 301 299 298 297 299 300 297 298 299 301 298 297 298 298 298 298 297
320 320 320 320 321 320 320 312 313 311 304 312 311 309 309 307 301 305 310 304 303 299 302 297 294 301 303 301 299 298 296 296 299 297 296 297 297 301 300 297 298 298 297 297 296
321 320 320 320 320 319 316 314 316 314 305 306 310 308 309 305 303 302 305 304 300 299 298 297 300 301 299 297 296 296 295 296 295 296 296 296 294 297 299 297 296 296 298 297 296
320 319 319 320 314 317 313 318 320 314 298 301 303 308 307 307 301 308 307 302 297 296 298 297 302 297 296 295 296 293 299 296 295 293 290 296 289 299 298 292 292 293 294 295 295
319 319 319 319 314 313 316 319 320 313 286 303 303 308 306 303 302 298 305 301 297 296 296 295 294 294 294 295 297 295 298 295 295 293 293 294 289 295 295 291 292 293 294 295 294
318 319 319 317 316 315 318 318 312 293 285 298 300 299 298 302 296 298 298 301 301 298 297 296 298 297 297 296 297 297 294 293 293 293 286 292 291 293 292 293 295 294 294 294 293
317 317 317 319 312 314 316 310 291 285 302 297 296 298 299 296 295 296 294 293 293 289 290 294 294 297 297 293 295 296 292 287 284 283 284 291 291 294 298 296 297 293 293 294 293
317 316 315 318 315 315 313 300 283 293 298 298 297 298 296 297 296 295 294 292 296 296 295 290 289 295 296 297 294 292 294 288 282 284 287 286 285 291 295 297 295 296 295 294 292
316 315 314 316 314 315 305 290 290 296 301 294 293 293 295 296 297 294 295 295 297 297 291 292 292 296 297 299 299 292 290 296 286 282 285 288 291 295 291 291 292 294 294 293 291
313 310 309 317 315 309 299 292 294 300 301 301 293 297 294 295 292 293 294 298 298 299 301 297 291 292 292 294 295 294 296 286 288 282 281 288 289 290 288 289 291 292 293 293 292
311 302 312 319 314 303 292 292 297 302 302 296 296 296 297 297 295 292 296 298 300 298 299 298 293 288 290 289 290 289 289 291 291 290 286 284 288 297 296 294 291 292 293 294 292
307 296 315 315 298 296 291 296 299 300 303 297 298 298 298 297 293 294 294 298 299 299 293 298 294 288 287 293 295 295 292 292 287 284 287 287 289 293 297 298 296 294 294 295 294
301 301 313 312 291 292 298 296 299 299 299 297 296 299 300 296 288 295 297 299 298 296 295 297 291 285 288 289 290 288 291 292 292 291 287 285 288 292 293 295 297 295 295 295 294
300 293 300 302 303 296 295 294 295 301 300 300 298 300 296 291 293 293 294 296 297 296 297 298 292 290 289 292 292 287 289 291 290 286 287 288 291 289 292 293 295 296 296 295 294
298 294 297 290 295 296 297 294 293 293 299 301 296 297 295 292 292 290 294 294 292 294 295 294 285 290 292 295 293 292 290 290 288 290 288 291 292 295 293 294 295 296 296 295 293
293 294 295 294 296 295 295 293 292 292 294 294 294 297 297 293 294 291 293 294 293 290 290 292 285 288 286 292 292 289 291 292 290 290 291 292 293 300 300 297 296 296 295 293 293
296 295 293 291 291 292 292 294 294 296 296 296 295 294 292 296 300 300 298 298 295 290 287 285 285 285 283 289 288 284 287 290 292 292 293 288 294 291 293 292 294 295 294 292 293

GFSSW_sfc_thetae_069.txt.gz
Theta_e
321 321 322 322 322 323 323 324 325 325 325 326 326 327 327 327 324 319 308 314 318 326 320 308 306 305 304 303 303 299 290 288 291 290 294 297 296 298 299 298 299 300 297 300 302
320 320 321 322 322 322 323 323 324 324 325 325 326 326 327 326 316 310 320 328 329 327 310 304 302 302 298 300 301 295 290 291 292 293 294 297 297 297 295 296 296 297 300 302 302
321 320 320 321 321 322 322 323 323 324 324 325 325 326 325 322 309 308 326 330 327 322 310 307 305 302 297 297 297 296 291 293 294 298 299 298 296 298 295 293 295 296 297 299 299
321 321 320 320 321 321 322 323 323 324 324 325 325 325 323 314 294 311 326 328 327 312 309 305 302 297 295 294 299 292 297 297 300 299 298 296 298 295 295 295 298 298 298 298 298
321 321 320 320 320 321 322 322 322 323 323 324 325 324 315 304 305 315 324 324 314 309 306 304 299 299 295 295 297 294 296 298 300 299 297 299 296 295 295 296 298 299 298 297 297
320 320 320 320 320 320 321 322 322 322 323 324 325 322 309 298 314 316 316 313 310 306 304 303 301 301 297 295 294 296 297 297 299 299 299 296 295 296 294 296 296 297 296 295 296
320 319 319 320 320 320 321 321 321 322 322 324 323 317 307 304 314 312 311 308 308 307 304 305 304 299 299 296 299 297 293 295 297 298 297 297 294 294 296 296 295 295 294 295 295
320 319 319 319 320 320 321 321 321 321 323 323 323 312 302 313 313 312 310 307 308 307 307 306 305 302 300 300 297 293 292 289 296 297 296 296 290 296 295 295 293 293 292 294 295
319 319 319 319 319 320 320 321 320 321 323 322 313 307 302 315 310 313 309 306 306 306 305 307 304 298 297 291 289 289 286 288 293 297 295 293 290 293 295 294 293 292 292 293 293
319 319 319 320 320 320 320 321 320 319 319 318 315 301 305 303 309 311 309 308 304 303 301 301 297 292 292 289 284 287 287 289 290 294 293 291 291 293 294 294 293 292 292 292 292
320 319 320 320 320 321 318 314 309 306 308 302 303 302 303 305 309 308 309 305 303 299 293 296 290 288 292 291 292 291 289 288 292 295 292 291 291 293 294 292 291 292 292 292 292
320 320 320 320 321 321 315 308 308 306 300 309 308 307 306 305 299 305 308 299 298 293 295 292 288 295 296 295 293 292 289 289 292 294 292 291 290 293 293 293 294 294 293 292 290
320 320 320 320 320 318 312 311 313 310 299 303 307 306 306 303 300 301 304 300 296 293 293 290 294 298 295 293 292 291 290 290 290 291 290 288 288 290 293 294 294 296 294 293 290
320 320 320 320 315 316 311 316 316 310 291 296 301 305 303 303 298 305 305 300 296 294 295 292 297 296 292 292 294 289 294 293 292 288 284 288 283 287 291 291 292 294 292 292 290
316 319 320 320 314 312 315 317 316 309 284 299 300 307 304 301 298 297 301 297 293 293 295 291 292 292 292 292 294 290 293 292 290 287 284 285 283 284 291 291 291 293 290 290 291
315 316 319 317 315 315 318 317 311 293 284 295 298 297 297 298 295 296 296 298 297 293 292 291 293 293 293 292 294 294 291 290 288 286 280 285 284 288 290 294 297 293 290 290 289
314 315 315 319 311 317 318 310 290 284 298 293 293 295 294 294 292 293 291 289 289 285 286 289 290 292 294 290 292 291 287 280 278 278 279 286 284 289 292 293 294 291 291 289 290
312 315 314 317 317 317 313 299 283 290 291 296 296 296 292 294 293 291 289 286 290 288 286 284 283 290 292 291 288 287 288 281 274 277 279 282 281 287 293 290 293 293 292 290 289
311 313 311 314 317 316 305 290 288 290 296 293 294 292 293 294 294 290 288 287 291 291 287 285 285 291 292 292 294 287 285 291 285 273 276 282 285 290 290 288 288 289 290 288 288
305 307 307 316 316 311 299 292 293 297 299 296 290 293 291 292 292 289 288 292 292 294 295 292 286 289 288 292 291 289 291 284 287 276 277 281 281 286 287 287 287 288 289 289 288
303 299 306 316 313 301 291 292 297 301 302 297 293 292 294 294 294 290 292 293 295 293 296 294 292 285 287 286 287 286 286 288 289 282 276 275 282 289 292 291 289 289 290 289 288
299 291 306 313 296 296 290 293 298 299 301 299 297 297 295 296 294 293 292 295 298 296 290 295 292 284 284 289 291 292 290 290 285 279 282 280 285 288 289 292 292 291 291 290 289
295 295 307 309 290 289 292 292 295 296 298 296 295 298 298 296 292 295 296 299 298 298 294 295 289 283 285 287 289 287 289 291 289 285 283 279 285 288 290 289 289 289 290 290 288
294 288 294 300 300 293 290 290 289 296 296 298 296 297 295 294 297 292 293 295 295 297 299 298 290 287 284 286 286 282 286 290 290 285 282 286 287 287 286 287 287 288 289 289 288
294 288 292 288 290 294 294 293 289 289 295 296 294 296 295 291 292 293 295 292 293 297 297 296 287 289 289 291 291 286 284 287 287 288 285 289 288 292 290 289 291 291 288 288 287
290 287 292 292 292 291 290 290 291 292 294 292 291 293 295 293 293 290 294 295 292 291 293 293 287 287 287 289 290 288 289 290 287 288 289 289 288 292 294 291 289 290 289 289 288
295 295 292 289 288 289 288 288 290 293 295 296 295 295 294 296 299 298 296 296 296 291 289 288 287 284 283 286 287 282 287 288 290 291 289 285 290 292 293 294 291 290 290 290 290

GFSSW_sfc_thetae_072.txt.gz
Theta_e
321 322 322 322 322 322 323 323 324 324 325 325 326 326 327 327 324 317 305 312 316 325 320 307 305 303 303 301 301 296 289 287 288 289 292 295 294 296 296 297 296 297 296 298 302
320 321 321 321 321 322 322 322 323 323 324 324 325 326 326 326 314 308 319 325 327 326 307 302 300 300 297 298 299 293 288 290 291 291 293 295 295 297 294 294 294 295 298 300 301
320 320 320 320 321 321 322 322 322 323 323 324 325 325 325 321 306 305 325 327 328 320 308 305 303 300 295 295 296 293 289 292 292 296 296 296 294 296 294 291 295 295 297 298 298
321 321 320 320 320 321 321 322 322 323 323 324 325 325 323 312 291 308 325 327 326 312 307 303 300 296 294 293 297 290 295 294 297 297 296 295 296 294 294 294 297 297 298 297 297
321 321 320 320 320 321 321 322 322 322 323 324 325 323 312 299 302 312 324 323 313 307 304 302 298 297 293 293 295 292 294 296 297 297 296 297 295 295 294 295 296 297 298 296 296
320 320 320 320 320 320 321 321 322 322 322 324 325 322 308 294 312 314 314 311 308 304 301 301 299 298 295 294 293 295 295 295 297 297 297 296 294 295 293 294 295 296 295 295 296
320 319 319 319 320 320 321 321 321 321 322 323 324 316 305 301 312 312 309 306 306 305 302 303 302 298 297 295 298 296 292 294 295 296 296 296 293 293 294 294 294 294 293 294 295
320 319 319 319 320 320 321 321 321 321 322 323 323 311 300 311 311 309 308 305 305 305 305 304 303 300 298 299 296 292 290 287 293 295 295 295 289 295 294 293 292 292 291 293 294
319 319 319 319 319 320 320 321 320 321 323 323 312 306 300 314 310 312 307 304 305 304 304 307 302 297 295 291 289 289 285 286 291 295 293 292 290 293 293 293 292 291 291 292 292
319 319 319 320 320 320 320 321 320 319 318 317 313 300 303 302 308 310 308 306 303 301 300 299 295 291 290 289 284 285 285 287 288 292 291 290 291 292 293 292 292 291 290 291 292
319 319 319 320 320 321 317 312 307 304 307 301 301 300 302 304 308 306 307 304 302 298 292 294 289 287 292 290 291 289 287 287 289 294 291 290 292 294 292 291 290 290 290 291 292
320 320 320 320 321 321 314 307 307 305 298 307 307 306 304 304 299 304 306 299 297 293 294 291 287 294 295 293 291 289 287 288 290 293 291 291 290 293 291 292 294 294 292 292 290
320 319 320 320 320 318 310 309 312 309 297 301 306 305 305 302 299 300 303 299 295 292 292 289 293 296 294 291 290 289 287 287 289 290 289 287 288 290 292 294 294 295 296 294 292
320 320 319 320 315 315 311 315 314 308 291 296 300 304 302 303 298 304 304 300 295 293 293 291 295 294 291 290 292 287 292 292 290 287 284 288 283 287 290 291 292 295 294 293 291
315 317 320 320 314 312 315 316 315 308 283 298 300 307 303 301 298 297 301 297 292 293 294 290 291 291 290 291 293 290 292 290 288 285 283 284 282 285 289 289 292 295 292 290 291
314 314 315 317 315 316 316 316 311 293 284 294 298 297 297 298 294 296 297 299 297 293 292 290 292 293 293 292 293 293 290 288 286 284 279 285 284 289 289 292 296 297 291 291 290
313 314 313 315 311 317 317 310 292 285 296 291 292 295 294 292 291 293 292 291 290 286 285 289 289 290 292 289 290 290 286 280 278 277 279 284 283 289 291 292 294 293 290 289 290
311 313 312 313 316 317 313 300 284 291 292 295 294 293 291 293 291 290 288 286 290 288 285 284 283 289 292 291 289 287 287 281 273 275 278 282 280 286 291 293 290 292 291 288 288
311 311 310 312 314 315 305 290 288 290 294 292 293 289 289 292 291 288 287 286 290 291 287 284 284 289 290 290 293 286 285 290 283 272 275 282 285 290 291 290 290 289 288 287 288
303 304 305 314 315 308 298 291 292 296 298 295 289 292 288 292 290 288 286 290 290 294 295 290 284 287 287 291 290 288 290 282 284 274 274 280 281 285 289 289 289 287 286 286 288
299 296 304 315 312 300 288 290 296 299 300 295 293 291 292 291 292 288 289 291 293 292 295 292 290 284 287 286 286 286 285 286 288 283 276 274 282 288 290 291 290 288 288 287 288
296 289 302 312 294 294 288 293 298 299 300 298 297 296 294 295 291 289 289 294 296 294 289 293 291 281 285 289 291 290 289 290 285 278 280 279 285 288 289 290 290 289 289 288 288
293 291 302 306 289 289 293 293 295 296 297 296 295 297 298 295 292 294 294 298 296 294 292 295 289 284 285 287 289 287 289 291 289 284 281 279 284 287 288 288 288 288 288 288 287
292 284 291 298 298 293 290 290 290 294 295 298 296 297 295 295 297 294 295 298 298 297 299 298 290 287 284 285 285 283 286 289 290 285 282 286 287 286 287 287 289 288 287 286 286
291 287 290 286 288 293 293 292 289 289 294 296 294 294 293 291 293 293 295 294 294 297 296 296 287 289 290 289 286 284 286 288 288 288 286 289 288 293 291 290 290 289 287 286 286
288 285 290 286 292 290 290 289 289 291 292 290 291 293 295 292 293 290 294 294 293 291 294 295 288 288 288 290 289 287 288 286 288 290 290 290 289 293 294 292 289 290 288 287 287
289 294 290 286 285 286 287 288 288 291 293 295 293 291 290 293 298 298 297 297 297 293 290 289 288 286 285 289 288 283 288 290 289 289 290 286 291 296 294 293 291 289 288 288 288

GFSSW_sfc_thetae_075.txt.gz
Theta_e
321 321 321 321 321 321 322 322 322 323 324 324 325 326 326 326 323 315 304 311 314 324 320 305 302 301 301 299 299 294 288 285 287 289 292 294 293 294 294 296 294 296 296 297 303
320 320 321 321 321 321 321 321 322 322 323 324 324 325 325 325 312 306 319 325 326 323 305 300 297 298 296 296 296 292 286 289 291 290 292 294 293 295 294 293 292 294 296 299 302
320 320 320 320 321 321 322 322 322 322 323 323 324 325 324 319 303 302 324 327 327 318 306 303 301 298 294 295 294 290 287 291 291 294 295 294 293 294 293 291 294 295 297 298 300
320 320 320 320 320 321 321 322 322 322 322 323 324 324 323 310 289 305 325 326 325 310 305 301 298 294 292 291 295 291 293 292 295 295 295 294 295 293 293 295 296 296 297 297 299
320 321 320 320 320 320 321 322 322 322 322 323 324 323 311 296 300 310 323 320 309 305 301 300 297 295 292 292 293 290 292 294 296 295 294 296 294 294 294 293 294 296 297 296 297
320 320 320 320 320 320 320 321 322 322 322 323 325 322 305 292 309 311 311 308 306 302 300 300 297 297 294 292 291 293 294 294 295 295 295 294 292 294 293 294 294 295 295 295 296
320 319 319 319 320 320 320 321 322 322 321 322 324 315 302 298 310 311 307 304 304 303 300 302 300 296 295 292 295 294 291 293 294 294 294 294 292 292 293 293 293 293 293 294 295
320 319 319 319 320 320 320 321 321 321 322 323 324 309 299 310 309 307 306 304 304 304 304 303 302 300 296 297 294 290 289 286 291 293 294 294 289 294 293 292 292 292 291 292 293
319 319 319 319 319 319 320 320 320 321 322 323 310 304 298 313 308 310 305 303 303 303 303 305 300 295 295 290 288 288 284 285 290 294 292 291 290 292 292 291 291 290 291 291 291
319 319 319 319 319 319 320 320 320 319 317 316 312 299 302 301 306 309 306 305 301 300 298 297 294 291 289 289 283 284 284 285 286 290 290 289 290 292 292 291 292 291 290 290 291
319 319 319 319 320 320 317 310 306 303 305 300 301 298 301 303 307 305 305 302 300 297 292 293 289 287 291 290 289 288 286 286 289 292 290 289 290 294 293 290 290 290 290 291 292
319 319 319 320 321 321 314 305 304 304 298 306 305 304 304 304 299 303 304 298 296 292 293 290 287 293 294 292 290 288 286 286 289 291 290 290 289 291 291 291 293 294 293 293 292
320 319 319 320 320 318 311 309 312 308 296 300 305 304 304 302 299 301 302 297 293 291 291 289 293 295 293 290 288 287 286 286 288 289 288 287 287 288 291 293 294 294 297 296 294
319 319 319 319 315 315 311 315 312 307 293 295 299 303 301 302 297 303 303 299 294 292 292 290 293 293 291 289 290 285 290 290 288 286 283 287 283 287 289 290 291 295 296 294 291
315 317 319 320 315 312 315 315 314 307 283 296 298 305 301 300 298 297 301 297 292 292 293 289 290 290 289 290 292 288 291 289 287 284 282 281 281 285 288 288 291 296 295 291 291
314 314 316 317 316 315 316 315 312 292 283 292 297 295 295 296 294 296 297 298 296 293 291 290 292 293 292 292 293 292 289 287 285 283 279 284 284 289 286 289 291 295 293 291 290
311 312 312 316 311 317 316 310 292 285 295 290 291 294 293 291 290 292 291 291 290 285 285 288 289 289 291 289 290 289 287 280 278 276 279 282 281 289 291 292 292 293 292 291 289
310 311 312 312 315 317 313 299 284 291 292 294 293 293 291 292 289 289 288 287 289 287 284 284 282 289 291 291 289 286 286 281 274 275 278 282 280 285 290 292 292 291 291 289 287
310 308 309 312 313 314 304 290 288 291 295 292 292 288 288 291 290 287 286 285 289 289 287 283 283 288 288 289 293 285 284 289 282 271 274 281 284 289 290 291 293 288 287 287 286
301 302 303 313 313 308 298 287 291 297 297 295 290 290 287 288 288 287 285 289 289 292 293 288 283 286 287 290 289 288 290 283 282 273 272 279 280 284 289 291 291 289 288 286 286
298 294 303 313 310 299 288 288 294 298 299 295 294 292 292 291 290 287 288 290 291 291 295 290 287 283 286 285 285 286 284 285 287 281 275 273 282 288 290 290 289 290 289 287 286
295 287 302 310 294 295 285 291 297 297 299 298 298 296 295 294 292 290 289 291 294 293 288 292 287 278 283 287 288 287 287 289 284 279 280 279 285 289 290 288 289 290 289 286 286
290 290 300 305 288 288 292 292 294 295 297 296 294 297 297 295 291 293 291 296 295 292 291 294 288 283 285 288 289 286 287 290 288 285 281 279 284 288 288 289 289 289 287 286 285
289 283 290 296 296 292 290 290 290 295 294 297 296 297 295 294 297 293 293 295 295 294 297 297 289 284 285 285 287 284 286 288 289 284 282 285 288 290 288 288 290 288 287 286 284
289 285 288 283 285 290 291 291 290 290 294 295 293 294 294 291 293 293 294 294 294 296 296 295 287 287 289 288 286 285 287 288 287 288 286 289 288 292 295 293 294 290 287 286 284
284 284 288 285 288 287 288 288 288 291 292 290 290 292 294 291 293 290 293 294 293 292 294 295 288 288 288 290 288 287 287 287 289 290 290 291 290 297 294 294 289 291 289 286 286
293 289 288 284 283 283 285 287 286 291 292 293 293 291 290 294 297 297 297 297 296 293 291 289 289 286 285 290 288 283 288 289 288 290 290 286 291 297 293 293 294 291 289 288 288

GFSSW_sfc_thetae_078.txt.gz
Theta_e
321 321 321 321 320 321 321 322 322 323 323 324 325 325 326 325 323 312 301 310 312 325 320 303 300 299 300 297 297 291 287 284 286 288 291 292 292 292 293 294 293 295 295 298 309
320 320 320 320 320 321 321 321 322 322 323 323 324 325 325 324 310 304 318 326 328 323 302 299 296 298 295 295 295 290 285 287 289 289 292 292 292 294 292 292 292 293 295 298 309
319 319 320 320 320 320 321 321 322 322 322 323 323 325 324 318 300 301 325 328 325 316 305 301 299 296 293 296 295 288 286 289 290 293 293 293 291 294 292 290 294 294 296 298 305
320 320 320 319 319 320 321 321 322 322 322 323 324 324 323 309 288 304 325 326 325 308 303 300 297 293 291 293 293 291 291 290 293 294 293 292 293 291 292 294 294 295 297 297 300
320 320 320 320 319 319 320 321 322 322 322 322 324 324 312 295 298 309 322 319 307 303 300 298 295 294 290 292 292 291 290 293 294 294 292 294 293 293 292 293 294 294 297 297 298
320 319 320 319 319 319 320 320 322 322 322 322 324 322 303 292 307 309 308 306 303 300 298 298 296 296 293 291 290 291 292 293 293 293 293 292 291 292 295 293 293 294 295 295 298
320 319 319 319 319 319 320 320 321 321 321 322 324 314 302 298 308 310 306 303 303 301 299 300 298 295 294 291 294 293 290 292 292 292 293 293 291 291 292 292 293 293 293 294 295
320 319 319 319 319 319 320 320 321 321 321 322 324 307 299 308 308 305 304 302 303 303 302 301 300 298 295 295 293 289 288 286 289 292 292 292 288 292 291 292 293 292 291 293 294
319 318 319 319 318 319 319 320 320 320 321 322 308 303 297 312 306 308 304 302 302 301 302 304 299 294 293 290 287 287 283 284 289 292 290 289 288 291 290 291 291 291 291 291 292
319 318 319 319 319 319 319 319 320 318 316 316 311 298 301 299 305 307 303 303 300 299 298 297 293 290 288 288 282 283 283 285 285 289 288 288 289 292 291 291 291 291 290 291 292
319 319 319 319 319 320 316 310 304 301 304 298 297 296 300 303 306 303 303 301 299 296 291 292 288 286 290 289 288 287 284 284 287 291 289 289 288 293 292 290 290 291 291 292 293
319 319 319 319 320 321 312 304 303 302 298 305 304 303 305 303 299 302 303 297 295 291 291 289 286 292 293 291 289 287 285 285 288 290 289 289 289 292 293 291 293 295 294 294 294
320 319 319 319 320 318 313 308 311 307 296 299 304 302 303 301 298 300 301 296 292 290 290 288 291 293 292 289 288 286 285 285 287 288 287 285 285 287 291 292 294 295 297 297 295
319 319 319 319 314 315 311 314 313 306 292 295 297 302 300 300 296 303 301 297 292 291 290 289 292 291 289 288 290 284 289 288 287 285 282 286 281 286 290 291 290 294 295 294 292
315 316 319 320 314 311 315 316 313 305 283 296 297 305 300 298 297 297 300 296 291 291 291 288 289 289 288 289 291 287 289 287 286 283 281 280 280 284 286 287 291 296 295 292 291
312 313 318 317 317 316 317 314 311 292 283 292 296 295 295 295 294 295 297 297 296 292 291 289 291 291 291 290 291 290 288 286 284 283 279 283 284 287 287 289 291 293 292 292 291
311 311 312 316 311 317 316 310 292 285 295 290 290 293 292 291 291 292 292 290 290 286 286 287 288 290 291 288 289 288 286 280 278 276 280 280 281 289 291 291 291 293 292 290 289
310 310 311 313 314 317 312 300 284 290 292 293 292 291 290 290 289 289 288 288 289 286 284 284 282 288 290 291 288 286 286 281 274 275 278 281 279 285 290 292 291 291 290 290 289
308 304 308 311 312 312 304 289 285 288 294 292 292 288 287 290 289 287 286 286 289 288 287 283 284 287 288 288 292 285 283 288 282 270 274 281 284 289 289 290 291 291 289 290 288
298 297 300 312 312 307 295 287 289 297 297 295 291 292 287 288 287 285 285 289 289 290 292 288 283 285 287 289 288 287 289 282 280 272 271 279 280 284 288 291 290 290 289 289 286
295 290 299 312 309 299 286 287 292 298 299 295 293 292 291 289 289 285 287 289 290 290 294 289 287 283 285 284 285 285 284 283 285 280 274 273 282 287 289 290 289 289 289 289 287
292 285 300 308 293 293 285 289 296 297 299 298 298 296 294 293 290 288 287 289 293 292 288 291 286 278 283 285 287 286 286 287 284 278 279 278 284 289 290 289 288 290 289 287 287
286 288 297 304 286 288 291 291 294 294 296 296 295 297 298 295 291 293 291 295 294 292 291 293 288 282 284 286 287 285 286 290 287 285 280 277 285 288 289 289 289 290 288 288 285
286 281 288 296 296 290 289 289 290 295 294 296 295 297 294 292 296 293 294 295 296 295 297 298 289 285 284 284 286 283 285 287 289 284 283 285 289 290 287 289 290 288 288 286 285
288 282 285 281 284 288 290 290 288 288 293 294 293 293 293 290 292 291 294 294 293 295 295 295 287 287 289 287 286 285 286 287 286 288 285 289 287 292 295 295 296 293 289 287 285
286 281 285 283 286 286 285 285 287 289 291 289 290 292 293 289 292 288 293 294 293 293 292 294 287 286 286 287 285 283 285 287 288 289 289 290 288 296 294 295 293 292 291 288 288
293 292 287 282 282 282 282 286 285 289 291 293 292 291 290 292 295 296 296 296 295 293 290 290 288 286 285 288 286 283 288 288 288 290 290 286 291 296 293 293 293 294 292 290 289

GFSSW_sfc_thetae_081.txt.gz
Theta_e
321 321 321 320 320 321 321 321 322 322 322 323 324 325 325 325 323 313 301 310 312 327 321 303 302 301 302 300 299 296 290 287 290 290 293 295 295 296 298 298 299 300 301 303 312
321 320 320 320 320 321 321 321 322 322 322 323 323 324 324 324 310 305 317 326 327 324 302 300 298 299 297 298 297 292 288 289 291 292 293 295 295 296 297 297 297 298 300 303 313
320 320 320 319 319 320 321 321 322 322 322 322 323 324 324 318 298 300 325 328 324 317 305 302 300 299 296 296 295 291 289 291 292 294 295 295 294 296 295 294 297 298 299 302 311
320 320 319 319 319 319 320 321 322 322 322 322 323 324 323 307 287 303 325 326 324 307 303 300 298 295 293 292 295 291 292 292 295 296 295 294 295 294 294 297 298 298 300 301 309
320 320 320 319 319 319 320 320 321 322 322 322 324 324 308 294 297 308 322 319 305 303 300 299 296 295 292 293 294 292 292 294 295 294 293 295 295 295 294 296 298 297 298 300 306
320 319 319 319 319 319 319 320 321 322 321 322 324 321 302 291 306 308 307 305 303 301 299 299 297 297 294 292 292 293 294 294 295 295 295 294 293 294 296 296 296 296 297 298 301
320 319 319 319 319 319 319 320 320 321 321 322 324 312 301 297 308 309 305 302 302 301 300 300 299 297 295 293 295 294 291 293 293 293 294 295 293 293 295 295 295 295 296 296 298
319 319 318 319 319 318 319 320 320 320 321 322 323 306 297 306 307 305 303 302 303 303 302 301 301 299 296 296 294 291 290 287 291 293 293 294 289 294 294 294 295 295 294 295 297
318 318 319 319 318 318 319 319 319 320 322 322 306 301 295 312 305 307 303 301 301 301 301 303 299 295 295 290 288 288 284 285 289 293 292 291 290 293 293 292 293 293 294 294 295
319 318 319 319 319 318 319 319 319 317 316 314 310 295 299 297 305 305 302 303 299 299 298 297 293 290 288 288 282 284 284 285 286 290 290 289 290 293 293 292 293 294 294 294 295
319 319 319 319 319 319 315 309 301 298 302 296 295 293 299 302 306 303 302 300 298 296 291 291 289 287 290 289 287 286 285 285 287 291 290 289 290 293 294 291 292 294 294 295 295
320 319 319 319 320 320 311 303 301 302 297 304 302 302 304 303 298 301 302 297 295 290 290 288 286 292 292 291 289 287 285 285 288 289 290 289 288 291 294 292 295 297 298 296 297
320 319 319 319 319 318 311 307 310 306 297 299 303 302 302 302 298 299 300 295 292 289 289 288 290 292 292 288 288 286 285 285 287 288 288 286 286 288 292 294 296 296 298 300 297
316 317 319 319 314 315 310 313 312 306 291 293 297 301 300 300 295 302 300 297 291 291 289 289 292 291 289 288 290 284 289 288 287 286 282 286 282 287 291 293 293 295 297 295 295
313 314 316 319 314 311 314 315 313 304 282 295 296 303 299 297 296 297 299 296 291 291 291 288 289 288 288 289 291 287 289 287 286 284 283 283 282 286 288 289 293 298 297 295 294
311 312 314 317 316 316 317 315 310 292 283 290 295 295 294 295 293 295 296 297 295 291 290 289 290 291 291 290 291 290 288 286 284 283 279 283 284 286 287 290 292 294 295 294 294
310 310 310 313 311 318 316 309 290 285 294 289 289 292 292 290 291 292 291 290 290 286 286 287 288 290 291 288 289 288 287 281 278 277 280 281 281 289 291 291 292 294 294 293 293
310 310 310 313 315 316 311 300 283 289 291 291 291 290 289 290 289 289 289 288 291 287 284 285 283 288 291 291 288 286 286 281 274 275 279 281 279 286 290 292 292 292 292 292 293
306 300 304 310 312 312 301 286 285 288 294 292 292 287 286 288 287 286 287 289 290 289 288 283 283 287 288 288 292 285 284 287 282 270 275 282 284 289 290 290 292 293 291 291 291
296 294 296 310 312 307 296 286 288 295 298 296 290 292 286 287 287 285 284 289 289 291 292 289 283 285 286 288 288 288 289 283 281 274 272 280 281 285 289 290 291 290 291 291 290
292 286 295 309 305 298 286 288 290 296 299 295 292 292 291 289 289 285 286 289 291 289 295 290 287 282 285 284 284 285 284 283 284 281 276 274 283 287 290 291 291 291 291 291 290
290 280 296 306 291 292 285 289 295 296 300 297 296 293 292 293 290 288 287 289 292 292 289 292 288 280 282 285 286 285 286 286 281 277 279 278 285 290 290 291 291 292 291 290 289
286 286 295 303 284 285 290 290 293 293 296 295 292 295 296 293 288 291 292 295 293 292 291 292 287 282 283 285 286 284 286 290 286 283 280 280 285 288 288 289 290 290 290 289 288
285 279 285 295 294 288 287 288 288 294 293 296 294 296 294 291 294 290 293 296 295 294 297 296 288 287 285 285 286 282 284 287 289 283 284 285 289 289 288 289 291 290 290 289 288
289 281 283 277 281 286 290 288 287 287 293 294 292 293 292 289 290 289 292 294 294 295 296 295 286 288 289 288 287 286 285 287 286 288 285 289 288 292 294 293 295 293 290 289 288
286 282 283 281 285 283 284 284 286 289 291 289 289 291 292 289 290 286 287 291 292 292 292 294 285 288 288 290 287 284 285 287 288 289 289 290 289 297 294 296 294 295 295 290 289
293 292 287 281 280 279 279 283 284 286 287 290 290 289 288 290 293 293 293 293 292 290 289 289 285 285 284 287 285 282 287 286 287 290 289 286 291 297 291 294 295 294 293 293 291

GFSSW_sfc_thetae_084.txt.gz
Theta_e
321 321 321 320 320 321 321 322 322 322 322 323 324 324 325 325 323 319 308 314 317 326 321 311 309 309 310 307 306 304 302 298 299 298 301 302 303 302 305 305 307 310 307 311 322
321 321 321 321 320 321 321 321 322 322 322 322 323 324 325 324 315 310 319 326 327 324 309 308 306 307 306 305 305 304 300 299 301 303 302 302 303 304 303 303 305 306 308 308 321
321 321 321 320 320 320 321 321 322 322 322 322 323 325 324 322 307 307 325 328 325 320 311 309 308 307 303 305 303 300 299 299 300 301 302 302 301 304 303 302 306 307 309 308 320
321 320 320 320 319 319 320 321 321 322 322 322 324 324 323 315 296 310 325 326 325 313 310 307 306 304 302 300 303 299 299 300 300 302 301 301 302 301 303 306 307 309 308 309 316
321 320 320 320 319 319 319 320 321 321 322 322 324 324 315 303 303 314 323 321 312 310 308 306 304 304 300 301 301 300 300 300 301 300 301 301 301 302 302 306 305 304 304 307 312
320 319 319 319 319 319 319 319 321 321 321 322 324 322 309 298 312 314 312 310 309 309 307 307 305 305 302 301 300 301 300 301 301 301 301 300 301 300 304 306 304 303 305 307 309
320 319 319 319 319 319 319 319 320 321 321 322 323 315 307 302 314 316 310 309 309 309 307 307 307 305 304 300 301 300 298 301 302 300 301 301 299 299 305 302 303 304 305 306 307
319 319 319 319 319 319 319 319 320 320 321 322 323 312 301 312 316 310 310 308 309 310 309 308 309 306 304 303 301 298 299 295 299 299 299 301 296 302 303 302 303 305 306 305 306
318 318 319 319 319 318 318 319 319 320 322 322 314 309 299 316 310 312 310 307 308 308 308 307 307 303 302 299 297 297 293 294 296 300 298 299 298 302 301 301 303 305 305 305 305
319 318 319 319 319 318 318 319 320 319 317 316 313 303 305 302 310 309 309 308 306 306 305 305 303 301 300 298 290 293 293 293 294 297 296 297 297 302 303 301 303 306 306 306 305
320 319 319 319 319 319 318 314 307 304 310 301 300 298 302 307 311 307 307 306 305 304 299 299 298 295 297 299 296 294 294 293 296 297 296 297 297 300 303 303 302 304 305 306 306
321 320 319 319 320 320 317 308 305 306 300 307 305 304 306 308 303 306 307 303 302 297 298 296 294 299 299 297 296 294 293 293 296 296 295 296 296 300 301 302 304 305 306 307 308
320 320 319 319 319 318 313 311 314 310 301 302 306 304 305 306 302 304 305 302 299 295 296 294 296 297 296 293 293 293 293 293 292 294 295 294 294 298 301 301 303 305 305 307 307
316 317 319 319 314 315 310 316 316 311 295 296 299 304 303 305 299 306 306 303 298 296 296 296 298 295 294 293 294 291 295 294 292 292 290 294 287 296 299 300 302 303 305 306 306
312 313 315 319 314 310 315 317 317 310 284 299 298 307 302 300 300 300 303 302 297 296 296 294 293 293 293 294 295 293 294 293 293 292 291 292 288 294 296 297 300 304 307 308 307
310 311 312 317 317 318 319 317 312 294 285 295 299 298 296 298 296 299 299 302 300 296 295 295 296 296 296 294 295 294 294 292 292 292 286 292 290 292 296 298 302 305 306 304 303
310 310 310 313 311 318 316 310 291 284 298 292 294 296 296 294 294 296 294 294 293 289 290 292 293 295 295 292 294 294 293 286 286 284 285 289 289 293 299 300 301 303 304 302 303
309 310 310 312 315 318 313 300 283 290 294 296 295 294 293 294 294 294 294 292 296 293 291 288 286 293 296 296 293 291 293 288 284 283 287 286 285 294 300 303 304 301 301 302 303
306 305 305 310 313 314 302 286 285 290 296 294 295 292 292 292 293 292 293 293 296 295 290 288 288 293 292 295 297 290 288 295 289 281 285 290 295 298 299 299 299 300 302 303 302
302 300 300 310 313 309 297 287 289 294 298 297 291 294 291 292 290 291 291 296 295 298 299 294 288 290 291 295 294 294 297 288 290 284 283 288 289 292 295 298 299 300 301 301 300
300 293 298 312 311 300 288 290 292 297 299 294 291 290 291 289 291 290 293 296 296 296 297 295 292 288 291 290 292 291 290 291 292 290 287 285 291 299 300 300 299 301 300 300 299
296 285 301 310 293 295 287 290 295 295 299 298 296 294 292 292 289 288 289 292 295 296 291 296 293 289 289 292 293 296 294 293 289 284 287 287 290 297 299 301 301 301 300 300 297
291 291 300 303 286 287 291 291 295 295 296 295 294 295 295 291 287 290 293 299 296 294 293 295 289 285 287 290 291 289 291 294 294 290 288 287 290 295 296 296 297 298 299 298 296
291 284 290 295 295 289 288 288 289 296 295 296 294 295 293 291 293 288 291 296 295 295 297 296 289 288 287 291 293 287 290 292 292 288 289 289 293 294 294 296 298 297 298 298 296
291 286 288 283 287 290 291 289 287 287 294 295 292 292 291 288 288 289 293 294 297 297 296 293 284 288 291 292 290 290 290 290 290 292 289 292 292 296 298 298 300 301 298 295 295
288 286 287 287 288 287 288 287 287 289 291 290 290 291 293 290 291 288 290 290 290 291 292 293 285 286 285 290 290 288 290 291 290 292 292 293 293 301 302 303 302 302 302 297 296
293 293 290 285 285 284 285 286 287 289 289 292 291 288 288 289 290 290 293 293 293 291 289 288 285 285 284 289 289 284 288 292 291 293 293 289 295 300 299 299 300 301 302 302 302

GFSSW_sfc_thetae_087.txt.gz
Theta_e
321 322 321 321 320 320 321 321 321 322 322 323 323 324 325 325 323 321 311 315 318 325 320 312 312 312 312 310 310 309 302 299 301 301 302 307 306 307 310 308 309 312 311 317 322
321 322 322 321 320 320 321 321 321 321 322 322 323 324 324 324 318 311 317 326 328 325 312 309 307 310 307 307 308 306 302 302 305 305 303 306 306 307 305 306 307 309 312 313 323
322 321 321 321 320 320 320 321 321 321 322 322 323 324 324 323 310 309 323 327 325 319 313 311 310 308 305 307 305 304 300 303 302 304 305 305 304 307 305 304 307 307 310 311 321
321 321 321 320 320 320 320 320 320 321 321 322 323 324 323 318 297 312 325 326 325 315 312 309 308 305 303 302 305 299 302 302 302 303 303 303 306 304 305 307 310 311 312 312 317
321 321 321 320 319 319 319 319 320 321 321 322 324 324 318 306 305 315 322 320 314 312 310 308 305 305 302 303 303 301 302 302 303 302 303 303 303 304 305 309 311 309 309 311 312
320 320 320 320 319 319 319 319 320 321 321 322 324 322 311 300 314 316 313 312 312 311 309 309 306 307 304 303 302 304 303 303 304 303 303 301 302 302 305 308 308 308 307 309 310
320 319 319 319 319 319 319 319 320 320 321 322 323 318 307 304 316 317 313 311 312 311 308 310 310 307 306 302 304 303 300 302 303 303 302 303 300 300 306 307 306 307 307 309 310
320 319 319 319 319 319 318 319 320 320 321 322 323 315 303 314 318 313 313 310 312 312 311 311 311 308 306 306 303 300 300 296 302 302 302 302 296 304 307 307 305 306 307 308 309
319 318 319 319 319 318 318 319 319 320 322 322 315 311 301 316 310 314 313 309 310 310 310 310 310 306 304 300 298 300 294 296 298 302 301 300 298 304 305 304 304 307 308 309 309
319 318 319 319 319 318 318 319 320 320 318 317 314 304 306 302 312 311 312 311 308 308 306 306 305 301 301 298 291 294 295 296 296 299 299 299 298 303 305 305 305 306 307 308 310
319 319 319 319 319 319 317 316 308 306 310 303 303 300 303 310 313 309 310 308 308 306 300 304 298 295 298 300 299 297 296 295 298 300 297 297 298 301 304 304 304 305 306 307 309
320 319 319 319 320 319 318 307 306 309 299 307 306 305 308 310 304 307 309 303 303 298 302 299 295 300 301 300 298 297 294 294 298 300 297 297 297 301 303 304 305 305 306 308 309
320 320 319 319 319 317 312 309 317 314 300 301 306 304 305 308 302 305 306 304 300 298 298 295 297 300 299 297 295 295 294 294 294 298 299 296 295 298 303 305 306 307 308 309 309
316 319 319 319 313 315 312 316 318 315 296 297 299 304 305 305 299 309 308 304 300 296 298 297 300 297 296 295 296 291 298 296 294 293 289 296 288 296 299 301 304 306 307 308 309
312 313 315 319 315 310 316 318 319 313 285 300 300 309 305 299 301 302 308 304 298 297 298 295 296 295 294 295 298 294 297 296 295 293 293 293 289 294 299 298 301 304 308 310 312
310 310 312 316 317 317 319 318 315 295 285 296 300 300 298 299 298 300 300 304 302 299 298 297 298 299 298 297 298 298 296 295 295 293 286 292 291 292 296 299 302 305 308 309 309
309 310 310 314 311 319 317 310 291 285 299 294 295 298 297 295 296 298 295 295 293 289 290 294 295 297 298 294 296 296 293 286 286 285 285 293 292 294 300 302 304 305 308 305 306
308 309 310 312 316 319 312 297 283 293 296 299 298 298 294 296 296 296 294 292 296 295 292 289 287 294 297 296 293 293 293 288 284 284 288 289 287 293 302 304 305 306 307 306 306
306 307 305 310 312 315 304 285 286 292 299 297 297 294 293 295 295 294 294 293 296 297 290 290 290 297 296 298 298 292 289 296 289 288 285 289 294 299 302 302 303 304 304 305 307
301 300 301 310 312 309 297 290 289 296 299 298 292 296 293 294 292 292 293 298 296 299 300 295 289 294 294 296 297 295 298 288 290 284 282 287 291 292 298 299 302 303 304 306 305
299 292 301 311 313 300 289 290 292 298 300 295 293 291 292 292 294 291 294 298 299 298 300 296 293 289 293 291 292 292 291 293 293 291 286 284 290 301 301 304 303 304 305 305 304
297 286 305 311 295 296 288 293 295 296 300 297 297 294 291 293 292 292 291 296 299 297 293 297 293 288 290 296 298 297 293 293 289 287 290 289 290 302 303 304 305 304 304 304 303
292 292 302 304 288 291 294 292 295 295 295 296 294 296 297 293 288 291 292 299 300 298 294 296 288 285 288 293 294 290 294 296 295 292 289 287 290 299 300 300 303 304 303 302 301
293 284 293 294 297 292 290 289 291 298 297 298 295 296 293 292 294 291 292 297 298 298 297 296 287 287 286 290 292 288 291 294 292 288 289 290 294 299 300 299 301 301 301 302 301
293 287 290 285 288 291 291 289 288 289 295 297 294 294 292 288 290 290 293 294 298 298 297 293 284 288 290 292 291 289 289 292 290 292 288 292 294 298 301 302 303 304 304 301 300
288 288 290 288 289 289 289 288 287 290 291 290 290 292 293 289 290 289 292 292 292 292 292 292 285 286 285 290 291 287 288 290 291 293 293 295 294 302 303 303 303 304 302 299 299
293 294 291 287 286 286 287 288 288 291 293 294 293 291 290 291 292 291 292 293 293 292 290 287 285 285 282 288 286 282 288 289 291 294 293 289 296 300 299 300 302 303 304 303 304

GFSSW_sfc_thetae_090.txt.gz
Theta_e
321 321 322 322 321 321 321 321 321 321 322 322 323 324 325 325 324 321 311 316 319 325 321 311 310 310 310 309 310 307 297 294 296 297 297 303 300 301 302 302 302 307 304 311 318
321 321 322 322 321 321 321 321 321 321 322 322 323 324 325 325 318 312 320 324 324 326 311 307 305 307 303 305 305 301 297 297 299 299 297 301 300 301 298 299 300 302 306 312 318
321 322 322 321 321 321 320 320 320 321 322 322 323 324 325 322 312 310 323 324 324 320 313 310 308 306 302 303 301 299 297 299 299 301 301 301 299 302 299 297 301 302 305 309 316
323 322 322 321 320 320 320 320 320 321 321 322 323 324 323 318 299 313 324 324 322 314 311 308 305 302 299 298 302 295 299 299 301 301 300 298 301 299 300 300 303 302 305 307 314
321 321 321 321 320 320 319 319 320 321 321 322 323 324 318 308 306 315 322 320 314 312 308 306 302 302 298 299 301 297 298 299 300 299 299 301 298 298 299 302 304 304 305 305 311
321 320 320 320 319 319 319 319 319 320 321 322 323 322 312 300 315 316 313 313 312 310 307 307 304 305 301 299 298 300 300 299 300 300 300 297 297 297 298 302 302 303 302 302 306
320 319 319 319 319 319 318 318 319 320 321 321 323 319 308 305 315 315 312 311 311 310 307 309 308 304 303 299 302 300 295 298 298 299 298 299 295 296 300 301 301 300 301 302 303
319 319 319 319 319 319 318 318 320 320 321 322 323 316 303 315 316 313 312 310 311 311 311 310 308 307 304 303 300 295 294 289 297 299 298 296 289 298 299 299 299 299 299 301 303
319 318 318 319 319 319 318 318 319 320 321 322 316 311 301 316 309 313 311 308 309 309 309 309 309 303 301 294 291 294 287 290 294 299 297 295 291 298 299 297 298 298 300 301 301
319 318 318 319 318 318 318 318 320 319 319 317 313 304 304 303 311 311 311 311 307 306 305 304 301 295 295 291 285 288 289 291 289 295 295 293 293 298 299 299 298 299 300 301 302
319 318 319 319 319 319 316 315 308 306 309 302 302 300 304 310 313 308 309 307 307 303 296 300 293 290 293 295 295 293 290 289 292 297 294 293 293 295 297 297 297 297 298 300 301
319 319 319 319 320 319 316 306 307 310 299 305 304 305 308 309 304 306 308 301 300 295 298 295 291 297 298 297 294 293 289 289 292 295 293 292 292 296 297 297 299 300 300 301 300
319 319 319 319 319 316 310 309 317 314 299 301 305 302 304 307 302 303 304 301 297 294 295 292 295 299 296 293 293 291 289 289 289 293 293 290 289 292 297 298 300 301 302 303 302
319 319 319 319 313 314 309 314 317 315 293 295 299 303 305 305 298 308 306 302 297 293 295 294 298 295 293 292 293 288 293 292 291 288 283 291 281 289 294 295 297 300 300 300 301
312 314 319 318 313 311 315 316 317 310 282 298 299 309 305 298 300 302 305 301 295 295 295 291 292 292 291 293 295 291 294 292 291 287 287 286 283 287 293 291 295 298 299 300 302
309 310 313 316 316 317 318 317 313 293 282 295 299 298 297 298 298 299 299 302 300 296 295 293 296 295 294 294 295 296 293 291 290 288 280 286 285 284 289 292 295 297 298 301 302
307 307 309 314 310 318 317 309 290 284 298 293 294 297 295 294 295 296 294 293 290 287 287 292 292 294 295 291 294 292 289 280 280 278 279 288 284 287 293 295 295 297 298 299 299
307 307 309 311 316 317 311 298 282 292 294 299 298 296 292 294 294 294 292 290 293 291 288 285 283 291 294 293 290 289 289 281 275 278 280 284 281 287 295 297 298 300 298 300 299
306 305 305 311 312 313 303 284 285 291 298 296 297 292 291 294 293 292 291 290 293 293 287 286 286 294 294 294 295 289 286 291 284 277 277 283 288 293 296 296 298 298 299 299 299
299 299 300 312 312 308 297 288 290 296 298 299 291 294 289 291 291 291 290 294 293 296 297 290 285 291 291 294 293 291 293 284 285 276 275 280 282 286 292 294 296 297 298 299 299
299 291 302 312 309 299 286 290 294 298 300 296 294 293 293 292 292 290 292 293 296 295 297 292 289 285 289 288 288 288 287 289 288 284 277 277 282 292 293 295 295 297 298 298 298
296 284 304 310 294 295 286 292 296 296 301 297 297 294 292 293 292 291 291 294 297 297 292 295 291 282 286 292 293 291 290 290 283 281 282 282 285 294 297 298 298 298 299 297 297
290 290 302 304 286 289 293 292 294 295 296 296 294 295 296 292 288 291 293 298 298 296 294 295 288 280 284 290 291 288 290 292 291 287 283 280 285 295 296 296 297 297 296 297 296
292 283 291 295 294 290 291 290 291 297 297 298 296 297 294 292 294 291 292 297 298 298 297 297 288 286 284 288 290 286 289 292 291 285 285 285 289 294 295 296 295 296 295 297 296
291 286 289 283 285 289 290 290 288 289 296 298 294 294 293 289 290 290 293 294 297 297 296 293 285 287 288 290 290 287 288 290 289 289 286 288 290 294 296 297 299 299 297 297 296
287 287 289 286 288 287 288 286 287 290 292 291 291 293 294 289 290 288 292 292 292 293 294 292 285 286 284 288 288 286 288 289 289 290 290 290 289 297 298 298 299 301 302 299 297
293 293 290 286 284 284 285 286 287 289 292 293 292 291 291 292 292 292 292 292 293 291 289 287 285 283 278 285 283 280 283 285 288 291 292 288 293 297 296 297 299 300 300 298 298

GFSSW_sfc_thetae_093.txt.gz
Theta_e
320 320 320 322 322 322 321 321 321 321 321 322 323 324 325 325 324 319 310 315 316 322 319 306 306 305 305 303 304 301 292 289 291 292 293 298 297 299 300 301 300 303 306 309 316
321 321 321 322 321 321 321 321 320 321 321 322 322 324 325 324 316 311 322 326 325 323 307 303 301 303 298 299 300 296 291 292 294 293 293 297 297 297 296 297 297 301 305 313 319
323 321 322 322 321 321 321 320 320 321 321 322 322 323 324 321 310 308 324 326 323 319 309 307 304 302 297 298 296 295 292 294 295 297 298 297 295 299 297 294 298 300 303 313 315
322 322 322 322 321 321 321 320 320 320 321 322 322 323 323 315 293 311 324 324 322 311 308 304 301 297 295 294 298 292 296 295 299 299 297 295 298 296 297 298 301 300 304 311 312
321 321 321 321 321 320 320 319 319 320 321 322 323 323 313 303 304 313 322 319 311 309 305 302 298 297 294 295 297 293 294 296 297 297 295 298 295 295 296 299 300 301 304 309 313
320 320 320 320 320 320 319 319 319 320 321 321 323 322 305 295 311 313 311 309 309 306 303 303 300 301 297 296 294 296 296 296 296 297 296 294 293 294 296 298 298 300 301 303 309
320 320 319 320 320 319 319 318 319 320 320 321 323 318 304 300 310 310 309 307 307 306 304 304 303 299 298 295 298 297 292 294 295 296 295 296 291 294 297 297 297 297 298 300 304
319 319 319 319 319 319 319 318 319 320 320 321 323 311 298 311 309 309 308 305 306 306 306 305 304 302 300 299 296 291 290 286 292 296 296 294 286 294 297 295 296 296 295 297 299
319 318 318 319 319 319 319 318 318 319 320 322 311 305 297 314 307 309 306 304 305 305 304 307 304 298 297 291 287 288 283 286 290 295 295 293 288 296 297 296 296 294 296 297 297
319 318 318 319 319 318 318 317 319 318 319 317 312 297 300 300 307 307 305 306 303 302 300 299 296 291 290 286 281 284 284 287 286 293 292 290 290 294 296 296 295 295 296 297 298
319 319 318 319 319 319 315 310 302 299 306 297 297 296 302 307 309 304 305 303 302 298 291 294 289 286 289 290 290 288 286 285 289 294 292 290 290 293 295 294 293 294 294 296 298
319 319 318 319 319 319 313 304 302 303 296 304 303 302 306 307 301 303 305 297 296 291 293 291 287 292 294 292 291 289 286 285 290 292 290 289 290 292 294 295 297 297 295 296 295
319 318 318 319 319 314 309 307 313 309 294 298 302 300 302 305 299 300 301 298 293 291 291 288 292 296 294 291 290 287 286 286 287 289 289 288 285 289 292 294 296 297 298 298 297
312 318 318 319 313 310 306 312 313 311 287 291 297 300 303 302 296 305 303 298 294 291 290 290 295 293 290 289 291 286 290 290 288 285 281 287 279 286 291 292 293 295 297 297 296
309 312 317 318 312 307 312 313 313 306 278 295 297 307 303 294 298 299 302 298 292 292 292 289 291 290 290 290 292 288 291 289 288 285 284 283 281 284 289 289 292 294 294 295 297
307 308 310 316 315 315 315 315 310 291 276 293 298 296 295 297 296 298 298 299 297 292 291 291 293 292 291 292 292 293 291 290 287 285 278 283 282 281 286 289 291 294 294 298 298
306 306 307 310 310 317 316 307 289 281 293 291 291 295 293 292 293 294 292 292 288 285 285 289 290 292 294 290 292 291 286 278 278 277 277 283 281 283 290 293 294 294 296 298 298
305 306 305 306 310 317 311 295 282 288 290 296 295 293 290 292 291 292 290 288 290 288 286 285 282 290 293 291 289 288 286 279 273 276 278 282 280 287 292 296 297 298 295 297 297
304 303 303 306 311 312 303 285 286 290 293 294 294 288 288 291 290 289 288 287 291 291 284 283 284 291 291 292 293 287 285 288 282 273 275 280 284 289 292 294 296 296 296 296 295
296 297 298 311 311 307 297 286 289 296 298 297 289 291 286 289 288 288 287 290 291 294 292 287 283 288 289 292 291 290 292 283 283 274 273 278 279 284 289 291 293 294 294 294 295
295 288 299 311 308 298 286 288 292 298 300 296 294 292 292 289 289 287 288 291 293 292 295 290 287 284 288 286 286 287 285 287 287 283 276 274 279 288 289 293 293 294 295 296 294
292 281 301 308 292 293 285 291 296 296 300 297 297 294 294 292 289 287 289 291 294 294 290 293 288 279 284 289 291 288 288 288 281 278 280 280 283 292 294 294 295 295 296 294 294
287 287 299 301 284 287 292 293 295 295 297 295 294 296 296 292 288 292 293 296 297 295 292 293 285 275 282 287 289 287 289 290 289 284 282 278 283 292 293 294 296 296 296 295 296
289 281 287 294 291 288 290 291 291 296 295 298 295 296 293 291 293 289 292 297 297 297 297 297 289 283 281 286 289 284 287 291 289 281 283 284 287 291 293 293 295 295 296 295 295
289 284 286 279 283 287 288 291 290 289 296 298 294 293 292 289 290 290 293 294 297 297 295 293 286 288 289 290 291 288 287 289 288 288 284 287 288 291 293 295 295 297 298 297 297
286 282 286 282 285 284 286 285 288 290 292 291 292 293 294 290 291 288 292 292 291 293 292 292 284 285 284 288 288 285 287 288 289 290 291 290 289 297 297 296 294 297 297 295 294
292 293 289 283 281 282 282 284 286 289 292 294 293 293 292 293 293 293 294 293 294 292 289 288 285 284 278 285 284 280 284 287 288 289 291 286 290 293 291 293 292 291 292 292 293

GFSSW_sfc_thetae_096.txt.gz
Theta_e
320 320 320 321 322 322 322 321 321 320 321 321 322 324 324 325 324 317 306 314 314 324 319 305 304 303 302 301 302 298 291 288 291 290 292 296 295 296 298 300 299 301 304 307 317
320 320 319 321 322 322 321 321 320 320 320 321 321 323 324 324 314 309 322 328 326 322 305 302 300 302 297 298 299 294 289 291 292 292 293 296 295 297 296 296 296 300 306 311 319
319 320 320 322 322 321 321 321 320 320 320 321 321 323 323 321 308 306 324 327 325 318 307 305 302 301 295 297 294 294 292 295 293 295 296 296 294 296 296 292 297 300 306 312 317
320 320 320 322 322 321 321 321 320 320 320 321 322 323 322 314 291 309 323 325 323 310 307 302 299 296 293 293 296 291 294 294 297 297 296 294 296 293 295 297 299 300 309 312 316
320 320 320 322 321 321 321 320 319 320 320 321 322 322 313 301 301 312 322 320 308 307 303 300 297 296 292 294 295 292 293 294 296 296 294 296 293 294 295 298 297 299 308 310 315
320 320 320 321 321 320 320 319 319 319 320 320 322 322 303 293 310 313 310 308 307 305 302 301 298 299 295 294 294 295 295 294 295 295 295 292 290 292 294 294 297 299 300 308 312
319 319 319 320 320 320 319 319 319 319 319 320 322 317 303 297 309 309 308 306 306 305 302 303 302 297 296 295 297 296 291 292 293 294 294 294 290 293 293 295 295 294 297 300 308
319 319 319 319 320 319 319 318 318 319 319 320 322 310 293 309 308 307 306 304 305 305 305 304 303 301 298 297 295 291 289 285 289 294 294 291 286 291 293 293 294 294 293 295 299
319 318 318 319 319 319 319 319 318 318 320 321 309 302 294 313 306 308 304 303 304 303 303 306 303 297 296 290 287 288 282 284 289 294 293 291 287 293 295 293 294 293 294 294 294
318 318 318 319 318 318 318 317 318 317 317 317 311 297 298 298 304 306 304 305 301 300 299 298 294 291 288 285 280 283 283 285 284 291 290 289 289 293 294 293 293 293 293 294 295
319 318 318 318 319 319 314 309 300 296 303 294 295 295 300 305 307 302 304 302 300 296 289 293 288 285 288 288 286 286 285 285 286 292 291 290 289 291 293 292 293 293 293 294 295
319 319 319 319 319 319 312 304 299 299 293 302 302 300 304 305 300 301 303 297 294 289 291 289 284 290 291 290 288 286 285 284 288 290 290 288 288 291 292 293 295 295 294 294 293
319 318 318 319 319 316 308 308 312 308 292 296 300 299 301 303 297 298 300 296 291 289 289 286 289 293 292 289 288 286 285 285 286 287 287 286 284 287 290 291 294 295 296 297 295
313 316 318 318 313 310 306 312 312 309 287 290 296 298 301 301 294 303 301 297 291 289 290 289 293 291 289 288 289 284 289 289 287 284 280 285 278 283 288 290 291 294 295 292 293
310 311 318 318 311 307 308 312 311 304 277 293 296 305 301 294 296 297 300 297 291 290 290 287 289 290 287 288 290 287 290 287 286 283 281 281 280 283 285 286 290 292 293 293 293
307 309 309 315 314 312 314 312 308 289 275 291 296 295 294 295 295 297 297 298 296 291 289 288 292 291 291 290 291 292 289 287 285 282 277 281 281 279 284 288 288 292 293 296 298
306 306 308 311 309 316 314 306 286 280 290 289 290 294 292 291 292 293 292 291 288 285 284 287 288 290 292 289 290 288 284 277 276 276 276 280 279 282 287 290 291 294 294 296 297
304 305 306 306 308 310 310 294 280 286 287 294 293 292 288 292 291 291 289 288 290 286 285 284 282 289 292 290 288 286 284 278 272 274 276 281 279 285 290 293 294 295 296 295 294
305 303 303 306 309 309 299 284 284 287 291 292 292 288 288 290 289 288 288 288 291 289 285 283 283 290 290 291 292 287 283 286 280 270 274 279 283 288 290 292 292 292 293 291 295
295 296 298 308 310 305 291 286 289 295 297 294 287 289 285 287 287 288 287 290 290 292 290 287 281 287 289 292 290 288 291 283 281 272 271 278 278 282 288 289 292 293 294 294 296
294 289 298 310 306 297 285 286 291 297 299 295 291 289 289 288 288 287 287 289 292 292 294 290 285 283 287 286 285 286 285 285 285 281 277 274 279 286 288 293 292 293 293 293 294
291 280 300 307 291 288 285 290 296 296 300 297 296 294 291 290 288 287 287 289 293 293 289 290 286 279 283 288 288 287 286 286 280 277 279 279 281 291 293 293 294 293 293 293 293
286 286 297 302 285 286 290 291 295 295 296 296 294 296 296 292 288 290 291 295 296 293 291 292 284 274 281 285 288 285 287 289 286 282 280 277 280 291 291 293 294 294 293 293 295
287 281 286 294 292 289 289 289 290 296 296 298 296 296 293 291 293 290 292 295 296 296 297 296 286 283 280 283 287 284 286 287 287 279 281 283 284 289 289 291 293 295 295 295 294
288 283 285 279 283 288 290 291 289 289 295 298 293 294 292 288 289 288 292 294 296 297 294 293 285 286 288 289 289 286 286 288 286 287 283 286 286 288 291 293 293 293 294 293 292
283 283 286 283 284 285 287 285 289 291 292 291 291 292 294 290 291 288 292 292 291 293 293 292 285 286 284 288 288 285 289 287 287 288 288 287 288 294 292 292 290 291 291 290 291
288 291 288 283 281 281 281 284 286 291 292 294 293 292 291 293 294 293 297 296 294 292 290 289 285 284 280 285 284 281 285 288 287 289 290 286 290 291 287 289 288 289 289 290 291

GFSSW_sfc_thetae_099.txt.gz
Theta_e
320 320 320 320 322 322 322 322 321 320 320 320 321 323 323 325 323 315 305 311 313 325 319 303 303 302 301 301 300 297 291 288 289 290 291 294 294 295 297 298 299 300 305 306 321
321 320 320 320 322 322 322 321 321 320 320 320 320 322 323 323 312 307 319 329 328 324 303 301 299 301 297 297 298 294 290 291 292 291 292 295 294 297 297 296 299 300 307 310 320
321 320 319 319 322 321 321 321 320 320 319 320 320 322 322 320 307 302 326 327 326 319 305 303 301 300 295 295 293 293 291 293 293 293 295 296 293 295 294 294 297 299 304 311 317
321 321 320 319 322 321 321 321 320 319 319 319 321 322 322 313 289 308 325 327 323 308 305 302 299 295 293 292 295 290 293 293 296 296 294 294 295 293 294 296 297 300 307 312 319
320 320 320 319 322 321 321 320 319 319 319 320 321 322 312 299 299 311 322 320 307 306 302 299 297 295 292 292 294 291 292 293 294 295 292 295 292 293 293 297 296 297 308 311 319
319 319 319 320 321 321 320 320 319 319 319 319 321 322 302 292 309 312 310 308 306 304 301 300 298 298 294 293 292 294 293 293 293 292 293 292 289 291 291 293 294 297 305 309 314
319 319 319 320 320 320 320 319 318 318 318 319 321 316 301 296 308 310 308 305 306 304 301 302 301 297 296 293 295 294 290 290 292 292 292 293 289 292 291 293 292 293 296 303 307
319 319 319 319 320 320 319 318 318 318 318 319 321 308 293 308 306 306 306 304 305 305 304 303 303 301 296 296 294 290 288 283 288 292 292 290 286 291 291 291 293 292 291 294 298
318 318 318 319 319 319 319 318 318 317 319 320 307 299 292 312 305 307 304 303 303 303 303 306 301 296 294 289 286 287 281 283 288 292 291 289 287 291 293 291 293 292 293 293 293
318 318 318 319 318 318 318 317 318 316 316 316 310 296 297 297 303 305 303 304 301 300 299 298 293 290 287 285 280 282 283 283 283 290 289 287 289 292 292 291 292 292 292 292 293
318 318 318 318 318 318 314 306 297 295 303 294 296 294 297 304 305 301 303 301 299 294 290 292 288 285 288 288 285 285 284 284 285 290 289 289 289 291 293 291 292 292 292 292 293
318 318 318 318 319 319 309 300 297 298 292 302 301 299 303 303 298 299 302 296 293 288 290 289 284 289 290 288 287 285 284 283 286 289 289 287 288 289 291 292 293 294 293 293 292
318 318 318 318 319 314 307 306 311 307 291 294 300 298 300 302 295 297 300 295 289 288 287 285 287 291 289 286 286 284 283 283 285 286 285 284 283 285 288 289 291 293 294 294 293
314 318 318 318 312 310 307 311 311 308 286 289 295 296 301 301 294 301 300 296 290 287 288 287 290 289 287 286 287 282 288 287 286 284 280 283 277 282 286 288 289 292 291 291 291
310 316 318 317 309 306 308 312 310 303 275 291 295 303 300 294 295 296 299 295 290 288 289 286 288 287 286 287 289 286 288 286 285 281 281 280 279 281 283 285 289 290 291 291 292
307 309 315 315 312 311 311 311 307 287 274 288 295 293 293 293 294 296 295 296 294 289 288 287 290 290 290 289 289 290 287 285 283 281 277 280 280 279 282 286 286 290 292 295 296
306 307 309 310 308 313 313 304 286 279 289 287 289 292 291 290 291 292 291 289 287 283 283 286 287 290 291 288 289 286 284 277 275 275 276 279 278 281 286 288 288 290 292 292 292
305 305 306 307 310 313 307 293 279 284 285 292 291 290 287 291 290 291 288 287 289 285 283 282 281 288 290 288 286 284 284 278 271 273 276 280 279 283 288 291 291 291 291 291 292
304 302 301 306 309 309 298 283 282 284 290 291 290 286 285 289 288 288 287 288 291 287 284 282 282 289 289 290 292 285 282 285 279 269 273 278 281 287 288 289 292 293 294 292 293
293 293 297 307 309 305 292 286 286 292 293 293 286 288 283 286 286 287 286 289 289 291 288 287 281 286 288 290 289 288 289 282 279 270 270 276 278 281 285 290 291 291 291 292 292
291 286 296 307 306 293 284 285 290 294 296 292 289 288 287 286 286 287 287 288 292 290 292 287 285 283 287 285 285 285 285 284 285 280 275 272 278 285 289 291 291 290 290 291 292
288 278 299 306 290 286 284 288 294 295 298 297 293 292 289 289 287 286 285 287 292 293 289 290 285 279 283 286 287 288 286 285 281 276 277 279 279 289 292 292 292 292 292 293 291
283 284 295 301 285 285 287 288 293 295 296 295 294 295 295 290 286 288 288 293 295 292 290 290 284 274 280 284 285 284 285 286 284 282 279 276 279 289 290 291 292 292 292 292 292
286 279 284 293 293 288 287 288 288 297 296 296 295 296 293 291 293 289 290 294 295 295 297 295 285 284 280 281 286 283 285 287 288 281 281 283 282 287 287 291 291 291 291 290 290
287 282 282 280 284 287 289 289 288 287 293 297 293 292 292 288 290 289 292 293 295 296 295 292 282 284 285 287 285 284 285 287 286 287 283 286 285 289 289 290 291 290 290 290 290
281 283 285 281 284 284 287 286 288 289 290 289 288 291 294 289 290 287 292 291 291 293 292 292 285 284 285 289 288 284 286 287 287 287 287 286 285 291 291 289 288 289 289 289 289
285 291 287 282 280 281 283 284 286 291 293 294 292 292 287 292 295 295 296 296 294 292 290 289 286 285 283 285 285 283 287 287 286 286 288 285 289 289 286 287 286 287 288 288 289

GFSSW_sfc_thetae_102.txt.gz
Theta_e
321 321 320 321 322 322 322 322 321 321 320 320 320 322 322 323 323 313 303 309 313 326 317 303 303 301 301 299 299 295 290 287 288 289 290 292 294 293 296 296 298 299 301 305 321
321 320 320 320 320 322 321 321 320 320 319 320 319 320 322 322 309 304 318 328 328 324 302 300 298 300 297 296 296 294 290 290 292 290 291 294 293 296 296 296 298 300 304 311 322
322 321 320 319 319 321 321 321 320 319 319 319 319 320 322 317 304 300 325 326 325 318 304 302 301 299 294 294 293 292 291 293 291 292 295 295 292 295 294 294 296 298 301 312 317
321 321 320 318 319 321 321 321 319 318 319 319 320 321 321 310 287 305 323 324 321 308 304 300 297 293 292 292 294 290 292 293 295 294 294 293 295 293 294 296 295 298 303 312 318
320 320 320 320 321 321 321 320 319 318 318 319 320 321 311 296 298 309 322 318 306 305 301 299 296 294 292 293 292 290 290 292 294 293 291 293 291 292 293 296 295 296 306 311 319
320 319 319 319 321 321 321 320 319 318 318 318 321 321 301 290 306 311 309 307 305 302 300 298 297 297 293 292 291 293 292 291 292 291 292 290 288 290 292 291 293 296 301 308 315
319 319 319 319 320 321 320 319 318 318 317 318 320 314 299 294 306 308 307 305 305 303 300 301 299 296 295 292 295 293 289 289 291 291 291 292 289 291 290 291 291 293 295 303 308
319 318 318 319 320 320 319 318 317 317 317 318 320 305 293 304 305 305 304 303 304 304 303 302 301 299 295 294 293 288 287 284 287 291 291 289 285 289 291 290 292 291 290 292 298
318 317 318 319 319 319 319 318 317 317 318 319 304 296 290 310 303 305 304 302 303 302 302 304 299 295 293 289 286 286 280 282 287 291 290 288 285 290 291 292 292 292 292 292 292
317 317 318 319 319 319 319 316 317 315 315 314 308 294 295 296 303 304 302 303 300 300 298 297 293 289 287 286 280 282 282 283 282 287 289 287 288 291 292 291 291 291 291 291 292
318 318 318 318 319 318 314 305 296 294 299 293 295 292 295 303 304 300 302 300 298 295 290 292 288 285 287 288 285 286 283 282 284 288 288 287 287 290 291 290 291 291 292 292 293
318 318 318 318 319 318 308 296 295 296 292 300 298 298 301 303 297 298 301 295 293 288 290 289 285 289 290 288 287 285 283 282 285 288 288 285 287 289 290 291 292 293 292 292 291
318 318 318 318 318 311 305 304 310 305 290 293 299 297 299 302 295 297 299 294 289 287 287 285 287 290 289 286 285 282 283 282 283 284 285 283 283 284 287 288 290 292 292 292 292
314 317 318 318 310 309 305 310 310 306 284 287 292 295 300 300 294 299 299 296 288 287 287 286 288 288 286 284 286 282 287 286 284 283 279 282 276 281 284 287 288 291 290 289 289
310 314 318 316 307 304 307 311 309 299 274 289 292 301 299 295 294 295 297 295 289 288 288 285 287 286 285 286 287 284 287 286 283 281 280 279 278 281 282 285 288 288 289 291 294
308 310 317 313 311 309 311 310 305 287 273 286 293 291 292 292 292 295 294 295 293 289 286 285 289 289 288 287 288 289 286 284 282 280 276 280 280 279 281 285 285 288 288 291 291
306 307 309 311 307 312 311 302 285 278 287 285 288 290 290 289 290 291 290 288 286 282 281 285 286 289 290 287 288 284 283 277 275 274 276 278 278 280 285 286 285 286 290 290 290
305 305 306 308 311 312 306 292 279 284 285 291 290 289 287 289 290 290 288 287 288 284 282 280 279 287 289 287 285 283 283 278 271 272 275 280 277 283 286 288 289 291 290 291 291
303 298 301 306 310 310 297 283 282 284 290 290 289 285 285 288 287 288 287 288 290 287 283 280 280 287 288 289 290 284 281 284 277 267 272 277 281 286 287 290 290 291 291 290 289
294 291 294 307 309 304 290 285 285 290 292 292 285 286 283 285 286 286 285 289 288 289 287 286 280 285 287 289 289 286 288 280 278 269 269 276 277 280 284 288 289 289 289 290 290
290 284 293 308 306 292 284 286 288 293 295 291 288 286 285 285 287 287 286 288 291 289 290 286 284 282 286 285 284 284 282 282 283 279 274 271 277 283 286 289 289 289 290 289 289
286 279 299 306 290 286 284 288 294 293 296 295 293 291 287 288 287 286 286 287 291 291 288 288 284 280 283 286 287 285 285 284 281 276 276 278 278 287 289 291 291 290 291 290 290
282 282 296 301 284 285 288 289 293 292 294 295 293 294 294 289 285 288 287 291 291 291 290 289 282 272 279 284 284 283 283 285 283 282 278 275 279 288 289 290 290 290 290 289 290
283 277 284 294 293 288 286 288 288 295 294 296 294 296 293 291 291 287 288 293 295 292 296 294 285 284 280 281 284 283 284 285 286 279 282 281 282 286 288 289 289 288 288 288 289
282 280 281 281 285 288 288 287 286 287 293 295 292 292 292 289 289 289 291 293 294 296 294 291 283 284 284 284 285 284 285 285 285 287 282 285 284 289 290 290 290 288 288 289 289
280 280 284 280 281 283 287 284 286 288 289 287 288 291 292 286 291 288 290 291 291 292 292 291 279 282 280 286 285 281 284 286 287 288 287 283 282 287 289 289 287 288 288 288 288
283 288 287 283 279 279 281 283 285 290 292 292 289 288 286 289 293 295 296 295 294 292 290 289 285 281 280 284 285 282 284 285 287 288 287 283 288 288 286 288 287 286 287 287 288

GFSSW_sfc_thetae_105.txt.gz
Theta_e
322 322 323 322 322 322 322 322 321 321 319 320 320 321 322 323 322 313 302 308 313 327 315 304 304 303 303 302 302 299 292 290 292 292 294 295 297 298 300 300 301 306 304 309 324
322 322 321 321 321 322 322 322 321 320 319 319 319 320 321 322 308 303 316 323 326 326 303 301 300 301 298 299 299 296 291 292 295 294 294 295 296 298 298 298 299 302 306 318 326
322 322 320 321 320 322 322 322 321 320 319 319 319 320 321 317 302 300 325 327 328 319 304 302 301 300 296 298 297 295 292 294 294 295 296 296 295 297 297 296 299 300 303 317 322
321 322 322 321 319 321 322 321 320 319 319 319 319 320 320 308 287 304 325 326 324 307 304 301 299 296 295 294 296 294 294 294 296 297 296 295 296 295 296 299 300 300 305 316 319
320 320 320 320 318 321 321 321 320 319 318 319 320 321 310 297 297 308 322 319 306 305 301 299 297 296 293 294 294 292 293 293 295 294 293 295 294 295 295 298 297 299 307 314 321
319 319 319 319 320 322 321 321 319 319 318 318 320 320 301 289 304 310 308 305 304 302 300 299 297 298 294 293 292 293 293 292 293 293 294 292 291 293 293 295 294 297 302 309 318
319 318 318 319 320 321 321 320 319 318 318 319 320 311 298 294 305 307 306 304 304 302 300 301 299 297 296 293 296 293 291 291 292 292 292 293 291 292 293 293 293 295 297 302 310
319 318 318 318 320 321 320 319 318 318 317 319 319 303 292 302 304 304 303 302 303 303 302 303 302 299 296 295 292 290 289 286 289 293 292 291 287 290 293 291 293 293 293 294 298
318 317 318 318 319 320 320 319 317 317 318 319 303 294 290 309 301 303 301 301 302 302 302 303 300 295 295 290 287 286 283 284 287 291 292 290 288 291 293 292 293 293 293 293 294
317 317 318 318 319 319 319 317 317 314 314 312 306 292 294 294 301 302 300 302 299 300 299 298 293 290 287 287 281 283 283 283 284 288 289 288 289 291 293 292 293 293 293 294 294
317 318 318 318 319 319 315 305 296 294 299 292 292 290 295 301 302 299 300 298 297 295 291 292 288 286 288 288 286 286 284 283 285 289 288 288 288 290 292 292 292 293 294 294 295
317 318 318 318 319 318 306 296 295 296 291 299 297 297 299 301 295 296 300 293 292 288 290 289 285 289 291 288 287 285 284 283 286 289 289 286 288 290 291 292 293 294 293 294 293
317 317 318 318 318 310 304 301 309 303 291 292 298 296 297 300 294 296 297 292 288 287 288 286 288 290 290 286 286 284 284 284 285 285 285 284 284 285 288 289 290 292 292 293 293
317 317 317 317 309 307 303 308 309 305 285 287 292 295 299 299 292 298 297 293 287 286 287 287 288 288 286 284 286 283 287 286 285 284 280 283 278 283 285 287 289 291 290 291 294
312 317 317 315 306 303 305 310 308 297 277 289 291 300 298 293 292 293 296 293 287 287 287 285 286 286 285 286 287 285 287 286 285 282 281 280 280 282 283 286 288 289 292 292 294
309 314 316 311 309 308 310 309 303 285 275 285 291 291 292 290 291 293 293 294 291 288 286 286 289 288 288 287 288 288 285 284 282 280 277 280 281 280 282 286 286 289 289 291 291
306 310 312 311 304 310 309 302 284 277 286 284 286 289 288 287 289 290 289 286 285 281 281 284 285 288 289 287 288 285 283 277 276 275 276 278 278 281 286 286 286 289 290 291 292
305 306 307 309 310 310 304 291 278 282 283 290 289 288 285 288 288 289 288 286 287 283 281 280 279 287 289 287 286 283 283 278 272 273 276 280 278 282 286 288 291 292 291 292 292
302 297 302 306 311 309 296 283 280 283 288 289 288 285 284 287 286 286 287 287 289 286 283 280 280 287 287 288 290 285 282 284 277 268 274 278 281 285 287 290 290 291 291 290 291
293 292 295 307 310 303 291 286 284 288 291 291 284 286 281 284 285 285 284 288 287 289 287 285 280 285 287 289 288 286 288 281 279 271 270 276 278 280 286 288 289 289 289 289 290
291 289 294 308 305 295 284 286 287 292 294 290 287 285 284 284 285 286 286 288 291 288 289 286 284 282 286 285 284 283 282 282 282 279 274 271 277 283 285 289 289 288 289 289 289
285 284 298 306 289 286 283 287 294 292 294 294 292 289 286 287 286 285 285 286 291 291 288 288 284 280 283 285 286 285 284 284 280 276 276 277 278 287 287 291 290 289 290 290 290
282 283 296 301 285 285 288 290 292 291 293 293 292 292 291 287 284 287 286 290 290 291 289 289 283 273 280 283 284 283 284 285 282 281 277 275 281 288 288 289 290 290 290 290 289
283 279 286 293 292 288 287 287 288 294 293 295 293 295 292 289 288 286 287 291 292 291 296 294 285 284 279 282 284 283 283 284 284 278 281 281 282 286 287 288 289 289 289 289 289
282 279 282 281 285 287 288 288 287 287 293 295 292 291 291 288 287 287 288 292 294 296 293 291 283 284 286 282 283 284 284 285 283 286 282 285 282 287 290 289 290 288 287 288 288
279 281 282 280 282 283 286 283 286 288 289 289 289 291 292 289 291 287 289 290 290 292 290 290 283 283 281 285 284 281 284 285 287 287 286 282 283 287 292 289 288 288 288 287 287
283 285 282 280 280 281 281 281 284 287 289 290 291 288 287 290 291 293 293 292 294 292 290 288 286 281 281 284 284 281 284 284 286 288 288 284 289 288 287 291 289 288 288 287 287

GFSSW_sfc_thetae_108.txt.gz
Theta_e
324 324 323 322 323 323 323 323 323 322 321 322 321 321 321 322 322 314 304 310 314 327 319 309 309 308 309 307 307 307 302 299 299 299 301 304 305 304 306 306 308 313 309 316 332
323 324 324 323 323 323 323 323 322 321 321 321 320 320 321 322 310 306 319 323 326 326 308 307 305 307 306 305 306 305 301 301 304 304 303 304 306 305 305 305 306 308 311 323 332
322 323 324 323 322 323 323 323 322 321 320 320 320 320 321 319 304 303 323 326 328 324 308 308 308 306 303 304 302 303 300 301 302 302 303 303 302 306 305 303 307 307 310 323 327
321 322 323 322 321 322 323 322 321 320 320 320 320 320 321 314 293 309 326 328 329 313 307 306 305 302 301 301 302 300 299 301 301 302 302 302 304 302 305 306 306 310 312 322 326
320 320 321 321 321 322 322 322 320 320 320 320 320 320 314 302 300 313 324 320 312 308 306 305 302 302 299 299 298 299 300 299 300 300 301 301 301 302 303 307 305 305 310 317 324
319 319 319 320 320 322 322 321 320 319 319 320 321 320 307 296 309 315 313 309 309 308 306 305 304 303 300 300 300 299 299 298 300 299 299 299 298 299 302 302 302 303 307 312 320
319 319 319 319 319 321 322 321 320 319 319 320 320 312 303 300 311 313 310 309 309 307 304 305 305 303 302 298 300 299 297 298 298 299 298 299 297 297 303 300 301 301 305 309 315
319 318 318 318 319 321 321 321 320 319 319 320 320 309 298 307 313 309 309 308 309 309 307 307 307 303 301 301 298 296 297 293 295 297 298 298 295 298 299 299 301 302 303 304 308
318 317 318 318 319 320 320 320 319 318 319 319 310 303 296 313 306 309 309 306 307 307 307 306 306 301 300 297 295 294 291 292 292 297 297 297 296 298 300 300 300 301 302 302 303
317 317 318 318 319 319 319 318 318 318 316 312 308 299 300 299 307 306 308 308 305 305 304 303 302 298 297 295 288 290 289 290 292 294 295 295 295 299 300 299 301 303 303 303 303
318 317 318 318 319 320 317 312 302 301 306 298 298 297 297 305 308 304 306 305 304 303 296 298 295 292 295 296 293 294 291 290 291 294 295 295 295 298 301 300 301 302 304 305 305
318 318 318 318 319 319 313 302 301 303 294 302 301 301 303 306 300 301 305 301 300 295 297 295 292 295 296 292 292 292 291 290 291 294 294 294 294 298 300 300 302 303 303 305 306
317 317 317 318 318 314 307 302 311 306 295 295 300 299 301 304 299 300 303 299 297 294 295 293 293 295 294 291 290 290 290 289 290 291 291 291 292 294 297 297 298 300 301 302 302
317 317 317 317 311 310 304 311 312 307 289 291 294 298 302 303 297 302 303 300 294 293 294 294 293 292 292 291 293 288 292 291 290 290 287 290 286 292 295 295 295 298 299 299 302
317 317 317 315 310 305 307 313 312 302 279 293 293 303 302 297 297 297 302 299 293 292 294 291 291 291 290 292 293 291 292 291 290 290 289 288 287 291 290 292 296 297 299 300 301
316 316 316 312 313 310 312 311 306 289 279 288 294 294 295 295 295 297 298 299 297 293 292 292 294 293 293 290 293 292 291 290 289 288 283 288 288 289 291 293 293 296 297 298 299
316 315 313 314 306 314 313 307 286 281 290 288 289 293 293 291 292 294 293 292 290 286 287 290 291 293 294 290 292 291 290 283 282 282 282 284 284 290 293 292 293 296 297 298 300
310 314 310 310 313 313 309 295 281 287 287 293 291 292 288 291 292 291 291 289 293 290 288 285 283 291 293 292 290 290 290 285 279 279 282 283 282 289 293 293 294 296 298 298 299
303 300 304 308 311 312 299 285 286 287 291 291 290 287 287 290 291 291 290 290 293 291 287 285 286 292 292 293 293 289 286 290 282 277 282 285 288 293 293 293 295 296 297 297 297
297 296 296 306 311 305 292 287 289 291 294 293 287 289 285 288 288 289 289 293 292 293 295 290 284 289 291 294 293 291 293 285 285 281 279 283 284 288 290 292 294 295 296 296 296
296 292 297 307 308 296 285 288 290 294 296 292 290 287 288 287 289 288 288 292 295 292 294 291 288 286 290 289 289 287 286 287 288 286 283 281 285 293 294 296 295 296 296 296 296
291 288 297 305 290 287 285 290 294 294 296 297 294 292 289 289 288 289 288 291 295 294 289 294 290 285 287 291 292 291 290 289 285 282 284 284 286 292 292 297 297 295 294 295 296
288 291 297 301 284 286 289 290 293 293 294 294 294 294 293 290 287 290 291 294 294 294 292 293 289 285 284 288 290 288 289 291 290 288 283 283 286 292 293 295 296 294 294 294 295
288 285 289 294 293 289 288 288 288 294 294 296 295 297 294 290 291 289 290 294 294 295 296 295 288 286 283 286 290 286 288 288 288 285 285 285 288 290 292 293 293 294 295 294 294
286 283 287 285 287 290 290 289 288 288 293 295 292 293 293 290 291 289 291 293 296 296 295 293 286 288 289 290 289 290 289 288 286 288 285 288 288 292 294 294 295 296 295 293 293
285 284 286 284 288 287 288 287 288 289 290 289 290 292 293 289 292 289 292 292 292 294 292 292 287 288 285 289 288 286 289 289 289 289 289 289 289 296 297 298 295 294 293 292 292
288 290 287 284 285 286 285 286 287 290 292 293 293 291 289 293 295 294 294 293 291 290 291 289 288 285 282 288 286 282 286 288 289 291 291 287 292 295 294 295 295 294 293 293 292

GFSSW_sfc_thetae_111.txt.gz
Theta_e
324 324 324 325 324 323 324 324 324 324 325 323 323 323 324 324 323 316 306 312 315 327 321 311 310 311 312 309 310 310 303 300 301 302 303 307 305 308 309 307 309 313 311 319 332
323 323 324 325 324 324 323 324 324 323 323 323 322 322 323 323 313 307 318 324 327 328 312 309 306 308 307 307 308 306 302 303 307 307 305 307 307 307 306 306 306 310 315 326 332
323 322 323 324 324 323 322 324 324 323 322 323 322 322 322 319 305 304 323 325 328 323 312 312 309 308 305 306 306 305 302 306 306 307 307 307 307 309 306 304 307 307 312 324 328
322 322 322 323 323 324 323 324 323 322 321 321 322 321 320 314 295 310 327 327 329 317 310 309 307 303 302 301 305 301 303 304 305 304 305 305 308 305 307 307 309 312 314 321 326
320 321 321 322 322 323 323 323 322 321 321 321 321 321 314 304 303 315 324 326 318 311 308 306 304 303 300 302 302 301 302 301 303 303 304 305 305 305 305 310 309 309 312 318 322
320 319 320 320 321 323 323 322 321 321 321 320 321 321 309 298 311 317 315 311 311 309 308 308 304 306 303 301 301 302 302 302 302 301 302 303 303 302 306 308 308 307 309 313 318
319 319 319 319 320 322 322 322 320 320 320 320 321 314 304 302 313 316 313 311 311 310 306 308 307 304 304 300 302 301 298 300 300 301 300 302 299 299 307 304 303 304 306 309 313
318 318 318 319 319 321 322 321 320 320 320 320 321 311 300 309 315 312 312 310 311 310 309 309 308 306 304 304 300 298 299 294 300 300 300 301 296 304 306 303 303 305 306 306 310
318 318 318 318 318 320 321 320 319 319 319 320 312 307 298 312 307 311 312 308 308 309 309 308 308 303 302 298 295 296 292 294 294 300 300 298 297 303 303 301 302 304 305 305 307
317 317 318 317 319 319 319 318 319 318 316 313 309 300 301 300 308 309 311 310 306 306 305 304 303 298 298 296 289 292 292 293 294 296 297 297 297 301 302 302 302 304 305 305 305
317 317 317 317 319 320 317 313 304 303 305 298 299 298 300 307 310 306 309 307 307 303 297 301 295 292 295 297 297 295 294 292 295 296 296 296 296 299 302 302 302 303 304 306 306
317 317 317 318 319 318 314 302 302 305 296 303 301 302 305 307 300 303 308 302 301 296 299 296 292 297 299 298 295 294 293 292 293 295 295 296 295 299 301 302 303 303 304 306 307
317 317 317 318 318 315 309 305 310 308 295 296 301 300 302 305 299 300 304 303 299 297 297 294 295 299 296 294 293 293 292 292 291 293 295 293 292 295 300 301 303 304 305 306 307
317 317 317 317 311 311 306 309 312 309 290 291 295 299 303 303 297 305 306 302 298 295 297 296 296 296 295 293 294 290 294 293 291 291 287 293 286 295 297 297 298 300 303 304 304
317 316 317 316 311 306 307 313 313 304 279 294 294 304 303 298 299 299 304 301 295 296 296 293 293 293 293 294 296 292 295 293 292 291 290 290 287 292 294 294 297 301 302 303 305
316 316 316 313 314 311 314 313 308 288 280 289 295 294 295 297 296 299 299 301 300 295 295 294 296 296 295 294 296 295 293 293 292 290 283 289 288 289 293 294 296 299 301 302 303
316 315 314 314 307 314 314 307 288 282 292 289 289 293 293 291 294 295 294 293 291 287 288 291 292 295 296 292 294 295 291 284 283 283 282 287 287 290 297 296 296 298 299 301 302
315 315 312 313 314 314 310 295 282 288 290 294 293 293 289 292 292 294 292 290 294 293 290 286 284 292 295 294 291 291 291 286 281 281 284 285 283 290 297 297 297 297 300 301 301
315 311 309 311 316 313 298 284 287 291 295 291 291 288 288 291 291 292 291 291 293 294 288 287 287 294 294 295 295 290 288 293 284 281 284 287 290 295 296 295 296 296 298 299 301
298 301 304 307 315 307 292 287 292 295 296 293 287 290 286 288 288 289 290 294 293 296 297 292 285 291 292 295 295 293 295 285 287 282 280 285 287 289 292 293 295 296 297 299 300
298 294 299 307 310 299 286 290 293 295 297 292 291 289 290 288 289 288 290 293 296 295 296 293 290 287 291 289 289 289 289 290 290 288 283 281 286 295 296 297 296 297 298 299 298
294 286 298 306 292 290 287 293 295 295 298 296 295 293 290 291 289 289 289 292 297 296 291 294 291 286 287 293 295 294 290 291 286 284 286 285 287 295 295 296 300 299 300 300 300
290 290 299 303 285 285 291 291 295 294 295 295 293 295 294 291 288 291 292 296 296 295 292 294 289 286 285 290 293 289 291 292 292 290 285 283 286 297 295 297 299 299 298 297 298
292 285 288 293 293 290 289 289 290 296 296 297 297 297 293 291 293 291 291 295 296 296 296 296 292 287 283 286 290 287 289 291 289 285 286 287 289 293 294 295 297 298 297 297 297
289 286 287 284 286 291 291 290 289 289 295 297 294 295 293 290 290 290 293 294 295 295 295 295 287 289 290 291 291 291 290 290 288 289 286 289 289 293 296 296 297 298 298 297 296
287 286 288 288 289 290 290 288 289 291 293 291 291 294 295 292 293 291 293 293 293 295 293 294 288 290 286 290 290 288 290 291 291 291 290 290 290 297 299 299 298 297 297 295 296
292 293 291 287 288 287 288 290 290 293 294 295 294 293 291 293 297 297 297 296 294 293 292 290 289 286 283 289 288 284 287 289 290 293 291 287 292 296 296 297 298 298 297 296 296

GFSSW_sfc_thetae_114.txt.gz
Theta_e
325 325 325 325 326 326 326 327 327 327 327 327 326 325 324 325 323 315 305 313 315 327 324 309 310 309 311 309 310 308 298 296 297 298 298 303 300 302 302 303 302 307 309 318 329
324 324 324 324 325 324 324 325 326 326 326 326 325 324 324 324 312 307 318 329 327 328 311 307 305 307 304 306 306 302 298 300 304 300 300 302 302 302 298 300 301 306 312 326 328
323 323 323 324 324 324 324 325 325 325 325 324 324 324 323 319 306 304 326 327 327 327 313 310 308 306 302 305 303 302 300 302 302 303 305 303 302 304 299 298 301 303 312 323 324
322 322 322 322 324 323 324 325 325 324 324 324 323 323 322 313 293 311 324 326 327 317 309 308 305 301 300 300 303 299 301 301 304 302 303 303 304 299 300 299 304 305 314 321 322
321 321 321 322 322 323 324 324 324 323 323 323 322 322 314 303 303 316 325 327 322 314 306 305 302 302 298 300 300 299 300 301 302 301 301 303 301 299 300 303 304 307 314 318 321
320 320 320 321 321 323 323 324 323 322 322 322 322 321 310 296 312 317 317 319 313 309 306 306 304 304 301 299 299 299 300 299 300 299 300 300 297 298 301 303 303 304 306 313 317
319 319 320 320 321 322 323 323 322 322 322 321 322 312 303 302 312 315 311 309 310 308 305 307 306 302 302 298 300 299 296 296 297 298 296 297 294 295 297 299 301 302 302 305 310
319 318 319 320 320 321 322 322 321 321 321 322 322 311 300 311 313 312 312 309 309 309 309 308 307 305 302 301 298 294 294 290 296 297 297 295 290 299 300 298 298 298 298 300 303
318 318 319 319 319 320 321 321 320 321 321 321 311 307 298 312 307 311 311 306 307 307 307 307 307 301 300 294 290 291 286 289 292 298 296 294 292 297 297 297 295 297 298 299 300
317 318 318 318 319 320 320 319 320 319 316 313 308 301 301 299 307 309 310 309 305 305 303 303 300 295 294 291 284 287 286 289 289 292 293 292 292 295 296 296 295 296 297 297 298
317 318 318 318 319 320 317 313 305 301 304 297 299 298 300 306 309 305 308 306 305 301 294 298 292 288 291 293 292 290 290 289 291 293 291 291 292 294 296 295 296 296 297 298 299
317 318 317 318 320 319 313 302 302 304 295 302 301 301 305 306 299 303 307 300 299 293 296 293 288 295 296 295 292 290 289 288 290 294 291 290 291 294 296 296 297 297 296 298 298
317 317 317 317 319 314 308 304 308 305 294 297 301 300 302 305 299 299 303 300 297 293 293 290 292 297 295 292 291 289 288 287 288 290 290 287 287 290 294 297 297 298 298 299 299
317 316 316 318 312 310 305 308 310 307 288 290 294 298 303 303 297 304 304 300 296 293 294 293 295 294 292 291 291 286 291 291 289 287 281 287 279 286 290 292 294 296 296 297 298
316 316 316 317 310 305 308 312 311 302 277 292 294 304 303 297 298 298 303 298 293 293 294 290 291 291 290 291 293 289 292 290 289 286 283 283 280 284 289 289 292 294 295 296 297
316 316 316 313 312 310 311 312 306 286 278 288 293 294 294 296 296 298 297 299 298 294 293 291 294 293 292 292 293 293 290 289 287 285 278 284 283 283 287 290 290 292 295 298 299
315 315 314 314 305 312 312 304 285 279 291 287 288 293 292 291 293 294 292 290 288 285 284 289 289 291 293 289 291 290 286 279 277 277 277 282 281 285 290 291 292 294 295 296 299
315 315 313 313 312 313 307 292 278 286 288 292 291 291 288 291 291 292 290 287 291 289 286 283 281 288 292 290 287 287 286 280 274 276 277 281 278 284 292 292 291 293 296 296 297
315 312 310 310 313 311 297 283 281 287 292 290 290 286 287 289 290 290 289 288 291 291 285 284 284 291 292 291 291 287 283 287 280 274 276 280 284 290 291 291 292 291 295 295 296
310 307 305 312 313 305 291 286 291 295 295 292 286 288 284 287 287 288 288 291 291 293 293 288 283 289 290 291 290 288 290 281 282 272 272 278 279 283 287 289 291 291 292 295 297
302 297 300 311 309 297 285 287 293 295 296 291 290 288 288 287 288 287 287 290 294 292 294 290 288 284 288 286 285 285 285 285 285 282 276 274 279 287 289 291 290 290 293 295 296
295 288 300 308 291 290 286 292 296 294 298 296 294 292 289 289 287 287 287 290 294 295 289 292 289 280 284 288 290 289 286 286 280 278 280 280 281 291 290 290 292 293 294 295 296
287 290 300 303 284 285 291 293 295 294 295 295 293 294 293 290 286 290 290 293 294 293 291 291 285 277 280 285 288 285 287 288 287 284 280 276 281 291 291 291 293 293 294 294 294
287 284 287 297 294 290 289 289 290 297 296 297 295 295 292 290 293 289 291 294 295 295 296 295 289 283 280 283 288 283 286 288 287 281 283 282 285 286 288 290 292 293 293 293 293
286 284 286 285 286 291 291 291 289 290 296 298 295 294 291 288 289 290 292 292 293 294 293 292 281 286 285 287 287 286 286 287 286 286 282 285 285 290 289 291 292 293 292 293 293
286 285 289 290 290 290 290 288 289 291 293 291 292 294 295 290 291 288 291 291 290 292 290 292 282 284 280 287 287 283 287 288 288 288 287 287 286 293 290 290 292 293 293 293 293
291 292 291 287 288 287 287 289 290 293 294 296 295 294 292 293 295 295 295 295 293 291 289 287 282 279 273 285 283 278 285 286 287 289 288 285 290 293 291 291 292 293 293 294 294

GFSSW_sfc_thetae_117.txt.gz
Theta_e
326 326 326 327 327 328 328 329 329 328 328 328 328 326 326 325 323 315 305 312 314 328 323 308 307 304 305 305 306 305 295 292 295 295 296 299 297 300 300 302 302 306 308 317 327
325 325 326 326 326 327 328 328 328 328 327 327 327 326 325 324 310 306 317 328 329 330 309 304 302 304 300 302 300 297 294 296 300 298 297 299 299 300 297 298 300 309 321 325 326
324 325 325 325 325 326 326 327 327 327 327 326 325 325 324 319 303 304 324 329 331 326 311 307 305 303 298 299 298 297 295 297 298 301 302 300 298 299 296 295 301 306 318 322 322
324 323 323 323 324 325 325 326 326 326 326 325 324 323 322 310 290 308 327 329 329 317 309 305 302 297 297 298 301 295 299 298 301 301 301 299 300 299 298 299 302 309 321 321 321
322 322 322 322 323 324 325 325 325 325 325 325 323 322 312 300 301 313 324 326 320 311 304 303 300 298 295 297 298 296 295 299 299 300 299 302 298 298 298 300 304 309 321 320 321
321 320 321 321 322 323 324 325 324 324 324 324 323 321 305 292 309 317 318 318 314 308 304 303 301 302 298 297 296 297 296 297 297 297 298 299 295 296 299 300 304 312 316 318 320
320 320 320 320 321 321 323 324 324 323 323 323 323 312 301 297 310 312 315 313 310 307 303 304 304 299 299 295 298 297 294 295 293 296 295 296 293 295 297 300 299 303 307 314 319
319 319 319 320 320 321 321 323 322 322 322 323 322 307 295 308 308 308 307 305 307 306 306 306 304 302 299 298 295 293 292 288 293 296 295 295 290 297 298 297 297 297 297 301 309
319 318 319 319 319 320 320 321 321 322 323 322 309 302 294 311 305 308 306 303 304 304 304 306 303 298 297 291 287 288 284 287 290 295 294 292 289 295 295 294 293 293 294 295 298
318 318 319 319 319 319 319 320 320 320 318 314 308 296 298 297 304 307 306 305 302 301 300 300 297 292 291 287 281 285 284 286 287 291 291 289 291 293 294 293 293 292 293 293 296
318 318 319 319 319 320 317 313 303 300 304 296 296 296 298 303 306 303 305 302 301 297 290 295 289 286 289 291 290 289 287 286 287 292 291 290 290 293 293 292 292 292 293 294 295
317 318 318 318 319 319 313 301 299 301 294 300 299 300 303 304 298 300 305 296 295 290 293 289 286 291 293 292 290 288 286 285 288 291 288 288 289 291 293 293 294 294 294 294 295
317 317 317 318 318 314 306 301 305 304 293 295 299 298 300 302 297 297 301 297 293 290 290 287 290 295 293 290 289 286 286 285 287 288 288 285 284 288 291 293 294 294 295 296 296
317 317 317 318 312 309 303 306 306 302 286 290 293 297 301 301 295 302 302 298 293 290 291 290 293 292 290 289 289 285 289 289 288 283 280 284 278 284 288 290 292 294 294 295 296
316 316 317 316 310 303 305 307 305 298 276 291 293 303 301 295 296 296 300 295 291 291 290 289 290 290 289 290 291 287 290 289 287 284 281 281 279 282 285 287 291 293 293 293 294
316 316 316 313 311 308 309 308 300 285 276 287 293 293 294 295 295 296 295 296 295 292 290 290 292 291 291 290 291 291 288 287 285 282 277 281 280 280 284 288 289 290 293 294 297
315 315 313 313 305 310 308 300 284 276 289 285 286 291 290 290 291 292 289 288 286 283 282 287 288 290 292 288 290 289 283 277 276 276 276 280 279 282 287 290 291 292 293 295 296
315 315 312 312 312 310 303 290 275 284 285 290 290 290 286 290 289 290 288 287 288 287 284 282 280 288 290 289 286 286 284 279 273 274 276 279 278 283 289 289 290 292 294 294 295
315 311 309 310 311 308 295 282 280 285 290 287 288 285 284 289 289 288 286 288 289 288 284 282 283 289 290 291 291 286 283 286 279 270 274 278 281 287 290 290 290 288 292 294 295
309 306 306 311 311 302 290 284 288 291 292 290 283 285 281 285 285 285 286 289 288 291 290 287 282 288 289 290 289 287 289 281 280 270 270 276 277 281 285 287 287 289 290 292 294
307 299 306 311 308 295 284 284 291 294 293 289 286 285 285 285 286 285 286 288 291 291 291 288 285 283 287 285 285 285 284 284 283 280 274 272 277 284 288 289 289 289 289 291 294
300 289 306 309 292 290 283 289 294 293 296 293 291 290 286 287 286 286 285 289 294 293 288 289 285 279 283 287 288 287 285 284 279 276 277 279 280 287 288 289 289 288 290 291 293
292 291 301 305 285 286 287 291 293 293 293 293 291 292 291 288 285 288 289 291 292 292 290 290 282 272 279 284 286 283 285 286 284 281 279 275 280 288 288 289 291 290 291 292 293
289 286 289 298 291 289 286 287 288 295 294 296 293 293 290 288 290 287 288 292 292 292 296 294 285 281 278 281 286 283 285 287 285 279 280 280 283 284 287 287 290 291 291 292 292
286 283 287 285 287 290 290 290 288 288 294 296 292 292 290 286 288 287 290 290 291 294 292 291 278 283 283 285 285 284 284 286 285 285 281 284 284 288 287 288 290 291 291 291 292
285 285 288 288 291 289 290 288 288 291 292 291 290 292 292 288 289 287 289 289 288 290 289 290 277 282 278 285 285 282 285 285 286 286 285 284 285 290 288 287 289 291 291 291 291
288 290 291 291 289 289 289 290 291 293 293 295 294 293 291 292 294 294 295 294 293 289 287 284 280 277 277 284 284 277 281 285 285 287 287 283 289 289 288 290 289 291 291 292 293

GFSSW_sfc_thetae_120.txt.gz
Theta_e
323 327 327 327 327 328 329 330 330 330 329 329 327 326 325 325 323 313 307 313 314 327 322 307 308 305 304 302 303 301 293 290 293 293 295 298 297 298 299 300 302 305 313 317 324
323 323 326 327 327 327 328 329 329 329 329 328 326 324 326 324 310 306 320 327 328 331 308 304 303 303 298 299 299 295 291 293 297 296 297 298 298 298 297 298 301 312 319 324 323
322 321 323 325 326 326 327 328 328 328 328 327 327 325 324 320 302 302 323 326 331 328 310 307 305 303 298 298 297 296 294 296 296 298 299 298 297 297 297 293 302 312 318 321 321
321 322 323 324 325 326 327 327 327 327 327 325 325 325 323 312 291 305 325 325 331 314 308 305 302 297 296 295 298 295 298 296 299 300 299 298 299 296 295 297 302 319 322 322 321
319 320 322 323 324 324 326 326 327 327 325 325 322 323 313 300 301 310 326 327 319 309 304 303 300 298 295 297 296 295 294 297 298 299 298 299 296 297 296 297 304 319 321 321 322
319 319 321 322 322 323 324 325 326 326 325 324 324 321 306 293 308 315 317 313 310 305 302 302 301 301 297 297 296 297 295 294 296 296 296 297 295 296 298 299 308 319 318 320 321
318 319 320 321 322 322 323 324 325 325 324 323 320 312 302 298 310 314 314 310 310 305 301 303 302 299 297 295 298 296 293 293 293 295 294 295 293 295 296 300 304 315 316 317 320
318 319 320 320 321 322 322 323 324 324 323 323 319 309 298 309 308 310 307 306 308 305 303 304 302 301 297 297 295 292 291 287 291 294 294 294 290 296 297 298 301 306 309 313 317
318 319 319 319 320 321 321 321 322 323 324 323 312 304 295 312 306 307 304 302 304 302 301 304 302 297 295 289 287 287 284 286 289 293 293 291 289 293 294 295 295 297 299 303 308
318 319 319 319 320 320 320 321 321 321 319 312 307 298 298 299 305 306 304 303 300 299 298 297 295 291 289 287 283 284 284 285 287 291 291 288 290 293 292 292 292 292 292 292 294
318 319 319 319 319 320 318 313 305 302 305 297 296 295 296 301 305 303 304 301 299 295 289 292 288 285 289 290 289 288 286 285 287 291 291 290 290 292 293 291 292 291 291 292 293
318 318 319 319 320 319 313 302 302 300 295 299 299 299 301 303 297 300 302 296 293 288 290 288 285 290 292 291 290 287 284 284 288 290 287 287 289 291 291 292 293 293 292 293 293
318 318 318 318 319 314 307 303 306 305 292 294 298 298 299 300 296 297 300 296 291 288 288 286 289 293 291 288 288 285 285 284 285 287 287 284 284 286 290 291 292 293 295 295 295
318 317 317 318 312 309 302 306 306 301 286 289 293 297 300 299 294 301 301 297 291 288 289 288 291 291 289 287 288 284 288 288 287 283 280 283 277 282 285 288 290 293 294 295 295
317 317 317 317 310 303 304 306 304 297 275 290 293 302 300 294 296 296 300 295 289 288 289 287 288 288 287 288 290 287 289 288 286 282 280 279 278 282 283 286 289 291 292 294 293
316 316 317 313 310 308 307 305 299 285 276 286 293 293 293 294 294 295 296 296 294 290 289 288 291 290 290 289 290 290 287 286 283 281 277 279 280 279 283 287 289 289 291 292 292
316 316 314 313 305 308 307 300 283 276 288 284 287 291 290 289 290 292 291 287 286 282 282 285 286 288 291 288 289 287 284 277 277 276 276 278 278 281 286 288 288 289 291 291 294
315 315 313 312 310 308 302 290 276 283 285 288 289 290 286 289 288 289 289 286 288 285 283 281 280 287 289 288 285 285 284 278 273 274 276 279 278 283 288 288 289 289 290 294 294
315 312 309 309 309 307 295 282 280 285 288 287 288 285 283 288 288 287 287 288 288 287 284 281 281 287 289 289 290 285 282 285 279 270 275 278 281 286 289 288 287 288 289 291 293
310 306 305 310 310 301 290 283 284 290 291 290 282 284 282 285 284 284 285 290 289 289 289 286 282 287 288 290 289 287 288 282 280 271 271 277 277 281 284 288 286 288 289 290 292
307 299 306 310 307 295 284 283 289 292 293 288 285 284 284 284 284 283 285 287 292 290 290 288 286 283 287 286 284 284 283 283 283 280 275 272 277 284 286 287 287 287 288 290 292
302 291 306 308 292 290 286 288 293 291 294 292 290 287 286 286 284 284 284 287 292 291 287 289 286 281 282 286 287 287 286 286 280 276 277 278 278 285 285 288 287 287 287 287 291
292 294 306 303 286 286 287 289 292 292 292 291 289 290 289 287 284 287 287 291 292 292 289 289 282 275 280 284 286 283 284 285 283 281 279 276 278 288 287 288 290 289 289 290 291
292 288 296 298 292 289 287 287 287 294 293 294 292 291 289 287 289 286 288 291 292 292 296 294 284 282 279 281 285 283 285 285 285 279 279 281 280 283 286 287 289 290 289 290 291
288 287 290 287 287 289 289 288 287 288 293 294 291 290 289 285 286 286 288 288 290 294 292 289 277 282 281 284 284 283 283 284 283 284 281 284 283 284 286 286 286 288 289 290 291
286 288 290 292 290 289 289 287 288 290 291 290 289 290 291 287 287 285 287 286 287 288 287 288 277 281 278 283 283 281 283 286 286 285 283 282 283 288 286 288 288 288 290 291 291
287 291 294 292 289 287 287 287 288 291 291 293 292 291 289 290 292 292 293 292 290 289 287 286 280 276 272 281 281 277 282 283 284 285 286 282 288 290 286 288 288 289 289 290 291

GFSSW_sfc_thetae_123.txt.gz
Theta_e
322 322 321 327 327 328 328 329 330 330 328 328 330 330 328 327 325 313 307 316 318 326 322 306 307 305 306 302 302 300 292 288 292 292 293 296 296 297 298 299 301 305 314 317 325
321 321 321 326 326 327 328 328 330 330 330 329 329 327 326 325 311 308 322 329 328 330 309 303 303 303 300 300 298 295 291 292 295 295 295 297 297 298 298 299 303 309 316 321 329
318 320 321 324 326 326 327 327 328 329 329 328 328 326 324 317 305 307 326 327 327 325 310 307 305 302 298 296 295 295 294 295 295 297 298 297 296 296 297 294 303 308 315 319 326
318 317 320 320 319 325 326 327 327 328 328 327 326 323 322 314 303 307 327 327 327 320 307 304 303 298 295 296 298 292 297 295 297 299 297 296 297 294 296 297 300 312 320 319 322
317 318 318 320 320 324 325 327 327 327 327 326 325 324 316 303 302 310 325 325 324 309 304 302 300 297 294 296 296 294 294 295 296 297 296 298 295 295 295 296 307 317 319 318 320
316 316 317 319 320 323 324 326 326 327 326 324 323 322 306 295 307 315 318 315 310 305 303 303 301 302 298 296 295 296 294 294 294 295 295 296 293 295 296 299 313 317 317 318 319
314 315 317 318 319 322 323 325 325 325 325 323 321 312 302 300 309 314 312 308 308 303 300 302 303 301 298 294 297 295 291 291 292 294 293 294 292 294 295 300 312 314 315 316 318
314 315 317 318 319 322 322 324 324 324 324 323 319 309 299 310 310 312 309 305 306 303 302 303 301 300 299 297 294 292 289 286 290 293 293 293 290 294 295 299 306 311 312 314 317
313 314 316 317 318 319 321 322 322 324 322 319 310 306 298 311 305 308 305 303 305 301 300 303 300 295 294 290 286 287 283 286 287 291 291 291 290 292 293 296 298 303 307 312 314
312 314 316 317 319 319 321 322 322 321 316 313 311 299 300 301 305 305 303 304 300 299 297 296 293 289 287 286 284 283 284 285 286 291 290 289 290 291 291 293 295 297 300 301 304
311 314 316 317 319 320 319 316 309 306 305 298 298 298 297 305 306 303 302 300 297 294 288 291 287 284 286 288 288 287 286 286 285 290 290 288 289 290 291 289 291 292 292 293 295
311 313 316 318 320 320 317 308 307 304 296 299 300 300 300 305 299 301 302 295 292 287 289 288 284 289 291 290 288 285 284 284 287 290 288 286 288 290 290 291 292 292 290 292 293
310 313 315 318 319 317 311 308 308 307 295 295 297 298 299 301 298 298 299 294 291 287 287 286 288 291 290 287 287 283 283 283 286 287 286 284 285 286 290 290 291 292 293 294 295
309 314 316 318 313 313 308 307 309 304 287 289 293 297 300 299 295 301 301 296 290 287 287 287 290 290 287 286 287 283 287 287 286 284 280 283 279 283 285 288 289 292 294 294 296
312 315 317 318 312 307 308 307 305 297 278 291 292 302 300 294 296 296 300 296 288 288 288 285 287 287 285 286 288 285 288 287 284 282 280 279 278 281 282 286 289 291 292 293 294
314 315 317 315 313 312 308 305 298 285 276 286 293 292 293 293 294 295 296 296 293 290 288 287 289 290 289 288 289 288 286 285 283 282 277 279 280 279 282 287 288 287 289 291 291
315 316 315 316 307 308 306 299 284 279 287 283 287 291 291 288 290 293 291 287 286 283 283 284 285 286 289 286 286 285 282 276 276 275 276 278 277 282 285 287 287 287 289 289 291
315 315 314 314 309 307 302 290 278 283 284 287 289 290 286 289 288 291 289 286 287 286 283 282 280 286 288 287 284 283 283 277 272 272 276 279 278 282 287 288 288 287 288 292 292
315 314 311 310 308 306 295 282 280 284 286 286 287 285 283 287 287 287 288 288 287 286 283 280 281 287 288 288 290 284 281 284 278 269 274 278 280 286 287 287 287 287 289 291 292
311 309 306 309 308 301 290 283 283 289 289 289 283 286 282 285 284 286 287 290 287 288 289 285 281 286 287 289 288 286 288 282 279 271 271 276 277 280 284 286 287 287 289 289 291
309 301 306 308 306 295 284 282 287 290 292 287 284 283 285 285 284 284 286 286 290 288 288 286 285 283 286 285 283 283 282 281 282 280 274 272 277 283 285 285 286 287 288 289 291
304 291 306 307 291 291 286 286 292 290 291 289 288 286 286 287 283 283 283 286 292 290 286 288 285 280 282 285 286 285 285 285 282 276 276 277 279 285 286 286 287 287 287 286 290
295 296 305 302 285 286 288 287 290 289 290 288 287 288 290 287 284 285 285 289 291 290 288 289 282 277 281 284 285 283 283 285 282 281 277 275 278 287 286 288 288 290 289 290 289
293 288 295 296 293 289 286 286 286 291 291 291 289 290 288 287 289 285 286 290 291 291 295 293 284 283 279 282 285 282 284 284 284 280 279 280 280 283 285 288 288 289 290 290 290
289 289 292 286 289 290 289 287 286 286 291 291 288 289 288 285 286 285 288 288 289 293 292 289 280 281 281 283 285 283 284 284 284 286 282 284 282 284 286 287 286 286 290 290 290
288 291 293 291 291 289 289 286 287 288 290 288 286 289 290 286 287 283 286 285 286 287 285 286 276 281 278 282 283 282 284 285 285 285 283 280 281 286 287 285 286 287 288 288 289
288 292 295 292 289 287 286 287 289 291 291 292 290 288 287 289 291 292 292 291 290 288 286 285 278 275 271 280 281 278 282 283 285 284 285 282 287 287 284 287 287 287 287 287 289

GFSSW_sfc_thetae_126.txt.gz
Theta_e
321 322 322 321 320 327 328 329 330 327 325 326 327 328 329 328 324 316 306 317 317 328 320 306 307 305 305 303 301 298 291 288 291 291 293 295 296 295 298 300 300 304 310 314 326
319 320 321 322 320 326 327 328 329 328 325 326 328 329 327 324 314 310 323 329 332 330 319 310 303 303 300 301 300 295 291 292 294 295 293 296 296 297 298 299 302 307 314 322 329
318 319 319 321 320 320 326 326 327 328 327 327 327 328 325 319 314 314 327 328 330 321 312 314 305 303 299 300 298 294 292 295 294 296 295 295 293 295 296 295 300 305 312 322 326
317 318 318 317 320 321 325 325 327 327 328 327 327 326 319 317 301 315 329 329 328 314 308 307 302 298 297 296 296 291 296 295 296 297 296 295 296 293 297 297 297 307 317 322 323
316 316 317 316 315 320 321 323 326 327 327 327 327 320 314 305 309 310 327 328 321 314 310 303 299 298 295 297 295 292 292 295 295 296 296 297 294 294 295 295 301 315 317 320 323
315 315 316 316 315 318 319 319 325 326 326 327 323 319 309 304 312 315 318 320 316 309 309 306 301 301 298 296 295 296 293 292 293 294 295 294 293 294 295 301 310 315 314 316 321
314 314 314 315 315 315 319 320 323 325 326 326 322 314 305 308 310 315 315 313 310 306 302 306 306 300 299 296 296 294 292 290 291 293 293 294 291 293 293 300 310 312 313 315 317
314 313 313 314 315 316 318 319 322 324 325 324 322 310 300 309 312 312 308 306 305 304 304 305 303 302 298 296 294 291 290 286 291 292 291 293 288 295 295 300 306 310 311 314 316
312 313 313 314 315 317 317 318 321 324 325 322 309 305 300 312 307 309 307 304 303 303 301 303 301 297 296 292 288 287 284 285 287 291 290 290 290 293 293 297 298 307 309 311 312
312 312 312 312 315 316 317 319 321 323 318 314 310 301 302 300 305 305 304 305 300 299 297 296 292 288 286 286 282 282 283 284 286 290 289 287 290 289 291 293 296 296 303 306 309
310 310 311 312 315 317 316 312 310 304 305 300 299 298 300 305 307 303 303 300 297 294 288 290 288 284 286 287 287 286 285 284 285 289 289 287 289 290 289 288 290 292 294 298 304
309 310 310 311 314 317 315 304 309 307 297 300 301 301 303 306 298 300 303 296 292 287 289 287 285 288 290 288 287 284 283 282 286 288 288 286 288 290 290 291 291 292 292 293 295
308 309 309 311 313 314 310 309 314 310 296 296 300 299 300 305 299 297 299 293 290 287 287 286 288 291 290 286 286 282 283 282 284 285 285 283 285 286 289 290 292 292 292 293 295
306 307 308 311 307 311 308 315 313 308 289 288 293 299 299 303 298 302 300 296 290 287 288 287 289 289 286 285 286 281 286 285 285 283 281 282 279 284 285 287 287 291 292 294 295
306 306 307 310 307 306 311 313 313 303 278 291 293 302 300 299 298 300 301 295 288 287 287 285 286 286 285 286 288 285 287 285 283 280 279 278 278 283 282 285 288 291 292 294 294
304 305 307 307 308 312 315 310 306 288 278 286 293 292 293 295 295 297 297 296 293 290 288 286 288 289 288 286 288 287 284 283 281 279 276 277 278 279 281 286 288 289 288 290 290
304 305 306 308 303 314 311 303 284 281 287 284 287 291 290 289 290 294 291 289 286 281 280 283 283 285 288 285 285 284 282 276 275 274 275 276 276 281 285 286 287 287 287 288 291
304 305 306 308 311 313 305 291 279 285 285 287 289 290 286 289 289 290 289 286 289 285 281 281 279 285 287 286 283 282 284 277 272 272 275 278 276 282 286 288 287 288 288 291 292
304 304 305 309 311 309 296 282 281 286 287 286 288 285 283 287 288 288 288 288 289 286 282 279 280 286 286 287 289 283 280 284 278 268 273 276 279 284 286 286 287 287 287 290 291
301 303 304 310 311 302 288 286 285 290 289 289 283 286 282 285 286 287 286 290 289 288 288 286 280 285 286 288 287 286 287 282 279 272 270 275 276 279 284 283 285 286 288 288 291
304 299 306 310 307 294 285 286 285 289 292 288 285 284 285 284 285 286 286 287 291 287 288 286 284 281 286 284 283 283 282 281 281 279 274 270 276 281 283 284 285 287 288 289 290
303 291 306 307 291 289 286 287 290 289 292 288 289 286 286 287 284 285 285 286 290 289 286 287 284 278 281 285 286 284 284 284 281 276 276 277 278 284 285 286 286 286 287 287 290
297 294 305 303 285 286 290 288 288 289 289 287 286 288 290 287 283 284 285 289 290 290 287 288 282 275 280 283 284 282 281 284 282 281 277 275 278 285 286 285 287 288 288 289 290
296 286 294 297 294 290 287 285 285 291 288 289 287 290 288 286 287 284 286 289 291 290 295 293 284 282 279 281 284 282 282 283 283 279 277 279 279 283 286 287 287 288 289 290 291
287 286 290 286 288 291 289 286 285 284 289 289 286 288 288 283 284 284 286 287 289 293 291 290 283 282 281 283 285 284 283 284 284 286 283 285 283 285 287 288 287 288 289 290 291
285 290 292 288 292 290 290 286 286 286 287 286 286 289 289 285 287 283 285 284 286 286 285 285 276 281 278 282 283 282 283 284 285 286 284 279 281 285 287 287 287 288 288 288 289
289 293 294 290 290 288 287 288 287 290 290 289 289 289 286 288 289 290 291 290 289 288 285 284 279 276 272 281 282 278 282 283 284 284 285 281 285 287 284 285 286 287 288 289 287